Wetterdaten: Sonntag, 21.02.2016
Datum Zeit Auen-Temp. Temp gefhlt Luftfeuchte Luftdruck Regen Wind Richtung Richtung Sonnenschein Taupunkt Windben
21.02.2016 00:00 6,2 C 5,2 C 84 % 1018,8 hPa 0,0 mm 18,5 km/h (3 Bft) W 270 0 min 3,7 C 27,7 km/h (4 Bft)
21.02.2016 00:01 6,2 C 5,4 C 84 % 1018,8 hPa 0,0 mm 18,2 km/h (3 Bft) NW 315 0 min 3,7 C 24,1 km/h (4 Bft)
21.02.2016 00:02 6,2 C 5,2 C 84 % 1018,8 hPa 0,0 mm 18,2 km/h (3 Bft) NW 315 0 min 3,7 C 24,1 km/h (4 Bft)
21.02.2016 00:03 6,2 C 5,2 C 84 % 1018,1 hPa 0,0 mm 18,2 km/h (3 Bft) NW 315 0 min 3,7 C 24,1 km/h (4 Bft)
21.02.2016 00:04 6,2 C 5,2 C 84 % 1018,1 hPa 0,0 mm 18,2 km/h (3 Bft) NW 315 0 min 3,7 C 24,1 km/h (4 Bft)
21.02.2016 00:05 6,2 C 5,5 C 85 % 1018,1 hPa 0,0 mm 15,2 km/h (3 Bft) W 270 0 min 3,9 C 13,4 km/h (3 Bft)
21.02.2016 00:06 6,2 C 5,4 C 85 % 1018,1 hPa 0,0 mm 15,2 km/h (3 Bft) W 270 0 min 3,9 C 13,4 km/h (3 Bft)
21.02.2016 00:07 6,2 C 5,4 C 85 % 1018,1 hPa 0,0 mm 15,2 km/h (3 Bft) W-NW 292 0 min 3,9 C 19,1 km/h (3 Bft)
21.02.2016 00:08 6,2 C 5,4 C 85 % 1018,1 hPa 0,0 mm 15,2 km/h (3 Bft) W-NW 292 0 min 3,9 C 19,1 km/h (3 Bft)
21.02.2016 00:09 6,2 C 5,4 C 85 % 1018,1 hPa 0,7 mm 14,0 km/h (3 Bft) W-SW 247 0 min 3,9 C 14,3 km/h (3 Bft)
21.02.2016 00:10 6,2 C 5,4 C 85 % 1018,1 hPa 0,0 mm 14,0 km/h (3 Bft) W-SW 247 0 min 3,9 C 14,3 km/h (3 Bft)
21.02.2016 00:11 6,3 C 5,5 C 85 % 1018,1 hPa 0,0 mm 13,7 km/h (3 Bft) W-SW 247 0 min 4,0 C 28,3 km/h (4 Bft)
21.02.2016 00:12 6,3 C 5,5 C 85 % 1018,1 hPa 0,0 mm 13,7 km/h (3 Bft) W-SW 247 0 min 4,0 C 28,3 km/h (4 Bft)
21.02.2016 00:13 6,5 C 5,6 C 85 % 1018,1 hPa 0,0 mm 14,6 km/h (3 Bft) NW 315 0 min 4,2 C 26,8 km/h (4 Bft)
21.02.2016 00:14 6,5 C 5,6 C 85 % 1018,1 hPa 0,0 mm 14,6 km/h (3 Bft) NW 315 0 min 4,2 C 33,7 km/h (5 Bft)
21.02.2016 00:15 6,5 C 5,8 C 85 % 1018,1 hPa 0,0 mm 16,1 km/h (3 Bft) W-SW 247 0 min 4,2 C 34,3 km/h (5 Bft)
21.02.2016 00:16 6,5 C 5,6 C 85 % 1018,1 hPa 0,0 mm 16,1 km/h (3 Bft) W-SW 247 0 min 4,2 C 34,3 km/h (5 Bft)
21.02.2016 00:17 6,6 C 5,6 C 85 % 1018,1 hPa 0,0 mm 17,3 km/h (3 Bft) W-SW 247 0 min 4,3 C 27,4 km/h (4 Bft)
21.02.2016 00:18 6,6 C 5,6 C 85 % 1018,1 hPa 0,0 mm 17,3 km/h (3 Bft) W-SW 247 0 min 4,3 C 27,4 km/h (4 Bft)
21.02.2016 00:19 6,6 C 5,6 C 84 % 1018,1 hPa 0,0 mm 17,6 km/h (3 Bft) W 270 0 min 4,1 C 22,7 km/h (4 Bft)
21.02.2016 00:20 6,6 C 5,6 C 84 % 1018,1 hPa 0,0 mm 17,6 km/h (3 Bft) W 270 0 min 4,1 C 22,7 km/h (4 Bft)
21.02.2016 00:21 6,7 C 5,7 C 84 % 1018,1 hPa 0,0 mm 17,6 km/h (3 Bft) W 270 0 min 4,2 C 12,5 km/h (3 Bft)
21.02.2016 00:22 6,7 C 5,7 C 84 % 1018,1 hPa 0,0 mm 17,6 km/h (3 Bft) W 270 0 min 4,2 C 12,5 km/h (3 Bft)
21.02.2016 00:23 6,6 C 5,9 C 84 % 1018,2 hPa 0,0 mm 17,0 km/h (3 Bft) W 270 0 min 4,1 C 22,9 km/h (4 Bft)
21.02.2016 00:24 6,6 C 5,7 C 84 % 1018,2 hPa 0,0 mm 17,0 km/h (3 Bft) W 270 0 min 4,1 C 39,0 km/h (6 Bft)
21.02.2016 00:25 6,6 C 5,7 C 84 % 1018,2 hPa 0,0 mm 16,4 km/h (3 Bft) NW 315 0 min 4,1 C 22,9 km/h (4 Bft)
21.02.2016 00:26 6,6 C 5,7 C 84 % 1018,2 hPa 0,0 mm 16,4 km/h (3 Bft) NW 315 0 min 4,1 C 22,9 km/h (4 Bft)
21.02.2016 00:27 6,7 C 5,7 C 85 % 1018,2 hPa 0,0 mm 16,7 km/h (3 Bft) W 270 0 min 4,4 C 35,2 km/h (5 Bft)
21.02.2016 00:28 6,7 C 5,7 C 85 % 1018,2 hPa 0,0 mm 16,7 km/h (3 Bft) W 270 0 min 4,4 C 35,2 km/h (5 Bft)
21.02.2016 00:29 6,8 C 6,0 C 84 % 1018,2 hPa 0,0 mm 17,0 km/h (3 Bft) W-SW 247 0 min 4,3 C 26,5 km/h (4 Bft)
21.02.2016 00:30 6,8 C 5,8 C 84 % 1018,2 hPa 0,0 mm 17,0 km/h (3 Bft) W-SW 247 0 min 4,3 C 26,5 km/h (4 Bft)
21.02.2016 00:31 6,8 C 5,8 C 84 % 1018,2 hPa 0,0 mm 17,0 km/h (3 Bft) W-SW 247 0 min 4,3 C 18,8 km/h (3 Bft)
21.02.2016 00:32 6,8 C 5,8 C 84 % 1018,2 hPa 0,0 mm 17,0 km/h (3 Bft) W-SW 247 0 min 4,3 C 18,8 km/h (3 Bft)
21.02.2016 00:33 6,8 C 6,0 C 85 % 1018,2 hPa 0,0 mm 18,5 km/h (3 Bft) NW 315 0 min 4,5 C 37,3 km/h (5 Bft)
21.02.2016 00:34 6,8 C 5,8 C 85 % 1018,2 hPa 0,0 mm 18,5 km/h (3 Bft) NW 315 0 min 4,5 C 37,3 km/h (5 Bft)
21.02.2016 00:35 6,8 C 6,0 C 85 % 1018,2 hPa 0,0 mm 18,5 km/h (3 Bft) SW 225 0 min 4,5 C 14,6 km/h (3 Bft)
21.02.2016 00:36 6,8 C 5,8 C 85 % 1018,2 hPa 0,0 mm 18,5 km/h (3 Bft) SW 225 0 min 4,5 C 14,6 km/h (3 Bft)
21.02.2016 00:37 6,7 C 5,7 C 85 % 1018,2 hPa 0,0 mm 18,8 km/h (3 Bft) SW 225 0 min 4,4 C 27,7 km/h (4 Bft)
21.02.2016 00:38 6,7 C 5,7 C 85 % 1018,2 hPa 0,0 mm 18,8 km/h (3 Bft) SW 225 0 min 4,4 C 27,7 km/h (4 Bft)
21.02.2016 00:39 6,8 C 6,1 C 85 % 1018,2 hPa 0,0 mm 17,3 km/h (3 Bft) W-SW 247 0 min 4,5 C 16,1 km/h (3 Bft)
21.02.2016 00:40 6,8 C 5,9 C 85 % 1018,2 hPa 0,0 mm 17,3 km/h (3 Bft) W-SW 247 0 min 4,5 C 16,1 km/h (3 Bft)
21.02.2016 00:41 6,8 C 6,1 C 85 % 1018,2 hPa 0,0 mm 16,7 km/h (3 Bft) W 270 0 min 4,5 C 14,0 km/h (3 Bft)
21.02.2016 00:42 6,8 C 5,9 C 85 % 1018,2 hPa 0,0 mm 16,7 km/h (3 Bft) W 270 0 min 4,5 C 14,0 km/h (3 Bft)
21.02.2016 00:43 6,8 C 6,1 C 85 % 1018,4 hPa 0,0 mm 17,0 km/h (3 Bft) W 270 0 min 4,5 C 19,4 km/h (3 Bft)
21.02.2016 00:44 6,8 C 5,9 C 85 % 1018,4 hPa 0,0 mm 17,0 km/h (3 Bft) W 270 0 min 4,5 C 19,4 km/h (3 Bft)
21.02.2016 00:45 6,8 C 6,1 C 85 % 1018,4 hPa 0,0 mm 16,1 km/h (3 Bft) W-SW 247 0 min 4,5 C 16,4 km/h (3 Bft)
21.02.2016 00:46 6,8 C 5,9 C 85 % 1018,4 hPa 0,0 mm 16,1 km/h (3 Bft) W-SW 247 0 min 4,5 C 16,4 km/h (3 Bft)
21.02.2016 00:47 6,8 C 6,2 C 85 % 1018,4 hPa 0,0 mm 16,1 km/h (3 Bft) W-SW 247 0 min 4,5 C 21,5 km/h (4 Bft)
21.02.2016 00:48 6,8 C 6,0 C 85 % 1018,4 hPa 0,0 mm 16,1 km/h (3 Bft) W-SW 247 0 min 4,5 C 21,5 km/h (4 Bft)
21.02.2016 00:49 6,9 C 6,2 C 85 % 1018,4 hPa 0,0 mm 16,7 km/h (3 Bft) W-SW 247 0 min 4,6 C 26,2 km/h (4 Bft)
21.02.2016 00:50 6,9 C 6,0 C 85 % 1018,4 hPa 0,0 mm 16,7 km/h (3 Bft) W-SW 247 0 min 4,6 C 26,2 km/h (4 Bft)
21.02.2016 00:51 6,9 C 6,0 C 85 % 1018,4 hPa 0,0 mm 17,0 km/h (3 Bft) W-SW 247 0 min 4,6 C 20,9 km/h (4 Bft)
21.02.2016 00:52 6,9 C 6,0 C 85 % 1018,4 hPa 0,0 mm 17,0 km/h (3 Bft) W-SW 247 0 min 4,6 C 20,9 km/h (4 Bft)
21.02.2016 00:53 6,9 C 6,0 C 85 % 1018,4 hPa 0,0 mm 17,9 km/h (3 Bft) W-SW 247 0 min 4,6 C 23,2 km/h (4 Bft)
21.02.2016 00:54 6,9 C 6,0 C 85 % 1018,4 hPa 0,0 mm 17,9 km/h (3 Bft) W-SW 247 0 min 4,6 C 23,2 km/h (4 Bft)
21.02.2016 00:55 6,9 C 6,0 C 85 % 1018,4 hPa 0,0 mm 17,6 km/h (3 Bft) W-NW 292 0 min 4,6 C 28,3 km/h (4 Bft)
21.02.2016 00:56 6,9 C 6,0 C 85 % 1018,4 hPa 0,0 mm 17,6 km/h (3 Bft) W-NW 292 0 min 4,6 C 28,3 km/h (4 Bft)
21.02.2016 00:57 6,9 C 6,0 C 85 % 1018,4 hPa 0,0 mm 17,6 km/h (3 Bft) W-NW 292 0 min 4,6 C 29,8 km/h (5 Bft)
21.02.2016 00:58 6,9 C 6,0 C 85 % 1018,4 hPa 0,0 mm 17,6 km/h (3 Bft) W-NW 292 0 min 4,6 C 29,8 km/h (5 Bft)
21.02.2016 00:59 6,9 C 6,2 C 86 % 1018,4 hPa 0,0 mm 17,0 km/h (3 Bft) NW 315 0 min 4,7 C 12,8 km/h (3 Bft)
21.02.2016 01:00 6,9 C 6,0 C 86 % 1018,4 hPa 0,0 mm 17,0 km/h (3 Bft) NW 315 0 min 4,7 C 12,8 km/h (3 Bft)
21.02.2016 01:01 6,9 C 6,3 C 86 % 1018,4 hPa 0,0 mm 15,5 km/h (3 Bft) W-NW 292 0 min 4,7 C 16,7 km/h (3 Bft)
21.02.2016 01:02 6,9 C 6,1 C 86 % 1018,4 hPa 0,0 mm 15,5 km/h (3 Bft) W-NW 292 0 min 4,7 C 16,7 km/h (3 Bft)
21.02.2016 01:03 6,9 C 6,3 C 86 % 1018,6 hPa 0,0 mm 15,8 km/h (3 Bft) SW 225 0 min 4,7 C 13,7 km/h (3 Bft)
21.02.2016 01:04 6,9 C 6,1 C 86 % 1018,6 hPa 0,0 mm 15,8 km/h (3 Bft) SW 225 0 min 4,7 C 13,7 km/h (3 Bft)
21.02.2016 01:05 6,9 C 6,3 C 86 % 1018,6 hPa 0,7 mm 14,9 km/h (3 Bft) W 270 0 min 4,7 C 14,3 km/h (3 Bft)
21.02.2016 01:06 6,9 C 6,1 C 86 % 1018,6 hPa 0,0 mm 14,9 km/h (3 Bft) W 270 0 min 4,7 C 14,3 km/h (3 Bft)
21.02.2016 01:07 6,9 C 6,3 C 86 % 1018,6 hPa 0,0 mm 14,3 km/h (3 Bft) W-NW 292 0 min 4,7 C 13,1 km/h (3 Bft)
21.02.2016 01:08 6,9 C 6,2 C 86 % 1018,6 hPa 0,0 mm 14,3 km/h (3 Bft) W-NW 292 0 min 4,7 C 13,1 km/h (3 Bft)
21.02.2016 01:09 6,9 C 6,2 C 86 % 1018,6 hPa 0,0 mm 13,7 km/h (3 Bft) W-SW 247 0 min 4,7 C 22,1 km/h (4 Bft)
21.02.2016 01:10 6,9 C 6,2 C 86 % 1018,6 hPa 0,0 mm 13,7 km/h (3 Bft) W-SW 247 0 min 4,7 C 22,1 km/h (4 Bft)
21.02.2016 01:11 6,9 C 6,2 C 86 % 1018,6 hPa 0,0 mm 13,4 km/h (3 Bft) SW 225 0 min 4,7 C 19,1 km/h (3 Bft)
21.02.2016 01:12 6,9 C 6,2 C 86 % 1018,6 hPa 0,0 mm 13,4 km/h (3 Bft) SW 225 0 min 4,7 C 19,1 km/h (3 Bft)
21.02.2016 01:13 6,9 C 6,2 C 86 % 1018,6 hPa 0,0 mm 13,4 km/h (3 Bft) W-SW 247 0 min 4,7 C 19,4 km/h (3 Bft)
21.02.2016 01:14 6,9 C 6,2 C 86 % 1018,6 hPa 0,0 mm 13,4 km/h (3 Bft) W-SW 247 0 min 4,7 C 19,4 km/h (3 Bft)
21.02.2016 01:15 6,9 C 6,3 C 86 % 1018,6 hPa 0,0 mm 15,5 km/h (3 Bft) W 270 0 min 4,7 C 29,2 km/h (5 Bft)
21.02.2016 01:16 6,9 C 6,1 C 86 % 1018,6 hPa 0,0 mm 15,5 km/h (3 Bft) W 270 0 min 4,7 C 29,2 km/h (5 Bft)
21.02.2016 01:17 6,9 C 6,1 C 87 % 1018,6 hPa 0,0 mm 16,4 km/h (3 Bft) W-SW 247 0 min 4,9 C 37,9 km/h (5 Bft)
21.02.2016 01:18 6,9 C 6,1 C 87 % 1018,6 hPa 0,0 mm 16,4 km/h (3 Bft) W-SW 247 0 min 4,9 C 37,9 km/h (5 Bft)
21.02.2016 01:19 6,9 C 6,1 C 87 % 1018,6 hPa 0,0 mm 16,7 km/h (3 Bft) W-SW 247 0 min 4,9 C 23,8 km/h (4 Bft)
21.02.2016 01:20 6,9 C 6,1 C 87 % 1018,6 hPa 0,0 mm 16,7 km/h (3 Bft) W-SW 247 0 min 4,9 C 23,8 km/h (4 Bft)
21.02.2016 01:21 6,9 C 6,3 C 87 % 1018,6 hPa 0,0 mm 17,3 km/h (3 Bft) W 270 0 min 4,9 C 25,0 km/h (4 Bft)
21.02.2016 01:22 6,9 C 6,1 C 87 % 1018,6 hPa 0,0 mm 17,3 km/h (3 Bft) W 270 0 min 4,9 C 25,0 km/h (4 Bft)
21.02.2016 01:23 6,9 C 6,3 C 87 % 1018,4 hPa 0,0 mm 16,7 km/h (3 Bft) W 270 0 min 4,9 C 12,2 km/h (2 Bft)
21.02.2016 01:24 6,9 C 6,1 C 87 % 1018,4 hPa 0,0 mm 16,7 km/h (3 Bft) W 270 0 min 4,9 C 12,2 km/h (2 Bft)
21.02.2016 01:25 6,9 C 6,3 C 87 % 1018,4 hPa 0,0 mm 15,5 km/h (3 Bft) W 270 0 min 4,9 C 11,6 km/h (2 Bft)
21.02.2016 01:26 6,9 C 6,2 C 87 % 1018,4 hPa 0,0 mm 15,5 km/h (3 Bft) W 270 0 min 4,9 C 11,6 km/h (2 Bft)
21.02.2016 01:27 7,0 C 6,2 C 87 % 1018,4 hPa 0,0 mm 14,9 km/h (3 Bft) W 270 0 min 5,0 C 25,0 km/h (4 Bft)
21.02.2016 01:28 7,0 C 6,2 C 87 % 1018,4 hPa 0,0 mm 14,9 km/h (3 Bft) W 270 0 min 5,0 C 25,0 km/h (4 Bft)
21.02.2016 01:29 7,1 C 6,3 C 87 % 1018,4 hPa 0,0 mm 15,2 km/h (3 Bft) SW 225 0 min 5,1 C 15,2 km/h (3 Bft)
21.02.2016 01:30 7,1 C 6,3 C 87 % 1018,4 hPa 0,0 mm 15,2 km/h (3 Bft) SW 225 0 min 5,1 C 15,2 km/h (3 Bft)
21.02.2016 01:31 7,0 C 6,2 C 87 % 1018,4 hPa 0,0 mm 15,2 km/h (3 Bft) W 270 0 min 5,0 C 23,5 km/h (4 Bft)
21.02.2016 01:32 7,0 C 6,2 C 87 % 1018,4 hPa 0,0 mm 15,2 km/h (3 Bft) W 270 0 min 5,0 C 23,5 km/h (4 Bft)
21.02.2016 01:33 7,0 C 6,2 C 87 % 1018,4 hPa 0,0 mm 15,5 km/h (3 Bft) NW 315 0 min 5,0 C 30,4 km/h (5 Bft)
21.02.2016 01:34 7,0 C 6,2 C 87 % 1018,4 hPa 0,0 mm 15,5 km/h (3 Bft) NW 315 0 min 5,0 C 39,9 km/h (6 Bft)
21.02.2016 01:35 7,1 C 6,5 C 87 % 1018,4 hPa 0,0 mm 15,8 km/h (3 Bft) W 270 0 min 5,1 C 20,6 km/h (4 Bft)
21.02.2016 01:36 7,1 C 6,3 C 87 % 1018,4 hPa 0,0 mm 15,8 km/h (3 Bft) W 270 0 min 5,1 C 20,6 km/h (4 Bft)
21.02.2016 01:37 7,1 C 6,5 C 87 % 1018,4 hPa 0,0 mm 16,7 km/h (3 Bft) W-SW 247 0 min 5,1 C 23,2 km/h (4 Bft)
21.02.2016 01:38 7,1 C 6,3 C 87 % 1018,4 hPa 0,0 mm 16,7 km/h (3 Bft) W-SW 247 0 min 5,1 C 23,2 km/h (4 Bft)
21.02.2016 01:39 7,1 C 6,5 C 87 % 1018,4 hPa 0,0 mm 14,6 km/h (3 Bft) W-NW 292 0 min 5,1 C 13,4 km/h (3 Bft)
21.02.2016 01:40 7,1 C 6,4 C 87 % 1018,4 hPa 0,0 mm 14,6 km/h (3 Bft) W-NW 292 0 min 5,1 C 13,4 km/h (3 Bft)
21.02.2016 01:41 7,1 C 6,6 C 87 % 1018,4 hPa 0,0 mm 14,6 km/h (3 Bft) W 270 0 min 5,1 C 13,7 km/h (3 Bft)
21.02.2016 01:42 7,1 C 6,4 C 87 % 1018,4 hPa 0,0 mm 14,6 km/h (3 Bft) W 270 0 min 5,1 C 13,7 km/h (3 Bft)
21.02.2016 01:43 7,1 C 6,4 C 87 % 1018,4 hPa 0,0 mm 14,0 km/h (3 Bft) N-NW 337 0 min 5,1 C 10,1 km/h (2 Bft)
21.02.2016 01:44 7,1 C 6,4 C 87 % 1018,4 hPa 0,0 mm 14,0 km/h (3 Bft) N-NW 337 0 min 5,1 C 10,1 km/h (2 Bft)
21.02.2016 01:45 7,1 C 6,5 C 87 % 1018,4 hPa 0,0 mm 12,5 km/h (3 Bft) W 270 0 min 5,1 C 14,0 km/h (3 Bft)
21.02.2016 01:46 7,1 C 6,5 C 87 % 1018,4 hPa 0,0 mm 12,5 km/h (3 Bft) W 270 0 min 5,1 C 14,0 km/h (3 Bft)
21.02.2016 01:47 7,1 C 6,5 C 87 % 1018,4 hPa 0,7 mm 12,8 km/h (3 Bft) W 270 0 min 5,1 C 19,4 km/h (3 Bft)
21.02.2016 01:48 7,1 C 6,5 C 87 % 1018,4 hPa 0,0 mm 12,8 km/h (3 Bft) W 270 0 min 5,1 C 19,4 km/h (3 Bft)
21.02.2016 01:49 7,1 C 6,5 C 87 % 1018,4 hPa 0,0 mm 11,9 km/h (2 Bft) W-SW 247 0 min 5,1 C 15,8 km/h (3 Bft)
21.02.2016 01:50 7,1 C 6,5 C 87 % 1018,4 hPa 0,0 mm 11,9 km/h (2 Bft) W-SW 247 0 min 5,1 C 15,8 km/h (3 Bft)
21.02.2016 01:51 7,1 C 6,6 C 87 % 1018,4 hPa 0,0 mm 12,2 km/h (2 Bft) W-SW 247 0 min 5,1 C 9,5 km/h (2 Bft)
21.02.2016 01:52 7,1 C 6,6 C 87 % 1018,4 hPa 0,0 mm 12,2 km/h (2 Bft) W-SW 247 0 min 5,1 C 9,5 km/h (2 Bft)
21.02.2016 01:53 7,2 C 6,6 C 88 % 1018,4 hPa 0,0 mm 12,5 km/h (3 Bft) W 270 0 min 5,3 C 22,1 km/h (4 Bft)
21.02.2016 01:54 7,2 C 6,6 C 88 % 1018,4 hPa 0,0 mm 12,5 km/h (3 Bft) W 270 0 min 5,3 C 22,1 km/h (4 Bft)
21.02.2016 01:55 7,3 C 6,6 C 88 % 1018,4 hPa 0,0 mm 13,4 km/h (3 Bft) W-SW 247 0 min 5,4 C 21,5 km/h (4 Bft)
21.02.2016 01:56 7,3 C 6,6 C 88 % 1018,4 hPa 0,0 mm 13,4 km/h (3 Bft) W-SW 247 0 min 5,4 C 21,5 km/h (4 Bft)
21.02.2016 01:57 7,4 C 6,7 C 88 % 1018,4 hPa 0,0 mm 14,0 km/h (3 Bft) W-SW 247 0 min 5,5 C 20,9 km/h (4 Bft)
21.02.2016 01:58 7,4 C 6,7 C 88 % 1018,4 hPa 0,0 mm 14,0 km/h (3 Bft) W-SW 247 0 min 5,5 C 20,9 km/h (4 Bft)
21.02.2016 01:59 7,4 C 6,7 C 88 % 1018,4 hPa 0,0 mm 14,0 km/h (3 Bft) W 270 0 min 5,5 C 34,3 km/h (5 Bft)
21.02.2016 02:00 7,4 C 6,7 C 88 % 1018,4 hPa 0,0 mm 14,0 km/h (3 Bft) W 270 0 min 5,5 C 34,3 km/h (5 Bft)
21.02.2016 02:01 7,4 C 6,7 C 88 % 1018,4 hPa 0,0 mm 15,2 km/h (3 Bft) W-SW 247 0 min 5,5 C 20,3 km/h (4 Bft)
21.02.2016 02:02 7,4 C 6,7 C 88 % 1018,4 hPa 0,0 mm 15,2 km/h (3 Bft) W-SW 247 0 min 5,5 C 20,3 km/h (4 Bft)
21.02.2016 02:03 7,5 C 6,9 C 88 % 1018,7 hPa 0,0 mm 15,8 km/h (3 Bft) N-NW 337 0 min 5,6 C 15,8 km/h (3 Bft)
21.02.2016 02:04 7,5 C 6,7 C 88 % 1018,7 hPa 0,0 mm 15,8 km/h (3 Bft) N-NW 337 0 min 5,6 C 15,8 km/h (3 Bft)
21.02.2016 02:05 7,6 C 6,8 C 87 % 1018,7 hPa 0,0 mm 16,7 km/h (3 Bft) W 270 0 min 5,6 C 30,1 km/h (5 Bft)
21.02.2016 02:06 7,6 C 6,8 C 87 % 1018,7 hPa 0,0 mm 16,7 km/h (3 Bft) W 270 0 min 5,6 C 30,1 km/h (5 Bft)
21.02.2016 02:07 7,7 C 7,0 C 87 % 1018,7 hPa 0,0 mm 18,2 km/h (3 Bft) W 270 0 min 5,7 C 33,1 km/h (5 Bft)
21.02.2016 02:08 7,7 C 6,8 C 87 % 1018,7 hPa 0,0 mm 18,2 km/h (3 Bft) W 270 0 min 5,7 C 33,1 km/h (5 Bft)
21.02.2016 02:09 7,8 C 7,1 C 87 % 1018,7 hPa 0,0 mm 18,5 km/h (3 Bft) W 270 0 min 5,8 C 30,7 km/h (5 Bft)
21.02.2016 02:10 7,8 C 6,9 C 87 % 1018,7 hPa 0,0 mm 18,5 km/h (3 Bft) W 270 0 min 5,8 C 30,7 km/h (5 Bft)
21.02.2016 02:11 7,8 C 7,1 C 87 % 1018,7 hPa 0,0 mm 19,1 km/h (3 Bft) W 270 0 min 5,8 C 26,2 km/h (4 Bft)
21.02.2016 02:12 7,8 C 6,9 C 87 % 1018,7 hPa 0,0 mm 19,1 km/h (3 Bft) W 270 0 min 5,8 C 26,2 km/h (4 Bft)
21.02.2016 02:13 7,8 C 7,1 C 86 % 1018,7 hPa 0,0 mm 18,5 km/h (3 Bft) W 270 0 min 5,6 C 22,1 km/h (4 Bft)
21.02.2016 02:14 7,8 C 6,9 C 86 % 1018,7 hPa 0,0 mm 18,5 km/h (3 Bft) W 270 0 min 5,6 C 48,6 km/h (6 Bft)
21.02.2016 02:15 7,8 C 7,2 C 86 % 1018,7 hPa 0,0 mm 17,6 km/h (3 Bft) W-NW 292 0 min 5,6 C 25,9 km/h (4 Bft)
21.02.2016 02:16 7,8 C 7,0 C 86 % 1018,7 hPa 0,0 mm 17,6 km/h (3 Bft) W-NW 292 0 min 5,6 C 25,9 km/h (4 Bft)
21.02.2016 02:17 7,9 C 7,0 C 86 % 1018,7 hPa 0,0 mm 17,9 km/h (3 Bft) NW 315 0 min 5,7 C 36,7 km/h (5 Bft)
21.02.2016 02:18 7,9 C 7,0 C 86 % 1018,7 hPa 0,0 mm 17,9 km/h (3 Bft) NW 315 0 min 5,7 C 36,7 km/h (5 Bft)
21.02.2016 02:19 8,0 C 7,3 C 86 % 1018,7 hPa 0,0 mm 17,9 km/h (3 Bft) NW 315 0 min 5,8 C 11,9 km/h (2 Bft)
21.02.2016 02:20 8,0 C 7,1 C 86 % 1018,7 hPa 0,0 mm 17,9 km/h (3 Bft) NW 315 0 min 5,8 C 11,9 km/h (2 Bft)
21.02.2016 02:21 7,9 C 7,3 C 86 % 1018,7 hPa 0,0 mm 18,2 km/h (3 Bft) W 270 0 min 5,7 C 21,5 km/h (4 Bft)
21.02.2016 02:22 7,9 C 7,0 C 86 % 1018,7 hPa 0,0 mm 18,2 km/h (3 Bft) W 270 0 min 5,7 C 21,5 km/h (4 Bft)
21.02.2016 02:23 8,1 C 7,4 C 85 % 1018,4 hPa 0,0 mm 19,4 km/h (3 Bft) W-SW 247 0 min 5,7 C 26,2 km/h (4 Bft)
21.02.2016 02:24 8,1 C 7,1 C 85 % 1018,4 hPa 0,0 mm 19,4 km/h (3 Bft) W-SW 247 0 min 5,7 C 26,2 km/h (4 Bft)
21.02.2016 02:25 8,0 C 7,1 C 85 % 1018,4 hPa 0,0 mm 19,4 km/h (3 Bft) W 270 0 min 5,6 C 26,2 km/h (4 Bft)
21.02.2016 02:26 8,0 C 7,1 C 85 % 1018,4 hPa 0,0 mm 19,4 km/h (3 Bft) W 270 0 min 5,6 C 26,2 km/h (4 Bft)
21.02.2016 02:27 8,0 C 7,3 C 85 % 1018,4 hPa 0,0 mm 20,3 km/h (4 Bft) W 270 0 min 5,6 C 32,8 km/h (5 Bft)
21.02.2016 02:29 8,1 C 7,3 C 85 % 1018,4 hPa 0,0 mm 20,6 km/h (4 Bft) SO 135 0 min 5,7 C 28,6 km/h (4 Bft)
21.02.2016 02:30 8,1 C 7,1 C 85 % 1018,4 hPa 0,0 mm 20,6 km/h (4 Bft) SO 135 0 min 5,7 C 28,6 km/h (4 Bft)
21.02.2016 02:31 8,1 C 7,1 C 85 % 1018,4 hPa 0,0 mm 20,9 km/h (4 Bft) W 270 0 min 5,7 C 21,5 km/h (4 Bft)
21.02.2016 02:32 8,1 C 7,1 C 85 % 1018,4 hPa 0,0 mm 20,9 km/h (4 Bft) W 270 0 min 5,7 C 21,5 km/h (4 Bft)
21.02.2016 02:33 8,1 C 7,3 C 85 % 1018,4 hPa 0,0 mm 21,5 km/h (4 Bft) W-SW 247 0 min 5,7 C 28,3 km/h (4 Bft)
21.02.2016 02:34 8,1 C 7,1 C 85 % 1018,4 hPa 0,0 mm 21,5 km/h (4 Bft) W-SW 247 0 min 5,7 C 49,2 km/h (6 Bft)
21.02.2016 02:35 8,2 C 7,1 C 84 % 1018,4 hPa 0,0 mm 21,5 km/h (4 Bft) NW 315 0 min 5,7 C 15,5 km/h (3 Bft)
21.02.2016 02:36 8,2 C 7,1 C 84 % 1018,4 hPa 0,0 mm 21,5 km/h (4 Bft) NW 315 0 min 5,7 C 15,5 km/h (3 Bft)
21.02.2016 02:37 8,2 C 7,4 C 84 % 1018,4 hPa 0,0 mm 20,0 km/h (4 Bft) S-SW 202 0 min 5,7 C 16,7 km/h (3 Bft)
21.02.2016 02:38 8,2 C 7,2 C 84 % 1018,4 hPa 0,0 mm 20,0 km/h (4 Bft) S-SW 202 0 min 5,7 C 16,7 km/h (3 Bft)
21.02.2016 02:39 8,2 C 7,2 C 84 % 1018,4 hPa 0,0 mm 20,0 km/h (4 Bft) W-NW 292 0 min 5,7 C 17,0 km/h (3 Bft)
21.02.2016 02:40 8,2 C 7,2 C 84 % 1018,4 hPa 0,0 mm 20,0 km/h (4 Bft) W-NW 292 0 min 5,7 C 17,0 km/h (3 Bft)
21.02.2016 02:41 8,2 C 7,2 C 84 % 1018,4 hPa 0,0 mm 20,0 km/h (4 Bft) W-SW 247 0 min 5,7 C 14,3 km/h (3 Bft)
21.02.2016 02:42 8,2 C 7,2 C 84 % 1018,4 hPa 0,0 mm 20,0 km/h (4 Bft) W-SW 247 0 min 5,7 C 14,3 km/h (3 Bft)
21.02.2016 02:43 8,2 C 7,2 C 84 % 1018,1 hPa 0,0 mm 20,6 km/h (4 Bft) W-SW 247 0 min 5,7 C 28,6 km/h (4 Bft)
21.02.2016 02:44 8,2 C 7,2 C 84 % 1018,1 hPa 0,0 mm 20,6 km/h (4 Bft) W-SW 247 0 min 5,7 C 51,9 km/h (7 Bft)
21.02.2016 02:45 8,4 C 7,6 C 84 % 1018,1 hPa 0,0 mm 19,7 km/h (3 Bft) NW 315 0 min 5,9 C 16,7 km/h (3 Bft)
21.02.2016 02:46 8,4 C 7,4 C 84 % 1018,1 hPa 0,0 mm 19,7 km/h (3 Bft) NW 315 0 min 5,9 C 16,7 km/h (3 Bft)
21.02.2016 02:47 8,3 C 7,3 C 84 % 1018,1 hPa 0,0 mm 19,7 km/h (3 Bft) SW 225 0 min 5,8 C 33,7 km/h (5 Bft)
21.02.2016 02:48 8,3 C 7,3 C 84 % 1018,1 hPa 0,0 mm 19,7 km/h (3 Bft) SW 225 0 min 5,8 C 33,7 km/h (5 Bft)
21.02.2016 02:49 8,3 C 7,5 C 84 % 1018,1 hPa 0,0 mm 20,3 km/h (4 Bft) W 270 0 min 5,8 C 46,2 km/h (6 Bft)
21.02.2016 02:50 8,3 C 7,3 C 84 % 1018,1 hPa 0,0 mm 20,3 km/h (4 Bft) W 270 0 min 5,8 C 46,2 km/h (6 Bft)
21.02.2016 02:51 8,5 C 7,4 C 84 % 1018,1 hPa 0,0 mm 20,6 km/h (4 Bft) SW 225 0 min 6,0 C 34,0 km/h (5 Bft)
21.02.2016 02:52 8,5 C 7,4 C 84 % 1018,1 hPa 0,0 mm 20,6 km/h (4 Bft) SW 225 0 min 6,0 C 34,0 km/h (5 Bft)
21.02.2016 02:53 8,5 C 7,7 C 83 % 1018,1 hPa 0,0 mm 21,2 km/h (4 Bft) W 270 0 min 5,8 C 33,4 km/h (5 Bft)
21.02.2016 02:54 8,5 C 7,5 C 83 % 1018,1 hPa 0,0 mm 21,2 km/h (4 Bft) W 270 0 min 5,8 C 55,4 km/h (7 Bft)
21.02.2016 02:55 8,6 C 7,8 C 83 % 1018,1 hPa 0,0 mm 21,8 km/h (4 Bft) NW 315 0 min 5,9 C 14,0 km/h (3 Bft)
21.02.2016 02:56 8,6 C 7,5 C 83 % 1018,1 hPa 0,0 mm 21,8 km/h (4 Bft) NW 315 0 min 5,9 C 14,0 km/h (3 Bft)
21.02.2016 02:57 8,6 C 7,8 C 83 % 1018,1 hPa 0,0 mm 22,7 km/h (4 Bft) W-SW 247 0 min 5,9 C 21,5 km/h (4 Bft)
21.02.2016 02:58 8,6 C 7,5 C 83 % 1018,1 hPa 0,0 mm 22,7 km/h (4 Bft) W-SW 247 0 min 5,9 C 21,5 km/h (4 Bft)
21.02.2016 02:59 8,6 C 7,8 C 83 % 1018,1 hPa 0,0 mm 22,4 km/h (4 Bft) SW 225 0 min 5,9 C 15,2 km/h (3 Bft)
21.02.2016 03:00 8,6 C 7,6 C 83 % 1018,1 hPa 0,0 mm 22,4 km/h (4 Bft) SW 225 0 min 5,9 C 15,2 km/h (3 Bft)
21.02.2016 03:01 8,5 C 7,8 C 83 % 1018,1 hPa 0,0 mm 20,0 km/h (4 Bft) SW 225 0 min 5,8 C 35,5 km/h (5 Bft)
21.02.2016 03:02 8,5 C 7,6 C 83 % 1018,1 hPa 0,0 mm 20,0 km/h (4 Bft) SW 225 0 min 5,8 C 35,5 km/h (5 Bft)
21.02.2016 03:03 8,5 C 7,6 C 83 % 1018,2 hPa 0,0 mm 20,0 km/h (4 Bft) SW 225 0 min 5,8 C 35,5 km/h (5 Bft)
21.02.2016 03:04 8,5 C 7,6 C 83 % 1018,2 hPa 0,0 mm 20,0 km/h (4 Bft) SW 225 0 min 5,8 C 35,5 km/h (5 Bft)
21.02.2016 03:05 8,5 C 8,0 C 83 % 1018,2 hPa 0,0 mm 17,6 km/h (3 Bft) W-SW 247 0 min 5,8 C 30,7 km/h (5 Bft)
21.02.2016 03:06 8,5 C 7,9 C 83 % 1018,2 hPa 0,0 mm 17,6 km/h (3 Bft) W-SW 247 0 min 5,8 C 30,7 km/h (5 Bft)
21.02.2016 03:07 8,5 C 8,1 C 83 % 1018,2 hPa 0,0 mm 17,3 km/h (3 Bft) W 270 0 min 5,8 C 23,5 km/h (4 Bft)
21.02.2016 03:08 8,5 C 7,9 C 83 % 1018,2 hPa 0,0 mm 17,3 km/h (3 Bft) W 270 0 min 5,8 C 23,5 km/h (4 Bft)
21.02.2016 03:09 8,5 C 8,1 C 83 % 1018,2 hPa 0,0 mm 18,2 km/h (3 Bft) W 270 0 min 5,8 C 22,7 km/h (4 Bft)
21.02.2016 03:10 8,5 C 8,0 C 83 % 1018,2 hPa 0,0 mm 18,2 km/h (3 Bft) W 270 0 min 5,8 C 22,7 km/h (4 Bft)
21.02.2016 03:11 8,5 C 8,1 C 83 % 1018,2 hPa 0,0 mm 21,2 km/h (4 Bft) W 270 0 min 5,8 C 58,1 km/h (7 Bft)
21.02.2016 03:12 8,5 C 7,9 C 83 % 1018,2 hPa 0,0 mm 21,2 km/h (4 Bft) W 270 0 min 5,8 C 58,1 km/h (7 Bft)
21.02.2016 03:13 8,9 C 8,4 C 81 % 1018,2 hPa 0,0 mm 21,8 km/h (4 Bft) W 270 0 min 5,8 C 26,2 km/h (4 Bft)
21.02.2016 03:14 8,9 C 8,2 C 81 % 1018,2 hPa 0,0 mm 21,8 km/h (4 Bft) W 270 0 min 5,8 C 58,1 km/h (7 Bft)
21.02.2016 03:15 8,9 C 8,2 C 81 % 1018,2 hPa 0,0 mm 21,2 km/h (4 Bft) W-SW 247 0 min 5,8 C 17,0 km/h (3 Bft)
21.02.2016 03:16 8,9 C 8,2 C 81 % 1018,2 hPa 0,0 mm 21,2 km/h (4 Bft) W-SW 247 0 min 5,8 C 17,0 km/h (3 Bft)
21.02.2016 03:17 8,9 C 8,4 C 81 % 1018,2 hPa 0,0 mm 21,2 km/h (4 Bft) W-SW 247 0 min 5,8 C 10,7 km/h (2 Bft)
21.02.2016 03:18 8,9 C 8,2 C 81 % 1018,2 hPa 0,0 mm 21,2 km/h (4 Bft) W-SW 247 0 min 5,8 C 10,7 km/h (2 Bft)
21.02.2016 03:19 8,8 C 8,4 C 81 % 1018,2 hPa 0,0 mm 19,7 km/h (3 Bft) S 180 0 min 5,7 C 32,2 km/h (5 Bft)
21.02.2016 03:20 8,8 C 8,3 C 81 % 1018,2 hPa 0,0 mm 19,7 km/h (3 Bft) S 180 0 min 5,7 C 32,2 km/h (5 Bft)
21.02.2016 03:21 8,9 C 8,5 C 81 % 1018,2 hPa 0,0 mm 20,3 km/h (4 Bft) SW 225 0 min 5,8 C 23,8 km/h (4 Bft)
21.02.2016 03:22 8,9 C 8,3 C 81 % 1018,2 hPa 0,0 mm 20,3 km/h (4 Bft) SW 225 0 min 5,8 C 23,8 km/h (4 Bft)
21.02.2016 03:23 8,9 C 8,6 C 81 % 1017,9 hPa 0,0 mm 17,6 km/h (3 Bft) W-SW 247 0 min 5,8 C 19,4 km/h (3 Bft)
21.02.2016 03:24 8,9 C 8,5 C 81 % 1017,9 hPa 0,0 mm 17,6 km/h (3 Bft) W-SW 247 0 min 5,8 C 19,4 km/h (3 Bft)
21.02.2016 03:25 8,9 C 8,5 C 81 % 1017,9 hPa 0,0 mm 17,6 km/h (3 Bft) W-NW 292 0 min 5,8 C 24,7 km/h (4 Bft)
21.02.2016 03:26 8,9 C 8,5 C 81 % 1017,9 hPa 0,0 mm 17,6 km/h (3 Bft) W-NW 292 0 min 5,8 C 24,7 km/h (4 Bft)
21.02.2016 03:27 9,0 C 8,7 C 81 % 1017,9 hPa 0,0 mm 19,7 km/h (3 Bft) W 270 0 min 5,9 C 34,6 km/h (5 Bft)
21.02.2016 03:28 9,0 C 8,4 C 81 % 1017,9 hPa 0,0 mm 19,7 km/h (3 Bft) W 270 0 min 5,9 C 34,6 km/h (5 Bft)
21.02.2016 03:29 9,1 C 8,7 C 80 % 1017,9 hPa 0,0 mm 21,2 km/h (4 Bft) W-SW 247 0 min 5,8 C 14,9 km/h (3 Bft)
21.02.2016 03:30 9,1 C 8,5 C 80 % 1017,9 hPa 0,0 mm 21,2 km/h (4 Bft) W-SW 247 0 min 5,8 C 14,9 km/h (3 Bft)
21.02.2016 03:31 9,0 C 8,6 C 80 % 1017,9 hPa 0,0 mm 21,8 km/h (4 Bft) W 270 0 min 5,7 C 52,8 km/h (7 Bft)
21.02.2016 03:32 9,0 C 8,4 C 80 % 1017,9 hPa 0,0 mm 21,8 km/h (4 Bft) W 270 0 min 5,7 C 52,8 km/h (7 Bft)
21.02.2016 03:33 9,1 C 8,4 C 80 % 1017,9 hPa 0,0 mm 22,4 km/h (4 Bft) W 270 0 min 5,8 C 18,2 km/h (3 Bft)
21.02.2016 03:34 9,1 C 8,4 C 80 % 1017,9 hPa 0,0 mm 22,4 km/h (4 Bft) W 270 0 min 5,8 C 18,2 km/h (3 Bft)
21.02.2016 03:35 9,1 C 8,7 C 80 % 1017,9 hPa 0,0 mm 22,1 km/h (4 Bft) W-SW 247 0 min 5,8 C 20,0 km/h (4 Bft)
21.02.2016 03:36 9,1 C 8,5 C 80 % 1017,9 hPa 0,0 mm 22,1 km/h (4 Bft) W-SW 247 0 min 5,8 C 20,0 km/h (4 Bft)
21.02.2016 03:37 9,0 C 8,6 C 80 % 1017,9 hPa 0,0 mm 21,5 km/h (4 Bft) W-SW 247 0 min 5,7 C 18,8 km/h (3 Bft)
21.02.2016 03:38 9,0 C 8,4 C 80 % 1017,9 hPa 0,0 mm 21,5 km/h (4 Bft) W-SW 247 0 min 5,7 C 18,8 km/h (3 Bft)
21.02.2016 03:39 9,0 C 8,6 C 80 % 1017,9 hPa 0,0 mm 19,7 km/h (3 Bft) W 270 0 min 5,7 C 28,0 km/h (4 Bft)
21.02.2016 03:40 9,0 C 8,5 C 80 % 1017,9 hPa 0,0 mm 19,7 km/h (3 Bft) W 270 0 min 5,7 C 28,0 km/h (4 Bft)
21.02.2016 03:41 9,1 C 8,5 C 80 % 1017,9 hPa 0,0 mm 20,3 km/h (4 Bft) W-NW 292 0 min 5,8 C 20,0 km/h (4 Bft)
21.02.2016 03:42 9,1 C 8,5 C 80 % 1017,9 hPa 0,0 mm 20,3 km/h (4 Bft) W-NW 292 0 min 5,8 C 20,0 km/h (4 Bft)
21.02.2016 03:43 9,0 C 8,7 C 80 % 1018,1 hPa 0,0 mm 17,9 km/h (3 Bft) W 270 0 min 5,7 C 18,2 km/h (3 Bft)
21.02.2016 03:44 9,0 C 8,5 C 80 % 1018,1 hPa 0,0 mm 17,9 km/h (3 Bft) W 270 0 min 5,7 C 18,2 km/h (3 Bft)
21.02.2016 03:45 9,0 C 8,7 C 80 % 1018,1 hPa 0,0 mm 17,3 km/h (3 Bft) NW 315 0 min 5,7 C 33,7 km/h (5 Bft)
21.02.2016 03:46 9,0 C 8,6 C 80 % 1018,1 hPa 0,0 mm 17,3 km/h (3 Bft) NW 315 0 min 5,7 C 33,7 km/h (5 Bft)
21.02.2016 03:47 9,1 C 8,8 C 80 % 1018,1 hPa 0,0 mm 18,2 km/h (3 Bft) S-SW 202 0 min 5,8 C 16,4 km/h (3 Bft)
21.02.2016 03:48 9,1 C 8,6 C 80 % 1018,1 hPa 0,0 mm 18,2 km/h (3 Bft) S-SW 202 0 min 5,8 C 16,4 km/h (3 Bft)
21.02.2016 03:49 9,1 C 8,8 C 80 % 1018,1 hPa 0,0 mm 17,6 km/h (3 Bft) W-NW 292 0 min 5,8 C 16,7 km/h (3 Bft)
21.02.2016 03:50 9,1 C 8,7 C 80 % 1018,1 hPa 0,0 mm 17,6 km/h (3 Bft) W-NW 292 0 min 5,8 C 16,7 km/h (3 Bft)
21.02.2016 03:51 9,1 C 8,8 C 80 % 1018,1 hPa 0,0 mm 17,9 km/h (3 Bft) W-SW 247 0 min 5,8 C 20,9 km/h (4 Bft)
21.02.2016 03:52 9,1 C 8,7 C 80 % 1018,1 hPa 0,0 mm 17,9 km/h (3 Bft) W-SW 247 0 min 5,8 C 20,9 km/h (4 Bft)
21.02.2016 03:53 9,4 C 9,0 C 80 % 1018,1 hPa 0,0 mm 20,6 km/h (4 Bft) W-NW 292 0 min 6,1 C 34,6 km/h (5 Bft)
21.02.2016 03:54 9,4 C 8,8 C 80 % 1018,1 hPa 0,0 mm 20,6 km/h (4 Bft) W-NW 292 0 min 6,1 C 34,6 km/h (5 Bft)
21.02.2016 03:55 9,5 C 9,1 C 79 % 1018,1 hPa 0,0 mm 20,9 km/h (4 Bft) W-SW 247 0 min 6,0 C 15,2 km/h (3 Bft)
21.02.2016 03:56 9,5 C 8,9 C 79 % 1018,1 hPa 0,0 mm 20,9 km/h (4 Bft) W-SW 247 0 min 6,0 C 15,2 km/h (3 Bft)
21.02.2016 03:57 9,4 C 9,1 C 79 % 1018,1 hPa 0,0 mm 20,0 km/h (4 Bft) SW 225 0 min 5,9 C 18,8 km/h (3 Bft)
21.02.2016 03:58 9,4 C 8,9 C 79 % 1018,1 hPa 0,0 mm 20,0 km/h (4 Bft) SW 225 0 min 5,9 C 18,8 km/h (3 Bft)
21.02.2016 03:59 9,3 C 9,1 C 79 % 1018,1 hPa 0,0 mm 19,7 km/h (3 Bft) W 270 0 min 5,8 C 15,8 km/h (3 Bft)
21.02.2016 04:00 9,3 C 8,9 C 79 % 1018,1 hPa 0,0 mm 19,7 km/h (3 Bft) W 270 0 min 5,8 C 15,8 km/h (3 Bft)
21.02.2016 04:01 9,4 C 9,0 C 79 % 1018,1 hPa 0,0 mm 19,7 km/h (3 Bft) W 270 0 min 5,9 C 23,5 km/h (4 Bft)
21.02.2016 04:02 9,4 C 9,0 C 79 % 1018,1 hPa 0,0 mm 19,7 km/h (3 Bft) W 270 0 min 5,9 C 23,5 km/h (4 Bft)
21.02.2016 04:03 9,4 C 9,2 C 79 % 1017,7 hPa 0,0 mm 18,8 km/h (3 Bft) S 180 0 min 5,9 C 42,6 km/h (6 Bft)
21.02.2016 04:04 9,4 C 9,0 C 79 % 1017,7 hPa 0,0 mm 18,8 km/h (3 Bft) S 180 0 min 5,9 C 42,6 km/h (6 Bft)
21.02.2016 04:05 9,5 C 9,2 C 79 % 1017,7 hPa 0,0 mm 17,3 km/h (3 Bft) W-SW 247 0 min 6,0 C 17,0 km/h (3 Bft)
21.02.2016 04:06 9,5 C 9,1 C 79 % 1017,7 hPa 0,0 mm 17,3 km/h (3 Bft) W-SW 247 0 min 6,0 C 17,0 km/h (3 Bft)
21.02.2016 04:07 9,6 C 9,3 C 79 % 1017,7 hPa 0,0 mm 18,8 km/h (3 Bft) SW 225 0 min 6,1 C 22,1 km/h (4 Bft)
21.02.2016 04:08 9,6 C 9,1 C 79 % 1017,7 hPa 0,0 mm 18,8 km/h (3 Bft) SW 225 0 min 6,1 C 22,1 km/h (4 Bft)
21.02.2016 04:09 9,6 C 9,1 C 79 % 1017,7 hPa 0,0 mm 19,4 km/h (3 Bft) W 270 0 min 6,1 C 16,7 km/h (3 Bft)
21.02.2016 04:10 9,6 C 9,1 C 79 % 1017,7 hPa 0,0 mm 19,4 km/h (3 Bft) W 270 0 min 6,1 C 16,7 km/h (3 Bft)
21.02.2016 04:11 9,5 C 9,3 C 79 % 1017,7 hPa 0,0 mm 19,1 km/h (3 Bft) W-SW 247 0 min 6,0 C 21,5 km/h (4 Bft)
21.02.2016 04:12 9,5 C 9,1 C 79 % 1017,7 hPa 0,0 mm 19,1 km/h (3 Bft) W-SW 247 0 min 6,0 C 21,5 km/h (4 Bft)
21.02.2016 04:13 9,6 C 9,3 C 79 % 1017,7 hPa 0,0 mm 19,7 km/h (3 Bft) W-SW 247 0 min 6,1 C 36,1 km/h (5 Bft)
21.02.2016 04:14 9,6 C 9,1 C 79 % 1017,7 hPa 0,0 mm 19,7 km/h (3 Bft) W-SW 247 0 min 6,1 C 36,1 km/h (5 Bft)
21.02.2016 04:15 9,6 C 9,3 C 79 % 1017,7 hPa 0,0 mm 17,9 km/h (3 Bft) W-SW 247 0 min 6,1 C 17,6 km/h (3 Bft)
21.02.2016 04:16 9,6 C 9,2 C 79 % 1017,7 hPa 0,0 mm 17,9 km/h (3 Bft) W-SW 247 0 min 6,1 C 17,6 km/h (3 Bft)
21.02.2016 04:17 9,7 C 9,3 C 79 % 1017,7 hPa 0,0 mm 18,5 km/h (3 Bft) NW 315 0 min 6,2 C 16,4 km/h (3 Bft)
21.02.2016 04:18 9,7 C 9,3 C 79 % 1017,7 hPa 0,0 mm 18,5 km/h (3 Bft) NW 315 0 min 6,2 C 16,4 km/h (3 Bft)
21.02.2016 04:19 9,7 C 9,5 C 79 % 1017,7 hPa 0,0 mm 16,1 km/h (3 Bft) O-SO 112 0 min 6,2 C 16,7 km/h (3 Bft)
21.02.2016 04:20 9,7 C 9,4 C 79 % 1017,7 hPa 0,0 mm 16,1 km/h (3 Bft) O-SO 112 0 min 6,2 C 16,7 km/h (3 Bft)
21.02.2016 04:21 9,7 C 9,4 C 79 % 1017,7 hPa 0,0 mm 16,1 km/h (3 Bft) W-SW 247 0 min 6,2 C 18,5 km/h (3 Bft)
21.02.2016 04:22 9,7 C 9,4 C 79 % 1017,7 hPa 0,0 mm 16,1 km/h (3 Bft) W-SW 247 0 min 6,2 C 18,5 km/h (3 Bft)
21.02.2016 04:23 9,6 C 9,4 C 79 % 1018,0 hPa 0,0 mm 15,5 km/h (3 Bft) W-NW 292 0 min 6,1 C 41,7 km/h (6 Bft)
21.02.2016 04:24 9,6 C 9,3 C 79 % 1018,0 hPa 0,0 mm 15,5 km/h (3 Bft) W-NW 292 0 min 6,1 C 41,7 km/h (6 Bft)
21.02.2016 04:25 10,0 C 9,6 C 78 % 1018,0 hPa 0,0 mm 16,7 km/h (3 Bft) W 270 0 min 6,3 C 14,6 km/h (3 Bft)
21.02.2016 04:26 10,0 C 9,6 C 78 % 1018,0 hPa 0,0 mm 16,7 km/h (3 Bft) W 270 0 min 6,3 C 14,6 km/h (3 Bft)
21.02.2016 04:27 10,1 C 9,7 C 77 % 1018,0 hPa 0,0 mm 17,3 km/h (3 Bft) W-SW 247 0 min 6,3 C 31,9 km/h (5 Bft)
21.02.2016 04:28 10,1 C 9,7 C 77 % 1018,0 hPa 0,0 mm 17,3 km/h (3 Bft) W-SW 247 0 min 6,3 C 31,9 km/h (5 Bft)
21.02.2016 04:29 10,1 C 9,7 C 77 % 1018,0 hPa 0,0 mm 18,2 km/h (3 Bft) W-NW 292 0 min 6,3 C 28,9 km/h (5 Bft)
21.02.2016 04:30 10,1 C 9,7 C 77 % 1018,0 hPa 0,0 mm 18,2 km/h (3 Bft) W-NW 292 0 min 6,3 C 28,9 km/h (5 Bft)
21.02.2016 04:31 10,0 C 9,8 C 77 % 1018,0 hPa 0,0 mm 17,9 km/h (3 Bft) W-SW 247 0 min 6,2 C 12,5 km/h (3 Bft)
21.02.2016 04:32 10,0 C 9,6 C 77 % 1018,0 hPa 0,0 mm 17,9 km/h (3 Bft) W-SW 247 0 min 6,2 C 12,5 km/h (3 Bft)
21.02.2016 04:33 10,0 C 9,8 C 77 % 1018,0 hPa 0,0 mm 19,1 km/h (3 Bft) W-SW 247 0 min 6,2 C 12,5 km/h (3 Bft)
21.02.2016 04:34 10,0 C 9,6 C 77 % 1018,0 hPa 0,0 mm 19,1 km/h (3 Bft) W-SW 247 0 min 6,2 C 12,5 km/h (3 Bft)
21.02.2016 04:35 10,0 C 9,8 C 77 % 1018,0 hPa 0,0 mm 17,6 km/h (3 Bft) W-SW 247 0 min 6,2 C 22,1 km/h (4 Bft)
21.02.2016 04:36 10,0 C 9,7 C 77 % 1018,0 hPa 0,0 mm 17,6 km/h (3 Bft) W-SW 247 0 min 6,2 C 22,1 km/h (4 Bft)
21.02.2016 04:37 10,0 C 9,8 C 77 % 1018,0 hPa 0,0 mm 17,3 km/h (3 Bft) W 270 0 min 6,2 C 15,2 km/h (3 Bft)
21.02.2016 04:38 10,0 C 9,7 C 77 % 1018,0 hPa 0,0 mm 17,3 km/h (3 Bft) W 270 0 min 6,2 C 15,2 km/h (3 Bft)
21.02.2016 04:39 10,0 C 9,9 C 77 % 1018,0 hPa 0,0 mm 15,2 km/h (3 Bft) NW 315 0 min 6,2 C 22,7 km/h (4 Bft)
21.02.2016 04:40 10,0 C 9,8 C 77 % 1018,0 hPa 0,0 mm 15,2 km/h (3 Bft) NW 315 0 min 6,2 C 22,7 km/h (4 Bft)
21.02.2016 04:41 10,0 C 9,8 C 77 % 1018,0 hPa 0,0 mm 15,2 km/h (3 Bft) NW 315 0 min 6,2 C 18,8 km/h (3 Bft)
21.02.2016 04:42 10,0 C 9,8 C 77 % 1018,0 hPa 0,0 mm 15,2 km/h (3 Bft) NW 315 0 min 6,2 C 18,8 km/h (3 Bft)
21.02.2016 04:43 10,0 C 9,8 C 77 % 1018,1 hPa 0,0 mm 14,0 km/h (3 Bft) W 270 0 min 6,2 C 8,9 km/h (2 Bft)
21.02.2016 04:44 10,0 C 9,8 C 77 % 1018,1 hPa 0,0 mm 14,0 km/h (3 Bft) W 270 0 min 6,2 C 8,9 km/h (2 Bft)
21.02.2016 04:45 10,0 C 9,8 C 77 % 1018,1 hPa 0,0 mm 14,3 km/h (3 Bft) W-NW 292 0 min 6,2 C 22,7 km/h (4 Bft)
21.02.2016 04:46 10,0 C 9,8 C 77 % 1018,1 hPa 0,0 mm 14,3 km/h (3 Bft) W-NW 292 0 min 6,2 C 22,7 km/h (4 Bft)
21.02.2016 04:47 10,1 C 9,9 C 77 % 1018,1 hPa 0,0 mm 13,7 km/h (3 Bft) W 270 0 min 6,3 C 15,8 km/h (3 Bft)
21.02.2016 04:48 10,1 C 9,9 C 77 % 1018,1 hPa 0,0 mm 13,7 km/h (3 Bft) W 270 0 min 6,3 C 15,8 km/h (3 Bft)
21.02.2016 04:49 10,1 C 9,9 C 77 % 1018,1 hPa 0,0 mm 14,0 km/h (3 Bft) W-SW 247 0 min 6,3 C 21,2 km/h (4 Bft)
21.02.2016 04:50 10,1 C 9,9 C 77 % 1018,1 hPa 0,0 mm 14,0 km/h (3 Bft) W-SW 247 0 min 6,3 C 21,2 km/h (4 Bft)
21.02.2016 04:51 10,2 C 9,9 C 76 % 1018,1 hPa 0,0 mm 14,0 km/h (3 Bft) SW 225 0 min 6,2 C 22,9 km/h (4 Bft)
21.02.2016 04:52 10,2 C 9,9 C 76 % 1018,1 hPa 0,0 mm 14,0 km/h (3 Bft) SW 225 0 min 6,2 C 22,9 km/h (4 Bft)
21.02.2016 04:53 10,3 C 10,1 C 76 % 1018,1 hPa 0,0 mm 16,1 km/h (3 Bft) W-SW 247 0 min 6,3 C 38,1 km/h (5 Bft)
21.02.2016 04:54 10,3 C 9,9 C 76 % 1018,1 hPa 0,0 mm 16,1 km/h (3 Bft) W-SW 247 0 min 6,3 C 63,5 km/h (8 Bft)
21.02.2016 04:55 10,4 C 10,0 C 75 % 1018,1 hPa 0,0 mm 17,9 km/h (3 Bft) S-SW 202 0 min 6,2 C 32,5 km/h (5 Bft)
21.02.2016 04:56 10,4 C 10,0 C 75 % 1018,1 hPa 0,0 mm 17,9 km/h (3 Bft) S-SW 202 0 min 6,2 C 32,5 km/h (5 Bft)
21.02.2016 04:57 10,4 C 10,0 C 75 % 1018,1 hPa 0,0 mm 18,5 km/h (3 Bft) W 270 0 min 6,2 C 15,5 km/h (3 Bft)
21.02.2016 04:58 10,4 C 10,0 C 75 % 1018,1 hPa 0,0 mm 18,5 km/h (3 Bft) W 270 0 min 6,2 C 15,5 km/h (3 Bft)
21.02.2016 04:59 10,4 C 10,0 C 75 % 1018,1 hPa 0,0 mm 18,8 km/h (3 Bft) W-SW 247 0 min 6,2 C 20,3 km/h (4 Bft)
21.02.2016 05:00 10,4 C 10,0 C 75 % 1018,1 hPa 0,0 mm 18,8 km/h (3 Bft) W-SW 247 0 min 6,2 C 20,3 km/h (4 Bft)
21.02.2016 05:01 10,4 C 10,1 C 75 % 1018,1 hPa 0,0 mm 19,7 km/h (3 Bft) W 270 0 min 6,2 C 31,3 km/h (5 Bft)
21.02.2016 05:02 10,4 C 10,0 C 75 % 1018,1 hPa 0,0 mm 19,7 km/h (3 Bft) W 270 0 min 6,2 C 31,3 km/h (5 Bft)
21.02.2016 05:03 10,5 C 10,2 C 74 % 1018,4 hPa 0,0 mm 20,3 km/h (4 Bft) W-NW 292 0 min 6,1 C 20,0 km/h (4 Bft)
21.02.2016 05:04 10,5 C 10,1 C 74 % 1018,4 hPa 0,0 mm 20,3 km/h (4 Bft) W-NW 292 0 min 6,1 C 67,1 km/h (8 Bft)
21.02.2016 05:05 10,7 C 10,3 C 74 % 1018,4 hPa 0,0 mm 21,2 km/h (4 Bft) W 270 0 min 6,3 C 21,2 km/h (4 Bft)
21.02.2016 05:06 10,7 C 10,2 C 74 % 1018,4 hPa 0,0 mm 21,2 km/h (4 Bft) W 270 0 min 6,3 C 21,2 km/h (4 Bft)
21.02.2016 05:07 10,5 C 10,0 C 74 % 1018,4 hPa 0,0 mm 21,5 km/h (4 Bft) W-SW 247 0 min 6,1 C 42,0 km/h (6 Bft)
21.02.2016 05:08 10,5 C 10,0 C 74 % 1018,4 hPa 0,0 mm 21,5 km/h (4 Bft) W-SW 247 0 min 6,1 C 42,0 km/h (6 Bft)
21.02.2016 05:09 10,5 C 10,0 C 73 % 1018,4 hPa 0,0 mm 22,1 km/h (4 Bft) NW 315 0 min 5,9 C 24,1 km/h (4 Bft)
21.02.2016 05:10 10,5 C 10,0 C 73 % 1018,4 hPa 0,0 mm 22,1 km/h (4 Bft) NW 315 0 min 5,9 C 24,1 km/h (4 Bft)
21.02.2016 05:11 10,5 C 10,1 C 73 % 1018,4 hPa 0,0 mm 22,9 km/h (4 Bft) NW 315 0 min 5,9 C 28,9 km/h (5 Bft)
21.02.2016 05:12 10,5 C 9,9 C 73 % 1018,4 hPa 0,0 mm 22,9 km/h (4 Bft) NW 315 0 min 5,9 C 28,9 km/h (5 Bft)
21.02.2016 05:13 10,5 C 10,1 C 73 % 1018,4 hPa 0,0 mm 21,8 km/h (4 Bft) W 270 0 min 5,9 C 19,1 km/h (3 Bft)
21.02.2016 05:14 10,5 C 10,0 C 73 % 1018,4 hPa 0,0 mm 21,8 km/h (4 Bft) W 270 0 min 5,9 C 19,1 km/h (3 Bft)
21.02.2016 05:15 10,4 C 9,9 C 73 % 1018,4 hPa 0,0 mm 20,6 km/h (4 Bft) W 270 0 min 5,8 C 26,8 km/h (4 Bft)
21.02.2016 05:16 10,4 C 9,9 C 73 % 1018,4 hPa 0,0 mm 20,6 km/h (4 Bft) W 270 0 min 5,8 C 26,8 km/h (4 Bft)
21.02.2016 05:17 10,3 C 10,0 C 73 % 1018,4 hPa 0,0 mm 19,1 km/h (3 Bft) W-SW 247 0 min 5,7 C 30,7 km/h (5 Bft)
21.02.2016 05:18 10,3 C 9,9 C 73 % 1018,4 hPa 0,0 mm 19,1 km/h (3 Bft) W-SW 247 0 min 5,7 C 30,7 km/h (5 Bft)
21.02.2016 05:19 10,3 C 9,9 C 73 % 1018,4 hPa 0,0 mm 17,6 km/h (3 Bft) W 270 0 min 5,7 C 23,5 km/h (4 Bft)
21.02.2016 05:20 10,3 C 9,9 C 73 % 1018,4 hPa 0,0 mm 17,6 km/h (3 Bft) W 270 0 min 5,7 C 23,5 km/h (4 Bft)
21.02.2016 05:21 10,3 C 10,0 C 73 % 1018,4 hPa 0,0 mm 16,4 km/h (3 Bft) W-NW 292 0 min 5,7 C 15,2 km/h (3 Bft)
21.02.2016 05:22 10,3 C 9,9 C 73 % 1018,4 hPa 0,0 mm 16,4 km/h (3 Bft) W-NW 292 0 min 5,7 C 15,2 km/h (3 Bft)
21.02.2016 05:23 10,3 C 10,1 C 73 % 1018,2 hPa 0,0 mm 15,8 km/h (3 Bft) W 270 0 min 5,7 C 19,1 km/h (3 Bft)
21.02.2016 05:24 10,3 C 10,0 C 73 % 1018,2 hPa 0,0 mm 15,8 km/h (3 Bft) W 270 0 min 5,7 C 19,1 km/h (3 Bft)
21.02.2016 05:25 10,4 C 10,0 C 73 % 1018,2 hPa 0,0 mm 16,1 km/h (3 Bft) NW 315 0 min 5,8 C 26,2 km/h (4 Bft)
21.02.2016 05:26 10,4 C 10,0 C 73 % 1018,2 hPa 0,0 mm 16,1 km/h (3 Bft) NW 315 0 min 5,8 C 26,2 km/h (4 Bft)
21.02.2016 05:27 10,4 C 10,2 C 73 % 1018,2 hPa 0,0 mm 16,1 km/h (3 Bft) W-SW 247 0 min 5,8 C 17,6 km/h (3 Bft)
21.02.2016 05:28 10,4 C 10,1 C 73 % 1018,2 hPa 0,0 mm 16,1 km/h (3 Bft) W-SW 247 0 min 5,8 C 17,6 km/h (3 Bft)
21.02.2016 05:29 10,4 C 10,2 C 73 % 1018,2 hPa 0,0 mm 16,1 km/h (3 Bft) W-SW 247 0 min 5,8 C 18,5 km/h (3 Bft)
21.02.2016 05:30 10,4 C 10,1 C 73 % 1018,2 hPa 0,0 mm 16,1 km/h (3 Bft) W-SW 247 0 min 5,8 C 18,5 km/h (3 Bft)
21.02.2016 05:31 10,4 C 10,1 C 73 % 1018,2 hPa 0,0 mm 16,7 km/h (3 Bft) W-SW 247 0 min 5,8 C 18,5 km/h (3 Bft)
21.02.2016 05:32 10,4 C 10,1 C 73 % 1018,2 hPa 0,0 mm 16,7 km/h (3 Bft) W-SW 247 0 min 5,8 C 18,5 km/h (3 Bft)
21.02.2016 05:34 10,3 C 10,0 C 73 % 1018,2 hPa 0,0 mm 15,8 km/h (3 Bft) W 270 0 min 5,7 C 12,8 km/h (3 Bft)
21.02.2016 05:35 10,5 C 10,3 C 73 % 1018,2 hPa 0,0 mm 17,3 km/h (3 Bft) W-NW 292 0 min 5,9 C 24,4 km/h (4 Bft)
21.02.2016 05:36 10,5 C 10,1 C 73 % 1018,2 hPa 0,0 mm 17,3 km/h (3 Bft) W-NW 292 0 min 5,9 C 24,4 km/h (4 Bft)
21.02.2016 05:37 10,7 C 10,4 C 73 % 1018,2 hPa 0,0 mm 17,9 km/h (3 Bft) W 270 0 min 6,1 C 19,1 km/h (3 Bft)
21.02.2016 05:38 10,7 C 10,3 C 73 % 1018,2 hPa 0,0 mm 17,9 km/h (3 Bft) W 270 0 min 6,1 C 19,1 km/h (3 Bft)
21.02.2016 05:39 10,7 C 10,4 C 72 % 1018,2 hPa 0,0 mm 20,0 km/h (4 Bft) W 270 0 min 5,9 C 47,4 km/h (6 Bft)
21.02.2016 05:40 10,7 C 10,2 C 72 % 1018,2 hPa 0,0 mm 20,0 km/h (4 Bft) W 270 0 min 5,9 C 47,4 km/h (6 Bft)
21.02.2016 05:41 10,7 C 10,4 C 72 % 1018,2 hPa 0,0 mm 20,6 km/h (4 Bft) NW 315 0 min 5,9 C 25,3 km/h (4 Bft)
21.02.2016 05:42 10,7 C 10,3 C 72 % 1018,2 hPa 0,0 mm 20,6 km/h (4 Bft) NW 315 0 min 5,9 C 25,3 km/h (4 Bft)
21.02.2016 05:43 10,7 C 10,3 C 72 % 1018,2 hPa 0,0 mm 21,2 km/h (4 Bft) W 270 0 min 5,9 C 28,3 km/h (4 Bft)
21.02.2016 05:44 10,7 C 10,3 C 72 % 1018,2 hPa 0,0 mm 21,2 km/h (4 Bft) W 270 0 min 5,9 C 28,3 km/h (4 Bft)
21.02.2016 05:45 10,7 C 10,3 C 72 % 1018,2 hPa 0,0 mm 21,5 km/h (4 Bft) SW 225 0 min 5,9 C 29,2 km/h (5 Bft)
21.02.2016 05:46 10,7 C 10,3 C 72 % 1018,2 hPa 0,0 mm 21,5 km/h (4 Bft) SW 225 0 min 5,9 C 29,2 km/h (5 Bft)
21.02.2016 05:47 10,7 C 10,5 C 71 % 1018,2 hPa 0,0 mm 21,5 km/h (4 Bft) W-NW 292 0 min 5,7 C 41,1 km/h (6 Bft)
21.02.2016 05:48 10,7 C 10,3 C 71 % 1018,2 hPa 0,0 mm 21,5 km/h (4 Bft) W-NW 292 0 min 5,7 C 41,1 km/h (6 Bft)
21.02.2016 05:49 10,8 C 10,5 C 71 % 1018,2 hPa 0,0 mm 21,5 km/h (4 Bft) W 270 0 min 5,8 C 20,6 km/h (4 Bft)
21.02.2016 05:50 10,8 C 10,3 C 71 % 1018,2 hPa 0,0 mm 21,5 km/h (4 Bft) W 270 0 min 5,8 C 20,6 km/h (4 Bft)
21.02.2016 05:51 10,7 C 10,5 C 71 % 1018,2 hPa 0,0 mm 20,0 km/h (4 Bft) W-SW 247 0 min 5,7 C 16,1 km/h (3 Bft)
21.02.2016 05:52 10,7 C 10,3 C 71 % 1018,2 hPa 0,0 mm 20,0 km/h (4 Bft) W-SW 247 0 min 5,7 C 16,1 km/h (3 Bft)
21.02.2016 05:53 10,6 C 10,3 C 71 % 1018,2 hPa 0,0 mm 18,8 km/h (3 Bft) W 270 0 min 5,6 C 14,3 km/h (3 Bft)
21.02.2016 05:54 10,6 C 10,3 C 71 % 1018,2 hPa 0,0 mm 18,8 km/h (3 Bft) W 270 0 min 5,6 C 14,3 km/h (3 Bft)
21.02.2016 05:55 10,6 C 10,3 C 71 % 1018,2 hPa 0,0 mm 17,9 km/h (3 Bft) W-SW 247 0 min 5,6 C 14,6 km/h (3 Bft)
21.02.2016 05:56 10,6 C 10,3 C 71 % 1018,2 hPa 0,0 mm 17,9 km/h (3 Bft) W-SW 247 0 min 5,6 C 14,6 km/h (3 Bft)
21.02.2016 05:57 10,6 C 10,4 C 71 % 1018,2 hPa 0,0 mm 16,7 km/h (3 Bft) W-SW 247 0 min 5,6 C 28,3 km/h (4 Bft)
21.02.2016 05:58 10,6 C 10,3 C 71 % 1018,2 hPa 0,0 mm 16,7 km/h (3 Bft) W-SW 247 0 min 5,6 C 28,3 km/h (4 Bft)
21.02.2016 05:59 10,7 C 10,5 C 71 % 1018,2 hPa 0,0 mm 15,2 km/h (3 Bft) NW 315 0 min 5,7 C 22,7 km/h (4 Bft)
21.02.2016 06:00 10,7 C 10,4 C 71 % 1018,2 hPa 0,0 mm 15,2 km/h (3 Bft) NW 315 0 min 5,7 C 22,7 km/h (4 Bft)
21.02.2016 06:01 10,7 C 10,5 C 71 % 1018,2 hPa 0,0 mm 14,3 km/h (3 Bft) N-NW 337 0 min 5,7 C 18,5 km/h (3 Bft)
21.02.2016 06:02 10,7 C 10,4 C 71 % 1018,2 hPa 0,0 mm 14,3 km/h (3 Bft) N-NW 337 0 min 5,7 C 18,5 km/h (3 Bft)
21.02.2016 06:03 10,7 C 10,4 C 71 % 1018,1 hPa 0,0 mm 14,3 km/h (3 Bft) N-NW 337 0 min 5,7 C 18,5 km/h (3 Bft)
21.02.2016 06:04 10,7 C 10,4 C 71 % 1018,1 hPa 0,0 mm 14,3 km/h (3 Bft) N-NW 337 0 min 5,7 C 18,5 km/h (3 Bft)
21.02.2016 06:05 10,7 C 10,4 C 70 % 1018,1 hPa 0,0 mm 14,3 km/h (3 Bft) NW 315 0 min 5,5 C 10,4 km/h (2 Bft)
21.02.2016 06:06 10,7 C 10,4 C 70 % 1018,1 hPa 0,0 mm 14,3 km/h (3 Bft) NW 315 0 min 5,5 C 10,4 km/h (2 Bft)
21.02.2016 06:07 10,7 C 10,6 C 70 % 1018,1 hPa 0,0 mm 14,9 km/h (3 Bft) W-SW 247 0 min 5,5 C 40,8 km/h (6 Bft)
21.02.2016 06:08 10,7 C 10,5 C 70 % 1018,1 hPa 0,0 mm 14,9 km/h (3 Bft) W-SW 247 0 min 5,5 C 40,8 km/h (6 Bft)
21.02.2016 06:09 10,9 C 10,6 C 70 % 1018,1 hPa 0,0 mm 15,8 km/h (3 Bft) W 270 0 min 5,6 C 19,1 km/h (3 Bft)
21.02.2016 06:10 10,9 C 10,6 C 70 % 1018,1 hPa 0,0 mm 15,8 km/h (3 Bft) W 270 0 min 5,6 C 19,1 km/h (3 Bft)
21.02.2016 06:11 10,9 C 10,7 C 69 % 1018,1 hPa 0,0 mm 16,4 km/h (3 Bft) W 270 0 min 5,4 C 29,2 km/h (5 Bft)
21.02.2016 06:12 10,9 C 10,6 C 69 % 1018,1 hPa 0,0 mm 16,4 km/h (3 Bft) W 270 0 min 5,4 C 29,2 km/h (5 Bft)
21.02.2016 06:13 11,1 C 10,7 C 69 % 1018,1 hPa 0,0 mm 18,2 km/h (3 Bft) W 270 0 min 5,6 C 35,2 km/h (5 Bft)
21.02.2016 06:14 11,1 C 10,7 C 69 % 1018,1 hPa 0,0 mm 18,2 km/h (3 Bft) W 270 0 min 5,6 C 35,2 km/h (5 Bft)
21.02.2016 06:15 11,0 C 10,8 C 69 % 1018,1 hPa 0,0 mm 19,1 km/h (3 Bft) W-NW 292 0 min 5,5 C 42,6 km/h (6 Bft)
21.02.2016 06:16 11,0 C 10,7 C 69 % 1018,1 hPa 0,0 mm 19,1 km/h (3 Bft) W-NW 292 0 min 5,5 C 42,6 km/h (6 Bft)
21.02.2016 06:17 11,0 C 10,8 C 69 % 1018,1 hPa 0,0 mm 20,3 km/h (4 Bft) SW 225 0 min 5,5 C 16,7 km/h (3 Bft)
21.02.2016 06:18 11,0 C 10,6 C 69 % 1018,1 hPa 0,0 mm 20,3 km/h (4 Bft) SW 225 0 min 5,5 C 16,7 km/h (3 Bft)
21.02.2016 06:19 11,0 C 10,8 C 69 % 1018,1 hPa 0,0 mm 19,1 km/h (3 Bft) W-SW 247 0 min 5,5 C 22,9 km/h (4 Bft)
21.02.2016 06:20 11,0 C 10,7 C 69 % 1018,1 hPa 0,0 mm 19,1 km/h (3 Bft) W-SW 247 0 min 5,5 C 22,9 km/h (4 Bft)
21.02.2016 06:21 10,9 C 10,6 C 69 % 1018,1 hPa 0,0 mm 19,7 km/h (3 Bft) W-SW 247 0 min 5,4 C 34,9 km/h (5 Bft)
21.02.2016 06:22 10,9 C 10,6 C 69 % 1018,1 hPa 0,0 mm 19,7 km/h (3 Bft) W-SW 247 0 min 5,4 C 34,9 km/h (5 Bft)
21.02.2016 06:23 11,0 C 10,7 C 68 % 1018,5 hPa 0,0 mm 18,8 km/h (3 Bft) W 270 0 min 5,3 C 27,1 km/h (4 Bft)
21.02.2016 06:24 11,0 C 10,7 C 68 % 1018,5 hPa 0,0 mm 18,8 km/h (3 Bft) W 270 0 min 5,3 C 27,1 km/h (4 Bft)
21.02.2016 06:25 11,0 C 10,8 C 68 % 1018,5 hPa 0,0 mm 17,6 km/h (3 Bft) W-NW 292 0 min 5,3 C 15,8 km/h (3 Bft)
21.02.2016 06:26 11,0 C 10,7 C 68 % 1018,5 hPa 0,0 mm 17,6 km/h (3 Bft) W-NW 292 0 min 5,3 C 15,8 km/h (3 Bft)
21.02.2016 06:27 10,9 C 10,8 C 68 % 1018,5 hPa 0,0 mm 16,1 km/h (3 Bft) W-NW 292 0 min 5,2 C 14,0 km/h (3 Bft)
21.02.2016 06:28 10,9 C 10,7 C 68 % 1018,5 hPa 0,0 mm 16,1 km/h (3 Bft) W-NW 292 0 min 5,2 C 14,0 km/h (3 Bft)
21.02.2016 06:29 11,0 C 10,9 C 68 % 1018,5 hPa 0,0 mm 17,0 km/h (3 Bft) SW 225 0 min 5,3 C 14,9 km/h (3 Bft)
21.02.2016 06:30 11,0 C 10,8 C 68 % 1018,5 hPa 0,0 mm 17,0 km/h (3 Bft) SW 225 0 min 5,3 C 14,9 km/h (3 Bft)
21.02.2016 06:31 11,1 C 10,9 C 68 % 1018,5 hPa 0,0 mm 18,5 km/h (3 Bft) N-NW 337 0 min 5,4 C 22,4 km/h (4 Bft)
21.02.2016 06:32 11,1 C 10,8 C 68 % 1018,5 hPa 0,0 mm 18,5 km/h (3 Bft) N-NW 337 0 min 5,4 C 22,4 km/h (4 Bft)
21.02.2016 06:33 11,1 C 11,0 C 68 % 1018,5 hPa 0,0 mm 17,3 km/h (3 Bft) W-NW 292 0 min 5,4 C 14,6 km/h (3 Bft)
21.02.2016 06:34 11,1 C 10,9 C 68 % 1018,5 hPa 0,0 mm 17,3 km/h (3 Bft) W-NW 292 0 min 5,4 C 14,6 km/h (3 Bft)
21.02.2016 06:35 11,2 C 11,0 C 67 % 1018,5 hPa 0,0 mm 18,8 km/h (3 Bft) W-SW 247 0 min 5,3 C 25,0 km/h (4 Bft)
21.02.2016 06:36 11,2 C 10,9 C 67 % 1018,5 hPa 0,0 mm 18,8 km/h (3 Bft) W-SW 247 0 min 5,3 C 25,0 km/h (4 Bft)
21.02.2016 06:37 11,2 C 10,9 C 67 % 1018,5 hPa 0,0 mm 20,0 km/h (4 Bft) W-SW 247 0 min 5,3 C 12,8 km/h (3 Bft)
21.02.2016 06:38 11,2 C 10,9 C 67 % 1018,5 hPa 0,0 mm 20,0 km/h (4 Bft) W-SW 247 0 min 5,3 C 12,8 km/h (3 Bft)
21.02.2016 06:39 11,2 C 10,9 C 67 % 1018,5 hPa 0,0 mm 19,4 km/h (3 Bft) W-NW 292 0 min 5,3 C 45,9 km/h (6 Bft)
21.02.2016 06:40 11,2 C 10,9 C 67 % 1018,5 hPa 0,0 mm 19,4 km/h (3 Bft) W-NW 292 0 min 5,3 C 45,9 km/h (6 Bft)
21.02.2016 06:41 11,2 C 10,9 C 67 % 1018,5 hPa 0,0 mm 19,7 km/h (3 Bft) W-NW 292 0 min 5,3 C 33,7 km/h (5 Bft)
21.02.2016 06:42 11,2 C 10,9 C 67 % 1018,5 hPa 0,0 mm 19,7 km/h (3 Bft) W-NW 292 0 min 5,3 C 33,7 km/h (5 Bft)
21.02.2016 06:43 11,2 C 11,0 C 67 % 1018,9 hPa 0,0 mm 19,1 km/h (3 Bft) W 270 0 min 5,3 C 22,1 km/h (4 Bft)
21.02.2016 06:44 11,2 C 10,9 C 67 % 1018,9 hPa 0,0 mm 19,1 km/h (3 Bft) W 270 0 min 5,3 C 22,1 km/h (4 Bft)
21.02.2016 06:45 11,3 C 11,1 C 67 % 1018,9 hPa 0,0 mm 19,7 km/h (3 Bft) W-SW 247 0 min 5,4 C 34,6 km/h (5 Bft)
21.02.2016 06:46 11,3 C 11,0 C 67 % 1018,9 hPa 0,0 mm 19,7 km/h (3 Bft) W-SW 247 0 min 5,4 C 34,6 km/h (5 Bft)
21.02.2016 06:47 11,3 C 11,0 C 67 % 1018,9 hPa 0,0 mm 19,7 km/h (3 Bft) SW 225 0 min 5,4 C 21,8 km/h (4 Bft)
21.02.2016 06:48 11,3 C 11,0 C 67 % 1018,9 hPa 0,0 mm 19,7 km/h (3 Bft) SW 225 0 min 5,4 C 21,8 km/h (4 Bft)
21.02.2016 06:49 11,1 C 11,0 C 67 % 1018,9 hPa 0,0 mm 18,8 km/h (3 Bft) W 270 0 min 5,2 C 19,4 km/h (3 Bft)
21.02.2016 06:50 11,1 C 10,9 C 67 % 1018,9 hPa 0,0 mm 18,8 km/h (3 Bft) W 270 0 min 5,2 C 19,4 km/h (3 Bft)
21.02.2016 06:51 11,1 C 11,0 C 67 % 1018,9 hPa 0,0 mm 17,9 km/h (3 Bft) W-NW 292 0 min 5,2 C 28,0 km/h (4 Bft)
21.02.2016 06:52 11,1 C 10,9 C 67 % 1018,9 hPa 0,0 mm 17,9 km/h (3 Bft) W-NW 292 0 min 5,2 C 28,0 km/h (4 Bft)
21.02.2016 06:53 11,1 C 11,0 C 67 % 1018,9 hPa 0,0 mm 17,3 km/h (3 Bft) W 270 0 min 5,2 C 17,9 km/h (3 Bft)
21.02.2016 06:54 11,1 C 10,9 C 67 % 1018,9 hPa 0,0 mm 17,3 km/h (3 Bft) W 270 0 min 5,2 C 17,9 km/h (3 Bft)
21.02.2016 06:55 11,1 C 11,0 C 67 % 1018,9 hPa 0,0 mm 17,6 km/h (3 Bft) W-NW 292 0 min 5,2 C 14,6 km/h (3 Bft)
21.02.2016 06:56 11,1 C 10,9 C 67 % 1018,9 hPa 0,0 mm 17,6 km/h (3 Bft) W-NW 292 0 min 5,2 C 14,6 km/h (3 Bft)
21.02.2016 06:57 11,1 C 11,0 C 67 % 1018,9 hPa 0,0 mm 16,1 km/h (3 Bft) W-SW 247 0 min 5,2 C 24,4 km/h (4 Bft)
21.02.2016 06:58 11,1 C 10,9 C 67 % 1018,9 hPa 0,0 mm 16,1 km/h (3 Bft) W-SW 247 0 min 5,2 C 24,4 km/h (4 Bft)
21.02.2016 06:59 11,1 C 11,0 C 67 % 1018,9 hPa 0,0 mm 16,4 km/h (3 Bft) W 270 0 min 5,2 C 17,3 km/h (3 Bft)
21.02.2016 07:00 11,1 C 10,9 C 67 % 1018,9 hPa 0,0 mm 16,4 km/h (3 Bft) W 270 0 min 5,2 C 17,3 km/h (3 Bft)
21.02.2016 07:01 11,1 C 11,0 C 66 % 1018,9 hPa 0,0 mm 17,0 km/h (3 Bft) NW 315 0 min 5,0 C 24,1 km/h (4 Bft)
21.02.2016 07:02 11,1 C 10,9 C 66 % 1018,9 hPa 0,0 mm 17,0 km/h (3 Bft) NW 315 0 min 5,0 C 24,1 km/h (4 Bft)
21.02.2016 07:03 11,1 C 10,9 C 66 % 1019,1 hPa 0,0 mm 17,0 km/h (3 Bft) W 270 0 min 5,0 C 29,5 km/h (5 Bft)
21.02.2016 07:04 11,1 C 10,9 C 66 % 1019,1 hPa 0,0 mm 17,0 km/h (3 Bft) W 270 0 min 5,0 C 29,5 km/h (5 Bft)
21.02.2016 07:05 11,1 C 10,9 C 66 % 1019,1 hPa 0,0 mm 17,0 km/h (3 Bft) NW 315 0 min 5,0 C 18,2 km/h (3 Bft)
21.02.2016 07:06 11,1 C 10,9 C 66 % 1019,1 hPa 0,0 mm 17,0 km/h (3 Bft) NW 315 0 min 5,0 C 18,2 km/h (3 Bft)
21.02.2016 07:07 11,0 C 10,9 C 67 % 1019,1 hPa 0,0 mm 15,5 km/h (3 Bft) W 270 0 min 5,1 C 20,0 km/h (4 Bft)
21.02.2016 07:08 11,0 C 10,9 C 67 % 1019,1 hPa 0,0 mm 15,5 km/h (3 Bft) W 270 0 min 5,1 C 20,0 km/h (4 Bft)
21.02.2016 07:09 11,1 C 11,0 C 66 % 1019,1 hPa 0,0 mm 16,1 km/h (3 Bft) W 270 0 min 5,0 C 32,2 km/h (5 Bft)
21.02.2016 07:10 11,1 C 10,9 C 66 % 1019,1 hPa 0,0 mm 16,1 km/h (3 Bft) W 270 0 min 5,0 C 32,2 km/h (5 Bft)
21.02.2016 07:11 11,2 C 11,1 C 66 % 1019,1 hPa 0,0 mm 15,8 km/h (3 Bft) W 270 0 min 5,1 C 33,7 km/h (5 Bft)
21.02.2016 07:12 11,2 C 11,0 C 66 % 1019,1 hPa 0,0 mm 15,8 km/h (3 Bft) W 270 0 min 5,1 C 33,7 km/h (5 Bft)
21.02.2016 07:13 11,2 C 11,1 C 66 % 1019,1 hPa 0,0 mm 16,7 km/h (3 Bft) W 270 0 min 5,1 C 21,5 km/h (4 Bft)
21.02.2016 07:14 11,2 C 10,9 C 66 % 1019,1 hPa 0,0 mm 16,7 km/h (3 Bft) W 270 0 min 5,1 C 21,5 km/h (4 Bft)
21.02.2016 07:15 11,2 C 11,1 C 66 % 1019,1 hPa 0,0 mm 16,1 km/h (3 Bft) SO 135 0 min 5,1 C 9,5 km/h (2 Bft)
21.02.2016 07:16 11,2 C 11,0 C 66 % 1019,1 hPa 0,0 mm 16,1 km/h (3 Bft) SO 135 0 min 5,1 C 9,5 km/h (2 Bft)
21.02.2016 07:17 11,1 C 11,0 C 66 % 1019,1 hPa 0,0 mm 15,8 km/h (3 Bft) W-SW 247 0 min 5,0 C 14,9 km/h (3 Bft)
21.02.2016 07:18 11,1 C 11,0 C 66 % 1019,1 hPa 0,0 mm 15,8 km/h (3 Bft) W-SW 247 0 min 5,0 C 14,9 km/h (3 Bft)
21.02.2016 07:19 11,0 C 11,0 C 66 % 1019,1 hPa 0,0 mm 15,5 km/h (3 Bft) W-SW 247 0 min 4,9 C 19,7 km/h (3 Bft)
21.02.2016 07:20 11,0 C 10,9 C 66 % 1019,1 hPa 0,0 mm 15,5 km/h (3 Bft) W-SW 247 0 min 4,9 C 19,7 km/h (3 Bft)
21.02.2016 07:21 11,1 C 11,0 C 66 % 1019,1 hPa 0,0 mm 16,1 km/h (3 Bft) W-SW 247 0 min 5,0 C 29,5 km/h (5 Bft)
21.02.2016 07:22 11,1 C 10,9 C 66 % 1019,1 hPa 0,0 mm 16,1 km/h (3 Bft) W-SW 247 0 min 5,0 C 29,5 km/h (5 Bft)
21.02.2016 07:23 11,1 C 11,0 C 66 % 1019,2 hPa 0,0 mm 15,5 km/h (3 Bft) W 270 0 min 5,0 C 29,2 km/h (5 Bft)
21.02.2016 07:24 11,1 C 10,9 C 66 % 1019,2 hPa 0,0 mm 15,5 km/h (3 Bft) W 270 0 min 5,0 C 29,2 km/h (5 Bft)
21.02.2016 07:25 11,2 C 11,1 C 66 % 1019,2 hPa 0,0 mm 16,4 km/h (3 Bft) W-NW 292 0 min 5,1 C 28,3 km/h (4 Bft)
21.02.2016 07:26 11,2 C 11,0 C 66 % 1019,2 hPa 0,0 mm 16,4 km/h (3 Bft) W-NW 292 0 min 5,1 C 28,3 km/h (4 Bft)
21.02.2016 07:27 11,2 C 11,0 C 66 % 1019,2 hPa 0,0 mm 17,9 km/h (3 Bft) W 270 0 min 5,1 C 24,7 km/h (4 Bft)
21.02.2016 07:28 11,2 C 10,9 C 66 % 1019,2 hPa 0,0 mm 17,9 km/h (3 Bft) W 270 0 min 5,1 C 24,7 km/h (4 Bft)
21.02.2016 07:29 11,2 C 10,9 C 65 % 1019,2 hPa 0,0 mm 19,7 km/h (3 Bft) W 270 0 min 4,9 C 37,6 km/h (5 Bft)
21.02.2016 07:30 11,2 C 10,9 C 65 % 1019,2 hPa 0,0 mm 19,7 km/h (3 Bft) W 270 0 min 4,9 C 37,6 km/h (5 Bft)
21.02.2016 07:31 11,2 C 10,9 C 65 % 1019,2 hPa 0,0 mm 19,7 km/h (3 Bft) W-SW 247 0 min 4,9 C 26,8 km/h (4 Bft)
21.02.2016 07:32 11,2 C 10,9 C 65 % 1019,2 hPa 0,0 mm 19,7 km/h (3 Bft) W-SW 247 0 min 4,9 C 26,8 km/h (4 Bft)
21.02.2016 07:33 11,1 C 10,9 C 66 % 1019,2 hPa 0,0 mm 19,4 km/h (3 Bft) W-NW 292 0 min 5,0 C 12,8 km/h (3 Bft)
21.02.2016 07:34 11,1 C 10,8 C 66 % 1019,2 hPa 0,0 mm 19,4 km/h (3 Bft) W-NW 292 0 min 5,0 C 12,8 km/h (3 Bft)
21.02.2016 07:35 11,1 C 10,9 C 66 % 1019,2 hPa 0,0 mm 18,5 km/h (3 Bft) N-NO 22 0 min 5,0 C 10,7 km/h (2 Bft)
21.02.2016 07:36 11,1 C 10,8 C 66 % 1019,2 hPa 0,0 mm 18,5 km/h (3 Bft) N-NO 22 0 min 5,0 C 10,7 km/h (2 Bft)
21.02.2016 07:37 11,0 C 10,9 C 66 % 1019,2 hPa 0,0 mm 16,7 km/h (3 Bft) W-NW 292 0 min 4,9 C 29,2 km/h (5 Bft)
21.02.2016 07:38 11,0 C 10,8 C 66 % 1019,2 hPa 0,0 mm 16,7 km/h (3 Bft) W-NW 292 0 min 4,9 C 29,2 km/h (5 Bft)
21.02.2016 07:39 11,1 C 10,9 C 66 % 1019,2 hPa 0,0 mm 16,1 km/h (3 Bft) W 270 0 min 5,0 C 37,6 km/h (5 Bft)
21.02.2016 07:40 11,1 C 10,9 C 66 % 1019,2 hPa 0,0 mm 16,1 km/h (3 Bft) W 270 0 min 5,0 C 37,6 km/h (5 Bft)
21.02.2016 07:41 11,2 C 11,0 C 66 % 1019,2 hPa 0,0 mm 16,7 km/h (3 Bft) W-SW 247 0 min 5,1 C 29,8 km/h (5 Bft)
21.02.2016 07:42 11,2 C 10,9 C 66 % 1019,2 hPa 0,0 mm 16,7 km/h (3 Bft) W-SW 247 0 min 5,1 C 29,8 km/h (5 Bft)
21.02.2016 07:43 11,2 C 11,0 C 66 % 1019,6 hPa 0,0 mm 19,1 km/h (3 Bft) NW 315 0 min 5,1 C 32,5 km/h (5 Bft)
21.02.2016 07:44 11,2 C 10,8 C 66 % 1019,6 hPa 0,0 mm 19,1 km/h (3 Bft) NW 315 0 min 5,1 C 32,5 km/h (5 Bft)
21.02.2016 07:45 11,2 C 10,8 C 65 % 1019,6 hPa 0,0 mm 20,6 km/h (4 Bft) NW 315 0 min 4,9 C 29,5 km/h (5 Bft)
21.02.2016 07:46 11,2 C 10,8 C 65 % 1019,6 hPa 0,0 mm 20,6 km/h (4 Bft) NW 315 0 min 4,9 C 29,5 km/h (5 Bft)
21.02.2016 07:47 11,2 C 11,0 C 65 % 1019,6 hPa 0,0 mm 22,4 km/h (4 Bft) NW 315 0 min 4,9 C 28,0 km/h (4 Bft)
21.02.2016 07:48 11,2 C 10,8 C 65 % 1019,6 hPa 0,0 mm 22,4 km/h (4 Bft) NW 315 0 min 4,9 C 28,0 km/h (4 Bft)
21.02.2016 07:49 11,2 C 10,8 C 65 % 1019,6 hPa 0,0 mm 21,8 km/h (4 Bft) W 270 0 min 4,9 C 22,7 km/h (4 Bft)
21.02.2016 07:50 11,2 C 10,8 C 65 % 1019,6 hPa 0,0 mm 21,8 km/h (4 Bft) W 270 0 min 4,9 C 22,7 km/h (4 Bft)
21.02.2016 07:51 11,1 C 10,9 C 66 % 1019,6 hPa 0,0 mm 21,5 km/h (4 Bft) W-NW 292 0 min 5,0 C 27,4 km/h (4 Bft)
21.02.2016 07:52 11,1 C 10,8 C 66 % 1019,6 hPa 0,0 mm 21,5 km/h (4 Bft) W-NW 292 0 min 5,0 C 27,4 km/h (4 Bft)
21.02.2016 07:53 11,1 C 10,9 C 66 % 1019,6 hPa 0,0 mm 21,5 km/h (4 Bft) W-NW 292 0 min 5,0 C 35,8 km/h (5 Bft)
21.02.2016 07:54 11,1 C 10,7 C 66 % 1019,6 hPa 0,0 mm 21,5 km/h (4 Bft) W-NW 292 0 min 5,0 C 35,8 km/h (5 Bft)
21.02.2016 07:55 11,1 C 10,7 C 66 % 1019,6 hPa 0,0 mm 20,9 km/h (4 Bft) NW 315 0 min 5,0 C 22,7 km/h (4 Bft)
21.02.2016 07:56 11,1 C 10,7 C 66 % 1019,6 hPa 0,0 mm 20,9 km/h (4 Bft) NW 315 0 min 5,0 C 22,7 km/h (4 Bft)
21.02.2016 07:57 11,0 C 10,8 C 66 % 1019,6 hPa 0,0 mm 19,4 km/h (3 Bft) W 270 0 min 4,9 C 15,2 km/h (3 Bft)
21.02.2016 07:58 11,0 C 10,7 C 66 % 1019,6 hPa 0,0 mm 19,4 km/h (3 Bft) W 270 0 min 4,9 C 15,2 km/h (3 Bft)
21.02.2016 07:59 11,0 C 10,8 C 66 % 1019,6 hPa 0,0 mm 20,3 km/h (4 Bft) W-SW 247 0 min 4,9 C 22,9 km/h (4 Bft)
21.02.2016 08:00 11,0 C 10,6 C 66 % 1019,6 hPa 0,0 mm 20,3 km/h (4 Bft) W-SW 247 0 min 4,9 C 22,9 km/h (4 Bft)
21.02.2016 08:01 11,0 C 10,6 C 66 % 1019,6 hPa 0,0 mm 21,2 km/h (4 Bft) W 270 0 min 4,9 C 23,8 km/h (4 Bft)
21.02.2016 08:02 11,0 C 10,6 C 66 % 1019,6 hPa 0,0 mm 21,2 km/h (4 Bft) W 270 0 min 4,9 C 23,8 km/h (4 Bft)
21.02.2016 08:03 11,0 C 10,8 C 66 % 1020,0 hPa 0,0 mm 22,1 km/h (4 Bft) NW 315 0 min 4,9 C 48,6 km/h (6 Bft)
21.02.2016 08:04 11,0 C 10,6 C 66 % 1020,0 hPa 0,0 mm 22,1 km/h (4 Bft) NW 315 0 min 4,9 C 48,6 km/h (6 Bft)
21.02.2016 08:05 10,9 C 10,5 C 66 % 1020,0 hPa 0,0 mm 21,8 km/h (4 Bft) W-NW 292 0 min 4,8 C 34,0 km/h (5 Bft)
21.02.2016 08:06 10,9 C 10,5 C 66 % 1020,0 hPa 0,0 mm 21,8 km/h (4 Bft) W-NW 292 0 min 4,8 C 34,0 km/h (5 Bft)
21.02.2016 08:07 10,8 C 10,6 C 66 % 1020,0 hPa 0,0 mm 22,7 km/h (4 Bft) W 270 0 min 4,7 C 35,2 km/h (5 Bft)
21.02.2016 08:08 10,8 C 10,4 C 66 % 1020,0 hPa 0,0 mm 22,7 km/h (4 Bft) W 270 0 min 4,7 C 35,2 km/h (5 Bft)
21.02.2016 08:09 10,8 C 10,5 C 67 % 1020,0 hPa 0,0 mm 22,4 km/h (4 Bft) W-NW 292 0 min 4,9 C 30,4 km/h (5 Bft)
21.02.2016 08:10 10,8 C 10,4 C 67 % 1020,0 hPa 0,0 mm 22,4 km/h (4 Bft) W-NW 292 0 min 4,9 C 30,4 km/h (5 Bft)
21.02.2016 08:11 10,7 C 10,5 C 67 % 1020,0 hPa 0,0 mm 21,5 km/h (4 Bft) SW 225 0 min 4,8 C 20,6 km/h (4 Bft)
21.02.2016 08:12 10,7 C 10,3 C 67 % 1020,0 hPa 0,0 mm 21,5 km/h (4 Bft) SW 225 0 min 4,8 C 20,6 km/h (4 Bft)
21.02.2016 08:13 10,7 C 10,5 C 67 % 1020,0 hPa 0,0 mm 20,9 km/h (4 Bft) W-SW 247 0 min 4,8 C 26,8 km/h (4 Bft)
21.02.2016 08:14 10,7 C 10,3 C 67 % 1020,0 hPa 0,0 mm 20,9 km/h (4 Bft) W-SW 247 0 min 4,8 C 26,8 km/h (4 Bft)
21.02.2016 08:15 10,7 C 10,4 C 67 % 1020,0 hPa 0,0 mm 20,3 km/h (4 Bft) W 270 0 min 4,8 C 22,7 km/h (4 Bft)
21.02.2016 08:16 10,7 C 10,2 C 67 % 1020,0 hPa 0,0 mm 20,3 km/h (4 Bft) W 270 0 min 4,8 C 22,7 km/h (4 Bft)
21.02.2016 08:17 10,7 C 10,3 C 67 % 1020,0 hPa 0,0 mm 21,2 km/h (4 Bft) W-NW 292 0 min 4,8 C 37,0 km/h (5 Bft)
21.02.2016 08:18 10,7 C 10,1 C 67 % 1020,0 hPa 0,0 mm 21,2 km/h (4 Bft) W-NW 292 0 min 4,8 C 37,0 km/h (5 Bft)
21.02.2016 08:19 10,6 C 10,2 C 68 % 1020,0 hPa 0,0 mm 22,1 km/h (4 Bft) W 270 0 min 4,9 C 25,0 km/h (4 Bft)
21.02.2016 08:20 10,6 C 10,0 C 68 % 1020,0 hPa 0,0 mm 22,1 km/h (4 Bft) W 270 0 min 4,9 C 25,0 km/h (4 Bft)
21.02.2016 08:21 10,5 C 10,1 C 68 % 1020,0 hPa 0,0 mm 21,8 km/h (4 Bft) W 270 0 min 4,8 C 12,5 km/h (3 Bft)
21.02.2016 08:22 10,5 C 9,9 C 68 % 1020,0 hPa 0,0 mm 21,8 km/h (4 Bft) W 270 0 min 4,8 C 12,5 km/h (3 Bft)
21.02.2016 08:23 10,4 C 10,0 C 68 % 1019,9 hPa 0,0 mm 21,8 km/h (4 Bft) W-NW 292 0 min 4,8 C 13,7 km/h (3 Bft)
21.02.2016 08:24 10,4 C 9,8 C 68 % 1019,9 hPa 0,0 mm 21,8 km/h (4 Bft) W-NW 292 0 min 4,8 C 13,7 km/h (3 Bft)
21.02.2016 08:25 10,4 C 10,0 C 68 % 1019,9 hPa 0,0 mm 19,7 km/h (3 Bft) W 270 0 min 4,8 C 17,9 km/h (3 Bft)
21.02.2016 08:26 10,4 C 9,9 C 68 % 1019,9 hPa 0,0 mm 19,7 km/h (3 Bft) W 270 0 min 4,8 C 17,9 km/h (3 Bft)
21.02.2016 08:27 10,3 C 9,8 C 69 % 1019,9 hPa 0,0 mm 19,1 km/h (3 Bft) S-SO 157 0 min 4,9 C 25,9 km/h (4 Bft)
21.02.2016 08:28 10,3 C 9,8 C 69 % 1019,9 hPa 0,0 mm 19,1 km/h (3 Bft) S-SO 157 0 min 4,9 C 25,9 km/h (4 Bft)
21.02.2016 08:29 10,3 C 10,0 C 69 % 1019,9 hPa 0,0 mm 17,0 km/h (3 Bft) W-NW 292 0 min 4,9 C 20,9 km/h (4 Bft)
21.02.2016 08:31 10,3 C 9,9 C 69 % 1019,9 hPa 0,0 mm 17,0 km/h (3 Bft) W 270 0 min 4,9 C 18,8 km/h (3 Bft)
21.02.2016 08:33 10,3 C 10,0 C 69 % 1019,9 hPa 0,0 mm 17,9 km/h (3 Bft) W-SW 247 0 min 4,9 C 22,1 km/h (4 Bft)
21.02.2016 08:34 10,3 C 9,8 C 69 % 1019,9 hPa 0,0 mm 17,9 km/h (3 Bft) W-SW 247 0 min 4,9 C 22,1 km/h (4 Bft)
21.02.2016 08:35 10,3 C 9,9 C 69 % 1019,9 hPa 0,0 mm 19,7 km/h (3 Bft) NW 315 0 min 4,9 C 18,5 km/h (3 Bft)
21.02.2016 08:36 10,3 C 9,8 C 69 % 1019,9 hPa 0,0 mm 19,7 km/h (3 Bft) NW 315 0 min 4,9 C 18,5 km/h (3 Bft)
21.02.2016 08:37 10,2 C 9,8 C 70 % 1019,9 hPa 0,0 mm 20,0 km/h (4 Bft) W 270 0 min 5,0 C 25,0 km/h (4 Bft)
21.02.2016 08:38 10,2 C 9,6 C 70 % 1019,9 hPa 0,0 mm 20,0 km/h (4 Bft) W 270 0 min 5,0 C 25,0 km/h (4 Bft)
21.02.2016 08:39 10,1 C 9,7 C 71 % 1019,9 hPa 0,0 mm 21,2 km/h (4 Bft) W 270 0 min 5,1 C 33,7 km/h (5 Bft)
21.02.2016 08:40 10,1 C 9,4 C 71 % 1019,9 hPa 0,0 mm 21,2 km/h (4 Bft) W 270 0 min 5,1 C 33,7 km/h (5 Bft)
21.02.2016 08:41 10,0 C 9,5 C 72 % 1019,9 hPa 0,0 mm 21,5 km/h (4 Bft) W 270 0 min 5,2 C 34,3 km/h (5 Bft)
21.02.2016 08:42 10,0 C 9,2 C 72 % 1019,9 hPa 0,0 mm 21,5 km/h (4 Bft) W 270 0 min 5,2 C 34,3 km/h (5 Bft)
21.02.2016 08:43 9,9 C 9,3 C 73 % 1020,2 hPa 0,0 mm 20,9 km/h (4 Bft) NW 315 0 min 5,3 C 21,8 km/h (4 Bft)
21.02.2016 08:44 9,9 C 9,0 C 73 % 1020,2 hPa 0,0 mm 20,9 km/h (4 Bft) NW 315 0 min 5,3 C 21,8 km/h (4 Bft)
21.02.2016 08:45 9,7 C 9,1 C 74 % 1020,2 hPa 0,0 mm 19,7 km/h (3 Bft) W-NW 292 0 min 5,3 C 11,3 km/h (2 Bft)
21.02.2016 08:46 9,7 C 8,9 C 74 % 1020,2 hPa 0,0 mm 19,7 km/h (3 Bft) W-NW 292 0 min 5,3 C 11,3 km/h (2 Bft)
21.02.2016 08:47 9,6 C 8,9 C 75 % 1020,2 hPa 0,0 mm 19,4 km/h (3 Bft) W 270 0 min 5,4 C 34,6 km/h (5 Bft)
21.02.2016 08:48 9,6 C 8,7 C 75 % 1020,2 hPa 0,0 mm 19,4 km/h (3 Bft) W 270 0 min 5,4 C 34,6 km/h (5 Bft)
21.02.2016 08:49 9,6 C 8,9 C 75 % 1020,2 hPa 0,0 mm 18,8 km/h (3 Bft) NW 315 0 min 5,4 C 35,8 km/h (5 Bft)
21.02.2016 08:50 9,6 C 8,7 C 75 % 1020,2 hPa 0,0 mm 18,8 km/h (3 Bft) NW 315 0 min 5,4 C 35,8 km/h (5 Bft)
21.02.2016 08:51 9,5 C 8,8 C 76 % 1020,2 hPa 0,0 mm 18,5 km/h (3 Bft) W-SW 247 0 min 5,5 C 21,5 km/h (4 Bft)
21.02.2016 08:52 9,5 C 8,6 C 76 % 1020,2 hPa 0,0 mm 18,5 km/h (3 Bft) W-SW 247 0 min 5,5 C 21,5 km/h (4 Bft)
21.02.2016 08:53 9,5 C 8,7 C 76 % 1020,2 hPa 0,0 mm 19,1 km/h (3 Bft) W 270 0 min 5,5 C 21,8 km/h (4 Bft)
21.02.2016 08:54 9,5 C 8,5 C 76 % 1020,2 hPa 0,0 mm 19,1 km/h (3 Bft) W 270 0 min 5,5 C 21,8 km/h (4 Bft)
21.02.2016 08:55 9,5 C 8,7 C 76 % 1020,2 hPa 0,0 mm 17,9 km/h (3 Bft) W-SW 247 0 min 5,5 C 17,9 km/h (3 Bft)
21.02.2016 08:56 9,5 C 8,6 C 76 % 1020,2 hPa 0,0 mm 17,9 km/h (3 Bft) W-SW 247 0 min 5,5 C 17,9 km/h (3 Bft)
21.02.2016 08:57 9,4 C 8,6 C 76 % 1020,2 hPa 0,0 mm 18,5 km/h (3 Bft) W-SW 247 0 min 5,4 C 23,5 km/h (4 Bft)
21.02.2016 08:58 9,4 C 8,4 C 76 % 1020,2 hPa 0,0 mm 18,5 km/h (3 Bft) W-SW 247 0 min 5,4 C 23,5 km/h (4 Bft)
21.02.2016 08:59 9,4 C 8,4 C 77 % 1020,2 hPa 0,0 mm 17,6 km/h (3 Bft) W 270 0 min 5,6 C 14,3 km/h (3 Bft)
21.02.2016 09:00 9,4 C 8,4 C 77 % 1020,2 hPa 0,0 mm 17,6 km/h (3 Bft) W 270 0 min 5,6 C 14,3 km/h (3 Bft)
21.02.2016 09:01 9,4 C 8,6 C 77 % 1020,2 hPa 0,0 mm 17,9 km/h (3 Bft) W 270 0 min 5,6 C 48,6 km/h (6 Bft)
21.02.2016 09:02 9,4 C 8,4 C 77 % 1020,2 hPa 0,0 mm 17,9 km/h (3 Bft) W 270 0 min 5,6 C 48,6 km/h (6 Bft)
21.02.2016 09:03 9,4 C 8,4 C 77 % 1020,2 hPa 0,0 mm 17,9 km/h (3 Bft) SW 225 0 min 5,6 C 17,9 km/h (3 Bft)
21.02.2016 09:04 9,4 C 8,4 C 77 % 1020,2 hPa 0,0 mm 17,9 km/h (3 Bft) SW 225 0 min 5,6 C 17,9 km/h (3 Bft)
21.02.2016 09:05 9,4 C 8,4 C 77 % 1020,2 hPa 0,0 mm 18,2 km/h (3 Bft) W-SW 247 0 min 5,6 C 34,6 km/h (5 Bft)
21.02.2016 09:06 9,4 C 8,4 C 77 % 1020,2 hPa 0,0 mm 18,2 km/h (3 Bft) W-SW 247 0 min 5,6 C 34,6 km/h (5 Bft)
21.02.2016 09:07 9,5 C 8,5 C 77 % 1020,2 hPa 0,0 mm 18,5 km/h (3 Bft) W 270 0 min 5,7 C 17,6 km/h (3 Bft)
21.02.2016 09:08 9,5 C 8,5 C 77 % 1020,2 hPa 0,0 mm 18,5 km/h (3 Bft) W 270 0 min 5,7 C 17,6 km/h (3 Bft)
21.02.2016 09:09 9,6 C 8,7 C 77 % 1020,2 hPa 0,0 mm 18,5 km/h (3 Bft) NW 315 0 min 5,8 C 13,1 km/h (3 Bft)
21.02.2016 09:10 9,6 C 8,6 C 77 % 1020,2 hPa 0,0 mm 18,5 km/h (3 Bft) NW 315 0 min 5,8 C 13,1 km/h (3 Bft)
21.02.2016 09:11 9,6 C 8,8 C 77 % 1020,2 hPa 0,0 mm 18,2 km/h (3 Bft) W-SW 247 0 min 5,8 C 18,5 km/h (3 Bft)
21.02.2016 09:12 9,6 C 8,6 C 77 % 1020,2 hPa 0,0 mm 18,2 km/h (3 Bft) W-SW 247 0 min 5,8 C 18,5 km/h (3 Bft)
21.02.2016 09:13 9,7 C 8,9 C 77 % 1020,2 hPa 0,0 mm 17,0 km/h (3 Bft) SW 225 0 min 5,9 C 13,1 km/h (3 Bft)
21.02.2016 09:14 9,7 C 8,8 C 77 % 1020,2 hPa 0,0 mm 17,0 km/h (3 Bft) SW 225 0 min 5,9 C 13,1 km/h (3 Bft)
21.02.2016 09:15 9,8 C 9,1 C 76 % 1020,2 hPa 0,0 mm 16,7 km/h (3 Bft) W-SW 247 0 min 5,8 C 17,9 km/h (3 Bft)
21.02.2016 09:16 9,8 C 9,0 C 76 % 1020,2 hPa 0,0 mm 16,7 km/h (3 Bft) W-SW 247 0 min 5,8 C 17,9 km/h (3 Bft)
21.02.2016 09:17 9,7 C 9,1 C 76 % 1020,2 hPa 0,0 mm 15,5 km/h (3 Bft) W 270 0 min 5,7 C 11,6 km/h (2 Bft)
21.02.2016 09:18 9,7 C 9,0 C 76 % 1020,2 hPa 0,0 mm 15,5 km/h (3 Bft) W 270 0 min 5,7 C 11,6 km/h (2 Bft)
21.02.2016 09:19 9,8 C 9,2 C 76 % 1020,2 hPa 0,0 mm 15,8 km/h (3 Bft) W 270 0 min 5,8 C 25,3 km/h (4 Bft)
21.02.2016 09:20 9,8 C 9,1 C 76 % 1020,2 hPa 0,0 mm 15,8 km/h (3 Bft) W 270 0 min 5,8 C 25,3 km/h (4 Bft)
21.02.2016 09:21 9,8 C 9,3 C 76 % 1020,2 hPa 0,0 mm 14,9 km/h (3 Bft) W 270 0 min 5,8 C 10,1 km/h (2 Bft)
21.02.2016 09:22 9,8 C 9,2 C 76 % 1020,2 hPa 0,0 mm 14,9 km/h (3 Bft) W 270 0 min 5,8 C 10,1 km/h (2 Bft)
21.02.2016 09:23 9,8 C 9,4 C 76 % 1020,2 hPa 0,0 mm 14,3 km/h (3 Bft) W-NW 292 0 min 5,8 C 21,8 km/h (4 Bft)
21.02.2016 09:24 9,8 C 9,3 C 76 % 1020,2 hPa 0,0 mm 14,3 km/h (3 Bft) W-NW 292 0 min 5,8 C 21,8 km/h (4 Bft)
21.02.2016 09:25 9,9 C 9,4 C 76 % 1020,2 hPa 0,0 mm 13,1 km/h (3 Bft) SW 225 0 min 5,9 C 13,1 km/h (3 Bft)
21.02.2016 09:26 9,9 C 9,4 C 76 % 1020,2 hPa 0,0 mm 13,1 km/h (3 Bft) SW 225 0 min 5,9 C 13,1 km/h (3 Bft)
21.02.2016 09:27 9,9 C 9,4 C 76 % 1020,2 hPa 0,0 mm 13,7 km/h (3 Bft) N-NO 22 0 min 5,9 C 27,1 km/h (4 Bft)
21.02.2016 09:28 9,9 C 9,4 C 76 % 1020,2 hPa 0,0 mm 13,7 km/h (3 Bft) N-NO 22 0 min 5,9 C 27,1 km/h (4 Bft)
21.02.2016 09:29 9,9 C 9,5 C 76 % 1020,2 hPa 0,0 mm 13,4 km/h (3 Bft) W-SW 247 0 min 5,9 C 6,0 km/h (2 Bft)
21.02.2016 09:30 9,9 C 9,5 C 76 % 1020,2 hPa 0,0 mm 13,4 km/h (3 Bft) W-SW 247 0 min 5,9 C 6,0 km/h (2 Bft)
21.02.2016 09:31 9,9 C 9,5 C 76 % 1020,2 hPa 0,0 mm 12,8 km/h (3 Bft) W-NW 292 0 min 5,9 C 14,9 km/h (3 Bft)
21.02.2016 09:32 9,9 C 9,5 C 76 % 1020,2 hPa 0,0 mm 12,8 km/h (3 Bft) W-NW 292 0 min 5,9 C 14,9 km/h (3 Bft)
21.02.2016 09:33 9,9 C 9,5 C 76 % 1020,2 hPa 0,0 mm 12,5 km/h (3 Bft) W 270 0 min 5,9 C 9,2 km/h (2 Bft)
21.02.2016 09:34 9,9 C 9,5 C 76 % 1020,2 hPa 0,0 mm 12,5 km/h (3 Bft) W 270 0 min 5,9 C 9,2 km/h (2 Bft)
21.02.2016 09:35 9,9 C 9,5 C 75 % 1020,2 hPa 0,0 mm 12,2 km/h (2 Bft) W-SW 247 0 min 5,7 C 24,7 km/h (4 Bft)
21.02.2016 09:36 9,9 C 9,5 C 75 % 1020,2 hPa 0,0 mm 12,2 km/h (2 Bft) W-SW 247 0 min 5,7 C 24,7 km/h (4 Bft)
21.02.2016 09:37 10,0 C 9,6 C 74 % 1020,2 hPa 0,0 mm 12,8 km/h (3 Bft) W 270 0 min 5,6 C 18,5 km/h (3 Bft)
21.02.2016 09:38 10,0 C 9,6 C 74 % 1020,2 hPa 0,0 mm 12,8 km/h (3 Bft) W 270 0 min 5,6 C 18,5 km/h (3 Bft)
21.02.2016 09:39 10,0 C 9,5 C 74 % 1020,2 hPa 0,0 mm 12,5 km/h (3 Bft) W 270 0 min 5,6 C 22,7 km/h (4 Bft)
21.02.2016 09:40 10,0 C 9,5 C 74 % 1020,2 hPa 0,0 mm 12,5 km/h (3 Bft) W 270 0 min 5,6 C 22,7 km/h (4 Bft)
21.02.2016 09:41 10,1 C 9,6 C 74 % 1020,2 hPa 0,0 mm 14,6 km/h (3 Bft) W 270 0 min 5,7 C 25,3 km/h (4 Bft)
21.02.2016 09:42 10,1 C 9,5 C 74 % 1020,2 hPa 0,0 mm 14,6 km/h (3 Bft) W 270 0 min 5,7 C 25,3 km/h (4 Bft)
21.02.2016 09:43 10,1 C 9,5 C 74 % 1020,3 hPa 0,0 mm 16,4 km/h (3 Bft) W-NW 292 0 min 5,7 C 33,4 km/h (5 Bft)
21.02.2016 09:44 10,1 C 9,3 C 74 % 1020,3 hPa 0,0 mm 16,4 km/h (3 Bft) W-NW 292 0 min 5,7 C 33,4 km/h (5 Bft)
21.02.2016 09:45 10,1 C 9,4 C 73 % 1020,3 hPa 0,0 mm 17,3 km/h (3 Bft) W 270 0 min 5,5 C 19,1 km/h (3 Bft)
21.02.2016 09:46 10,1 C 9,3 C 73 % 1020,3 hPa 0,0 mm 17,3 km/h (3 Bft) W 270 0 min 5,5 C 19,1 km/h (3 Bft)
21.02.2016 09:47 10,1 C 9,4 C 74 % 1020,3 hPa 0,0 mm 17,3 km/h (3 Bft) W-SW 247 0 min 5,7 C 31,9 km/h (5 Bft)
21.02.2016 09:48 10,1 C 9,2 C 74 % 1020,3 hPa 0,0 mm 17,3 km/h (3 Bft) W-SW 247 0 min 5,7 C 31,9 km/h (5 Bft)
21.02.2016 09:49 10,1 C 9,3 C 74 % 1020,3 hPa 0,0 mm 17,3 km/h (3 Bft) N 360 0 min 5,7 C 21,8 km/h (4 Bft)
21.02.2016 09:50 10,1 C 9,2 C 74 % 1020,3 hPa 0,0 mm 17,3 km/h (3 Bft) N 360 0 min 5,7 C 21,8 km/h (4 Bft)
21.02.2016 09:51 10,1 C 9,3 C 74 % 1020,3 hPa 0,0 mm 15,8 km/h (3 Bft) W 270 0 min 5,7 C 14,0 km/h (3 Bft)
21.02.2016 09:52 10,1 C 9,2 C 74 % 1020,3 hPa 0,0 mm 15,8 km/h (3 Bft) W 270 0 min 5,7 C 14,0 km/h (3 Bft)
21.02.2016 09:53 10,1 C 9,2 C 73 % 1020,3 hPa 0,0 mm 15,5 km/h (3 Bft) W-SW 247 0 min 5,5 C 23,2 km/h (4 Bft)
21.02.2016 09:54 10,1 C 9,2 C 73 % 1020,3 hPa 0,0 mm 15,5 km/h (3 Bft) W-SW 247 0 min 5,5 C 23,2 km/h (4 Bft)
21.02.2016 09:55 10,2 C 9,3 C 73 % 1020,3 hPa 0,0 mm 14,0 km/h (3 Bft) W 270 0 min 5,6 C 16,1 km/h (3 Bft)
21.02.2016 09:56 10,2 C 9,3 C 73 % 1020,3 hPa 0,0 mm 14,0 km/h (3 Bft) W 270 0 min 5,6 C 16,1 km/h (3 Bft)
21.02.2016 09:57 10,3 C 9,4 C 73 % 1020,3 hPa 0,0 mm 16,1 km/h (3 Bft) W-NW 292 0 min 5,7 C 24,7 km/h (4 Bft)
21.02.2016 09:58 10,3 C 9,4 C 73 % 1020,3 hPa 0,0 mm 16,1 km/h (3 Bft) W-NW 292 0 min 5,7 C 24,7 km/h (4 Bft)
21.02.2016 09:59 10,3 C 9,6 C 73 % 1020,3 hPa 0,7 mm 15,5 km/h (3 Bft) S 180 0 min 5,7 C 9,8 km/h (2 Bft)
21.02.2016 10:00 10,3 C 9,5 C 73 % 1020,3 hPa 0,0 mm 15,5 km/h (3 Bft) S 180 0 min 5,7 C 9,8 km/h (2 Bft)
21.02.2016 10:01 10,2 C 9,6 C 73 % 1020,3 hPa 0,0 mm 14,6 km/h (3 Bft) W-SW 247 0 min 5,6 C 20,0 km/h (4 Bft)
21.02.2016 10:02 10,2 C 9,5 C 73 % 1020,3 hPa 0,0 mm 14,6 km/h (3 Bft) W-SW 247 0 min 5,6 C 20,0 km/h (4 Bft)
21.02.2016 10:03 10,2 C 9,6 C 73 % 1020,6 hPa 0,0 mm 13,7 km/h (3 Bft) NW 315 0 min 5,6 C 9,5 km/h (2 Bft)
21.02.2016 10:04 10,2 C 9,6 C 73 % 1020,6 hPa 0,0 mm 13,7 km/h (3 Bft) NW 315 0 min 5,6 C 9,5 km/h (2 Bft)
21.02.2016 10:05 10,3 C 9,6 C 73 % 1020,6 hPa 0,0 mm 14,9 km/h (3 Bft) W 270 0 min 5,7 C 31,3 km/h (5 Bft)
21.02.2016 10:06 10,3 C 9,6 C 73 % 1020,6 hPa 0,0 mm 14,9 km/h (3 Bft) W 270 0 min 5,7 C 31,3 km/h (5 Bft)
21.02.2016 10:07 10,3 C 9,7 C 72 % 1020,6 hPa 0,0 mm 14,0 km/h (3 Bft) W-NW 292 0 min 5,5 C 17,9 km/h (3 Bft)
21.02.2016 10:08 10,3 C 9,7 C 72 % 1020,6 hPa 0,0 mm 14,0 km/h (3 Bft) W-NW 292 0 min 5,5 C 17,9 km/h (3 Bft)
21.02.2016 10:09 10,2 C 9,8 C 72 % 1020,6 hPa 0,0 mm 11,9 km/h (2 Bft) SW 225 0 min 5,4 C 4,2 km/h (1 Bft)
21.02.2016 10:10 10,2 C 9,8 C 72 % 1020,6 hPa 0,0 mm 11,9 km/h (2 Bft) SW 225 0 min 5,4 C 4,2 km/h (1 Bft)
21.02.2016 10:11 10,2 C 9,7 C 73 % 1020,6 hPa 0,0 mm 12,8 km/h (3 Bft) W-SW 247 0 min 5,6 C 14,3 km/h (3 Bft)
21.02.2016 10:12 10,2 C 9,7 C 73 % 1020,6 hPa 0,0 mm 12,8 km/h (3 Bft) W-SW 247 0 min 5,6 C 14,3 km/h (3 Bft)
21.02.2016 10:13 10,2 C 9,7 C 73 % 1020,6 hPa 0,0 mm 13,4 km/h (3 Bft) W-SW 247 0 min 5,6 C 19,4 km/h (3 Bft)
21.02.2016 10:14 10,2 C 9,7 C 73 % 1020,6 hPa 0,0 mm 13,4 km/h (3 Bft) W-SW 247 0 min 5,6 C 19,4 km/h (3 Bft)
21.02.2016 10:15 10,2 C 9,7 C 73 % 1020,6 hPa 0,0 mm 13,4 km/h (3 Bft) W 270 0 min 5,6 C 11,0 km/h (2 Bft)
21.02.2016 10:16 10,2 C 9,7 C 73 % 1020,6 hPa 0,0 mm 13,4 km/h (3 Bft) W 270 0 min 5,6 C 11,0 km/h (2 Bft)
21.02.2016 10:17 10,2 C 9,7 C 72 % 1020,6 hPa 0,0 mm 13,1 km/h (3 Bft) NW 315 0 min 5,4 C 16,4 km/h (3 Bft)
21.02.2016 10:18 10,2 C 9,7 C 72 % 1020,6 hPa 0,0 mm 13,1 km/h (3 Bft) NW 315 0 min 5,4 C 16,4 km/h (3 Bft)
21.02.2016 10:19 10,2 C 9,7 C 72 % 1020,6 hPa 0,0 mm 13,7 km/h (3 Bft) W 270 0 min 5,4 C 30,4 km/h (5 Bft)
21.02.2016 10:20 10,2 C 9,7 C 72 % 1020,6 hPa 0,0 mm 13,7 km/h (3 Bft) W 270 0 min 5,4 C 30,4 km/h (5 Bft)
21.02.2016 10:21 10,3 C 9,8 C 72 % 1020,6 hPa 0,0 mm 15,8 km/h (3 Bft) NW 315 0 min 5,5 C 31,6 km/h (5 Bft)
21.02.2016 10:22 10,3 C 9,8 C 72 % 1020,6 hPa 0,0 mm 15,8 km/h (3 Bft) NW 315 0 min 5,5 C 31,6 km/h (5 Bft)
21.02.2016 10:23 10,3 C 9,9 C 72 % 1021,0 hPa 0,0 mm 17,0 km/h (3 Bft) W-SW 247 0 min 5,5 C 43,8 km/h (6 Bft)
21.02.2016 10:24 10,3 C 9,8 C 72 % 1021,0 hPa 0,0 mm 17,0 km/h (3 Bft) W-SW 247 0 min 5,5 C 43,8 km/h (6 Bft)
21.02.2016 10:25 10,3 C 9,8 C 73 % 1021,0 hPa 0,0 mm 17,0 km/h (3 Bft) NW 315 0 min 5,7 C 13,7 km/h (3 Bft)
21.02.2016 10:26 10,3 C 9,8 C 73 % 1021,0 hPa 0,0 mm 17,0 km/h (3 Bft) NW 315 0 min 5,7 C 13,7 km/h (3 Bft)
21.02.2016 10:27 10,3 C 9,8 C 73 % 1021,0 hPa 0,0 mm 17,0 km/h (3 Bft) NW 315 0 min 5,7 C 32,5 km/h (5 Bft)
21.02.2016 10:28 10,3 C 9,8 C 73 % 1021,0 hPa 0,0 mm 17,0 km/h (3 Bft) NW 315 0 min 5,7 C 32,5 km/h (5 Bft)
21.02.2016 10:29 10,3 C 9,8 C 73 % 1021,0 hPa 0,0 mm 16,1 km/h (3 Bft) N-NW 337 0 min 5,7 C 12,2 km/h (2 Bft)
21.02.2016 10:30 10,3 C 9,8 C 73 % 1021,0 hPa 0,0 mm 16,1 km/h (3 Bft) N-NW 337 0 min 5,7 C 12,2 km/h (2 Bft)
21.02.2016 10:31 10,3 C 9,9 C 74 % 1021,0 hPa 0,0 mm 16,1 km/h (3 Bft) NW 315 0 min 5,9 C 15,2 km/h (3 Bft)
21.02.2016 10:32 10,3 C 9,7 C 74 % 1021,0 hPa 0,0 mm 16,1 km/h (3 Bft) NW 315 0 min 5,9 C 15,2 km/h (3 Bft)
21.02.2016 10:33 10,3 C 9,9 C 73 % 1021,0 hPa 0,0 mm 14,9 km/h (3 Bft) N-NW 337 0 min 5,7 C 11,9 km/h (2 Bft)
21.02.2016 10:34 10,3 C 9,8 C 73 % 1021,0 hPa 0,0 mm 14,9 km/h (3 Bft) N-NW 337 0 min 5,7 C 11,9 km/h (2 Bft)
21.02.2016 10:35 10,3 C 10,0 C 73 % 1021,0 hPa 0,0 mm 15,5 km/h (3 Bft) W-NW 292 0 min 5,7 C 34,6 km/h (5 Bft)
21.02.2016 10:36 10,3 C 9,9 C 73 % 1021,0 hPa 0,0 mm 15,5 km/h (3 Bft) W-NW 292 0 min 5,7 C 34,6 km/h (5 Bft)
21.02.2016 10:37 10,4 C 10,0 C 73 % 1021,0 hPa 0,0 mm 18,2 km/h (3 Bft) NW 315 0 min 5,8 C 36,7 km/h (5 Bft)
21.02.2016 10:38 10,4 C 9,9 C 73 % 1021,0 hPa 0,0 mm 18,2 km/h (3 Bft) NW 315 0 min 5,8 C 36,7 km/h (5 Bft)
21.02.2016 10:39 10,4 C 10,0 C 74 % 1021,0 hPa 0,0 mm 18,2 km/h (3 Bft) N-NW 337 0 min 6,0 C 23,8 km/h (4 Bft)
21.02.2016 10:40 10,4 C 9,8 C 74 % 1021,0 hPa 0,0 mm 18,2 km/h (3 Bft) N-NW 337 0 min 6,0 C 23,8 km/h (4 Bft)
21.02.2016 10:41 10,4 C 10,0 C 74 % 1021,0 hPa 0,0 mm 18,2 km/h (3 Bft) W 270 0 min 6,0 C 13,1 km/h (3 Bft)
21.02.2016 10:42 10,4 C 9,9 C 74 % 1021,0 hPa 0,0 mm 18,2 km/h (3 Bft) W 270 0 min 6,0 C 13,1 km/h (3 Bft)
21.02.2016 10:43 10,4 C 10,0 C 74 % 1021,1 hPa 0,0 mm 19,1 km/h (3 Bft) W-NW 292 0 min 6,0 C 44,4 km/h (6 Bft)
21.02.2016 10:44 10,4 C 9,8 C 74 % 1021,1 hPa 0,0 mm 19,1 km/h (3 Bft) W-NW 292 0 min 6,0 C 44,4 km/h (6 Bft)
21.02.2016 10:45 10,4 C 9,8 C 74 % 1021,1 hPa 0,0 mm 19,7 km/h (3 Bft) W 270 0 min 6,0 C 25,0 km/h (4 Bft)
21.02.2016 10:46 10,4 C 9,7 C 74 % 1021,1 hPa 0,0 mm 19,7 km/h (3 Bft) W 270 0 min 6,0 C 25,0 km/h (4 Bft)
21.02.2016 10:47 10,3 C 9,9 C 74 % 1021,1 hPa 0,0 mm 18,8 km/h (3 Bft) W-SW 247 0 min 5,9 C 14,0 km/h (3 Bft)
21.02.2016 10:48 10,3 C 9,8 C 74 % 1021,1 hPa 0,0 mm 18,8 km/h (3 Bft) W-SW 247 0 min 5,9 C 14,0 km/h (3 Bft)
21.02.2016 10:49 10,4 C 10,0 C 74 % 1021,1 hPa 0,0 mm 17,6 km/h (3 Bft) W-NW 292 0 min 6,0 C 31,9 km/h (5 Bft)
21.02.2016 10:50 10,4 C 9,9 C 74 % 1021,1 hPa 0,0 mm 17,6 km/h (3 Bft) W-NW 292 0 min 6,0 C 31,9 km/h (5 Bft)
21.02.2016 10:51 10,3 C 10,0 C 74 % 1021,1 hPa 0,0 mm 18,5 km/h (3 Bft) NW 315 0 min 5,9 C 17,0 km/h (3 Bft)
21.02.2016 10:52 10,3 C 9,8 C 74 % 1021,1 hPa 0,0 mm 18,5 km/h (3 Bft) NW 315 0 min 5,9 C 17,0 km/h (3 Bft)
21.02.2016 10:53 10,3 C 10,0 C 74 % 1021,1 hPa 0,0 mm 17,3 km/h (3 Bft) NW 315 0 min 5,9 C 12,5 km/h (3 Bft)
21.02.2016 10:54 10,3 C 9,9 C 74 % 1021,1 hPa 0,0 mm 17,3 km/h (3 Bft) NW 315 0 min 5,9 C 12,5 km/h (3 Bft)
21.02.2016 10:55 10,3 C 10,2 C 75 % 1021,1 hPa 0,0 mm 16,1 km/h (3 Bft) W-SW 247 0 min 6,1 C 24,7 km/h (4 Bft)
21.02.2016 10:56 10,3 C 10,1 C 75 % 1021,1 hPa 0,0 mm 16,1 km/h (3 Bft) W-SW 247 0 min 6,1 C 24,7 km/h (4 Bft)
21.02.2016 10:57 10,3 C 10,3 C 75 % 1021,1 hPa 0,0 mm 15,2 km/h (3 Bft) W 270 0 min 6,1 C 16,7 km/h (3 Bft)
21.02.2016 10:58 10,3 C 10,2 C 75 % 1021,1 hPa 0,0 mm 15,2 km/h (3 Bft) W 270 0 min 6,1 C 16,7 km/h (3 Bft)
21.02.2016 10:59 10,3 C 10,3 C 75 % 1021,1 hPa 0,0 mm 15,2 km/h (3 Bft) SW 225 0 min 6,1 C 20,0 km/h (4 Bft)
21.02.2016 11:00 10,3 C 10,3 C 75 % 1021,1 hPa 0,0 mm 15,2 km/h (3 Bft) SW 225 0 min 6,1 C 20,0 km/h (4 Bft)
21.02.2016 11:01 10,4 C 10,5 C 75 % 1021,1 hPa 0,0 mm 13,4 km/h (3 Bft) S-SW 202 0 min 6,2 C 29,8 km/h (5 Bft)
21.02.2016 11:02 10,4 C 10,5 C 75 % 1021,1 hPa 0,0 mm 13,4 km/h (3 Bft) S-SW 202 0 min 6,2 C 29,8 km/h (5 Bft)
21.02.2016 11:03 10,4 C 10,4 C 75 % 1021,2 hPa 0,0 mm 13,4 km/h (3 Bft) W 270 0 min 6,2 C 16,7 km/h (3 Bft)
21.02.2016 11:04 10,4 C 10,4 C 75 % 1021,2 hPa 0,0 mm 13,4 km/h (3 Bft) W 270 0 min 6,2 C 16,7 km/h (3 Bft)
21.02.2016 11:05 10,4 C 10,5 C 75 % 1021,2 hPa 0,0 mm 14,0 km/h (3 Bft) W 270 0 min 6,2 C 17,6 km/h (3 Bft)
21.02.2016 11:06 10,4 C 10,5 C 75 % 1021,2 hPa 0,0 mm 14,0 km/h (3 Bft) W 270 0 min 6,2 C 17,6 km/h (3 Bft)
21.02.2016 11:07 10,4 C 10,5 C 75 % 1021,2 hPa 0,0 mm 14,0 km/h (3 Bft) W-SW 247 0 min 6,2 C 23,2 km/h (4 Bft)
21.02.2016 11:08 10,4 C 10,5 C 75 % 1021,2 hPa 0,0 mm 14,0 km/h (3 Bft) W-SW 247 0 min 6,2 C 23,2 km/h (4 Bft)
21.02.2016 11:09 10,4 C 10,7 C 75 % 1021,2 hPa 0,0 mm 13,7 km/h (3 Bft) W 270 0 min 6,2 C 11,3 km/h (2 Bft)
21.02.2016 11:10 10,4 C 10,7 C 75 % 1021,2 hPa 0,0 mm 13,7 km/h (3 Bft) W 270 0 min 6,2 C 11,3 km/h (2 Bft)
21.02.2016 11:11 10,5 C 10,9 C 75 % 1021,2 hPa 0,0 mm 13,7 km/h (3 Bft) W-NW 292 0 min 6,3 C 12,2 km/h (2 Bft)
21.02.2016 11:12 10,5 C 10,9 C 75 % 1021,2 hPa 0,0 mm 13,7 km/h (3 Bft) W-NW 292 0 min 6,3 C 12,2 km/h (2 Bft)
21.02.2016 11:13 10,6 C 11,2 C 76 % 1021,2 hPa 0,0 mm 13,1 km/h (3 Bft) W 270 0 min 6,5 C 16,7 km/h (3 Bft)
21.02.2016 11:14 10,6 C 11,2 C 76 % 1021,2 hPa 0,0 mm 13,1 km/h (3 Bft) W 270 0 min 6,5 C 16,7 km/h (3 Bft)
21.02.2016 11:15 10,8 C 11,7 C 76 % 1021,2 hPa 0,0 mm 12,8 km/h (3 Bft) SW 225 0 min 6,7 C 19,4 km/h (3 Bft)
21.02.2016 11:16 10,8 C 11,7 C 76 % 1021,2 hPa 0,0 mm 12,8 km/h (3 Bft) SW 225 0 min 6,7 C 19,4 km/h (3 Bft)
21.02.2016 11:17 10,8 C 12,2 C 76 % 1021,2 hPa 0,0 mm 11,9 km/h (2 Bft) W-SW 247 0 min 6,7 C 14,3 km/h (3 Bft)
21.02.2016 11:18 10,8 C 12,2 C 76 % 1021,2 hPa 0,0 mm 11,9 km/h (2 Bft) W-SW 247 0 min 6,7 C 14,3 km/h (3 Bft)
21.02.2016 11:19 11,0 C 12,7 C 75 % 1021,2 hPa 0,0 mm 11,3 km/h (2 Bft) NW 315 0 min 6,7 C 23,8 km/h (4 Bft)
21.02.2016 11:20 11,0 C 12,7 C 75 % 1021,2 hPa 0,0 mm 11,3 km/h (2 Bft) NW 315 0 min 6,7 C 23,8 km/h (4 Bft)
21.02.2016 11:21 11,1 C 13,3 C 75 % 1021,2 hPa 0,0 mm 11,3 km/h (2 Bft) W-SW 247 0 min 6,8 C 20,9 km/h (4 Bft)
21.02.2016 11:22 11,1 C 13,3 C 75 % 1021,2 hPa 0,0 mm 11,3 km/h (2 Bft) W-SW 247 0 min 6,8 C 20,9 km/h (4 Bft)
21.02.2016 11:23 11,1 C 13,5 C 75 % 1020,9 hPa 0,0 mm 11,9 km/h (2 Bft) W-SW 247 1 min 6,8 C 17,3 km/h (3 Bft)
21.02.2016 11:24 11,1 C 13,5 C 75 % 1020,9 hPa 0,0 mm 11,9 km/h (2 Bft) W-SW 247 1 min 6,8 C 17,3 km/h (3 Bft)
21.02.2016 11:25 11,1 C 13,3 C 75 % 1020,9 hPa 0,0 mm 12,8 km/h (3 Bft) SW 225 1 min 6,8 C 30,7 km/h (5 Bft)
21.02.2016 11:26 11,1 C 13,3 C 75 % 1020,9 hPa 0,0 mm 12,8 km/h (3 Bft) SW 225 1 min 6,8 C 30,7 km/h (5 Bft)
21.02.2016 11:27 11,0 C 12,9 C 75 % 1020,9 hPa 0,0 mm 14,0 km/h (3 Bft) W-SW 247 0 min 6,7 C 19,1 km/h (3 Bft)
21.02.2016 11:28 11,0 C 12,9 C 75 % 1020,9 hPa 0,0 mm 14,0 km/h (3 Bft) W-SW 247 0 min 6,7 C 19,1 km/h (3 Bft)
21.02.2016 11:29 11,0 C 12,9 C 75 % 1020,9 hPa 0,0 mm 14,6 km/h (3 Bft) W 270 0 min 6,7 C 16,1 km/h (3 Bft)
21.02.2016 11:30 11,0 C 12,7 C 75 % 1020,9 hPa 0,0 mm 14,6 km/h (3 Bft) W 270 0 min 6,7 C 16,1 km/h (3 Bft)
21.02.2016 11:32 11,0 C 12,6 C 74 % 1020,9 hPa 0,0 mm 14,9 km/h (3 Bft) W-SW 247 0 min 6,5 C 16,1 km/h (3 Bft)
21.02.2016 11:34 11,0 C 12,3 C 74 % 1020,9 hPa 0,0 mm 14,9 km/h (3 Bft) W-SW 247 0 min 6,5 C 16,1 km/h (3 Bft)
21.02.2016 11:35 11,1 C 12,3 C 74 % 1020,9 hPa 0,0 mm 14,3 km/h (3 Bft) W-NW 292 0 min 6,6 C 16,4 km/h (3 Bft)
21.02.2016 11:36 11,1 C 12,3 C 74 % 1020,9 hPa 0,0 mm 14,3 km/h (3 Bft) W-NW 292 0 min 6,6 C 16,4 km/h (3 Bft)
21.02.2016 11:37 11,1 C 12,7 C 74 % 1020,9 hPa 0,0 mm 13,4 km/h (3 Bft) SW 225 0 min 6,6 C 21,2 km/h (4 Bft)
21.02.2016 11:38 11,1 C 12,7 C 74 % 1020,9 hPa 0,0 mm 13,4 km/h (3 Bft) SW 225 0 min 6,6 C 21,2 km/h (4 Bft)
21.02.2016 11:39 11,3 C 13,0 C 74 % 1020,9 hPa 0,0 mm 12,5 km/h (3 Bft) W 270 0 min 6,8 C 18,8 km/h (3 Bft)
21.02.2016 11:40 11,3 C 13,0 C 74 % 1020,9 hPa 0,0 mm 12,5 km/h (3 Bft) W 270 0 min 6,8 C 18,8 km/h (3 Bft)
21.02.2016 11:41 11,3 C 13,2 C 73 % 1020,9 hPa 0,0 mm 12,8 km/h (3 Bft) NW 315 0 min 6,6 C 18,5 km/h (3 Bft)
21.02.2016 11:42 11,3 C 13,2 C 73 % 1020,9 hPa 0,0 mm 12,8 km/h (3 Bft) NW 315 0 min 6,6 C 18,5 km/h (3 Bft)
21.02.2016 11:43 11,6 C 13,6 C 73 % 1020,8 hPa 0,0 mm 11,9 km/h (2 Bft) W 270 0 min 6,9 C 14,3 km/h (3 Bft)
21.02.2016 11:44 11,6 C 13,6 C 73 % 1020,8 hPa 0,0 mm 11,9 km/h (2 Bft) W 270 0 min 6,9 C 14,3 km/h (3 Bft)
21.02.2016 11:45 11,9 C 14,4 C 73 % 1020,8 hPa 0,0 mm 11,9 km/h (2 Bft) W-NW 292 0 min 7,2 C 14,0 km/h (3 Bft)
21.02.2016 11:46 11,9 C 14,4 C 73 % 1020,8 hPa 0,0 mm 11,9 km/h (2 Bft) W-NW 292 0 min 7,2 C 14,0 km/h (3 Bft)
21.02.2016 11:47 12,0 C 14,7 C 73 % 1020,8 hPa 0,0 mm 12,2 km/h (2 Bft) W-NW 292 1 min 7,3 C 17,6 km/h (3 Bft)
21.02.2016 11:48 12,0 C 14,7 C 73 % 1020,8 hPa 0,0 mm 12,2 km/h (2 Bft) W-NW 292 1 min 7,3 C 17,6 km/h (3 Bft)
21.02.2016 11:49 11,9 C 14,6 C 72 % 1020,8 hPa 0,0 mm 11,6 km/h (2 Bft) NW 315 1 min 7,0 C 10,4 km/h (2 Bft)
21.02.2016 11:50 11,9 C 14,6 C 72 % 1020,8 hPa 0,0 mm 11,6 km/h (2 Bft) NW 315 1 min 7,0 C 10,4 km/h (2 Bft)
21.02.2016 11:51 11,8 C 14,6 C 72 % 1020,8 hPa 0,0 mm 12,2 km/h (2 Bft) W-SW 247 1 min 6,9 C 22,4 km/h (4 Bft)
21.02.2016 11:52 11,8 C 14,6 C 72 % 1020,8 hPa 0,0 mm 12,2 km/h (2 Bft) W-SW 247 1 min 6,9 C 22,4 km/h (4 Bft)
21.02.2016 11:53 11,8 C 14,3 C 71 % 1020,8 hPa 0,0 mm 12,8 km/h (3 Bft) W 270 1 min 6,7 C 21,2 km/h (4 Bft)
21.02.2016 11:54 11,8 C 14,3 C 71 % 1020,8 hPa 0,0 mm 12,8 km/h (3 Bft) W 270 1 min 6,7 C 21,2 km/h (4 Bft)
21.02.2016 11:55 11,7 C 13,9 C 71 % 1020,8 hPa 0,0 mm 13,4 km/h (3 Bft) W-SW 247 1 min 6,6 C 26,5 km/h (4 Bft)
21.02.2016 11:56 11,7 C 13,9 C 71 % 1020,8 hPa 0,0 mm 13,4 km/h (3 Bft) W-SW 247 1 min 6,6 C 26,5 km/h (4 Bft)
21.02.2016 11:57 11,7 C 13,9 C 70 % 1020,8 hPa 0,0 mm 14,3 km/h (3 Bft) W-SW 247 1 min 6,4 C 19,4 km/h (3 Bft)
21.02.2016 11:58 11,7 C 13,7 C 70 % 1020,8 hPa 0,0 mm 14,3 km/h (3 Bft) W-SW 247 0 min 6,4 C 19,4 km/h (3 Bft)
21.02.2016 11:59 11,8 C 13,7 C 70 % 1020,8 hPa 0,0 mm 13,7 km/h (3 Bft) W-SW 247 0 min 6,5 C 20,0 km/h (4 Bft)
21.02.2016 12:00 11,8 C 13,7 C 70 % 1020,8 hPa 0,0 mm 13,7 km/h (3 Bft) W-SW 247 0 min 6,5 C 20,0 km/h (4 Bft)
21.02.2016 12:01 11,8 C 13,7 C 70 % 1020,8 hPa 0,0 mm 14,9 km/h (3 Bft) W 270 0 min 6,5 C 24,4 km/h (4 Bft)
21.02.2016 12:02 11,8 C 13,6 C 70 % 1020,8 hPa 0,0 mm 14,9 km/h (3 Bft) W 270 0 min 6,5 C 24,4 km/h (4 Bft)
21.02.2016 12:03 11,8 C 13,6 C 70 % 1020,8 hPa 0,0 mm 14,9 km/h (3 Bft) W 270 0 min 6,5 C 24,4 km/h (4 Bft)
21.02.2016 12:04 11,8 C 13,6 C 70 % 1020,8 hPa 0,0 mm 14,9 km/h (3 Bft) W 270 0 min 6,5 C 24,4 km/h (4 Bft)
21.02.2016 12:05 12,0 C 13,6 C 69 % 1020,8 hPa 0,0 mm 14,9 km/h (3 Bft) W 270 0 min 6,5 C 19,1 km/h (3 Bft)
21.02.2016 12:06 12,0 C 13,6 C 69 % 1020,8 hPa 0,0 mm 14,9 km/h (3 Bft) W 270 0 min 6,5 C 19,1 km/h (3 Bft)
21.02.2016 12:07 12,1 C 13,6 C 68 % 1020,8 hPa 0,0 mm 15,8 km/h (3 Bft) NW 315 0 min 6,4 C 19,7 km/h (3 Bft)
21.02.2016 12:08 12,1 C 13,6 C 68 % 1020,8 hPa 0,0 mm 15,8 km/h (3 Bft) NW 315 0 min 6,4 C 19,7 km/h (3 Bft)
21.02.2016 12:09 12,2 C 13,8 C 68 % 1020,8 hPa 0,0 mm 15,8 km/h (3 Bft) W 270 0 min 6,5 C 9,2 km/h (2 Bft)
21.02.2016 12:10 12,2 C 13,7 C 68 % 1020,8 hPa 0,0 mm 15,8 km/h (3 Bft) W 270 0 min 6,5 C 9,2 km/h (2 Bft)
21.02.2016 12:11 12,3 C 13,9 C 68 % 1020,8 hPa 0,0 mm 17,6 km/h (3 Bft) W 270 0 min 6,6 C 22,1 km/h (4 Bft)
21.02.2016 12:12 12,3 C 13,8 C 68 % 1020,8 hPa 0,0 mm 17,6 km/h (3 Bft) W 270 0 min 6,6 C 22,1 km/h (4 Bft)
21.02.2016 12:13 12,4 C 14,0 C 67 % 1020,8 hPa 0,0 mm 18,2 km/h (3 Bft) W-NW 292 0 min 6,4 C 32,2 km/h (5 Bft)
21.02.2016 12:14 12,4 C 13,9 C 67 % 1020,8 hPa 0,0 mm 18,2 km/h (3 Bft) W-NW 292 0 min 6,4 C 32,2 km/h (5 Bft)
21.02.2016 12:15 12,5 C 13,9 C 66 % 1020,8 hPa 0,0 mm 20,0 km/h (4 Bft) W 270 0 min 6,3 C 27,4 km/h (4 Bft)
21.02.2016 12:16 12,5 C 13,9 C 66 % 1020,8 hPa 0,0 mm 20,0 km/h (4 Bft) W 270 0 min 6,3 C 27,4 km/h (4 Bft)
21.02.2016 12:17 12,6 C 14,2 C 66 % 1020,8 hPa 0,0 mm 21,2 km/h (4 Bft) W 270 0 min 6,4 C 48,3 km/h (6 Bft)
21.02.2016 12:18 12,6 C 14,1 C 66 % 1020,8 hPa 0,0 mm 21,2 km/h (4 Bft) W 270 0 min 6,4 C 48,3 km/h (6 Bft)
21.02.2016 12:19 12,8 C 14,5 C 65 % 1020,8 hPa 0,0 mm 22,9 km/h (4 Bft) NW 315 0 min 6,4 C 54,8 km/h (7 Bft)
21.02.2016 12:21 12,9 C 12,3 C 64 % 1020,8 hPa 0,0 mm 24,1 km/h (4 Bft) W 270 0 min 6,3 C 30,1 km/h (5 Bft)
21.02.2016 12:24 13,0 C 15,1 C 62 % 1020,7 hPa 0,0 mm 24,1 km/h (4 Bft) W-SW 247 3 min 5,9 C 22,4 km/h (4 Bft)
21.02.2016 12:25 13,1 C 15,3 C 62 % 1020,7 hPa 0,0 mm 23,8 km/h (4 Bft) W 270 1 min 6,0 C 27,1 km/h (4 Bft)
21.02.2016 12:26 13,1 C 15,2 C 62 % 1020,7 hPa 0,0 mm 23,8 km/h (4 Bft) W 270 1 min 6,0 C 27,1 km/h (4 Bft)
21.02.2016 12:28 13,1 C 12,4 C 62 % 1020,7 hPa 0,0 mm 23,8 km/h (4 Bft) W-SW 247 0 min 6,0 C 29,2 km/h (5 Bft)
21.02.2016 12:31 12,8 C 15,0 C 62 % 1020,7 hPa 0,0 mm 22,1 km/h (4 Bft) W 270 3 min 5,7 C 28,9 km/h (5 Bft)
21.02.2016 12:32 12,8 C 14,6 C 62 % 1020,7 hPa 0,0 mm 22,1 km/h (4 Bft) W 270 0 min 5,7 C 28,9 km/h (5 Bft)
21.02.2016 12:33 12,8 C 14,5 C 61 % 1020,7 hPa 0,0 mm 23,2 km/h (4 Bft) W 270 0 min 5,5 C 42,6 km/h (6 Bft)
21.02.2016 12:34 12,7 C 11,8 C 61 % 1020,7 hPa 0,0 mm 24,1 km/h (4 Bft) W-SW 247 0 min 5,4 C 22,1 km/h (4 Bft)
21.02.2016 12:39 12,7 C 11,7 C 62 % 1020,7 hPa 0,0 mm 21,8 km/h (4 Bft) SW 225 0 min 5,6 C 45,0 km/h (6 Bft)
21.02.2016 12:44 12,7 C 13,5 C 61 % 1020,6 hPa 0,0 mm 22,1 km/h (4 Bft) W-NW 292 0 min 5,4 C 26,5 km/h (4 Bft)
21.02.2016 12:49 12,7 C 13,3 C 61 % 1020,6 hPa 0,0 mm 23,2 km/h (4 Bft) W 270 0 min 5,4 C 25,9 km/h (4 Bft)
21.02.2016 12:54 12,7 C 13,2 C 59 % 1020,6 hPa 0,0 mm 25,6 km/h (4 Bft) W-SW 247 0 min 4,9 C 34,3 km/h (5 Bft)
21.02.2016 12:59 12,8 C 13,1 C 59 % 1020,6 hPa 0,0 mm 27,4 km/h (4 Bft) W 270 0 min 5,0 C 38,1 km/h (5 Bft)
21.02.2016 13:04 13,1 C 13,5 C 58 % 1020,3 hPa 0,0 mm 26,8 km/h (4 Bft) W-NW 292 0 min 5,0 C 26,2 km/h (4 Bft)
21.02.2016 13:09 13,5 C 14,1 C 58 % 1020,3 hPa 0,0 mm 26,2 km/h (4 Bft) W-SW 247 0 min 5,4 C 29,2 km/h (5 Bft)
21.02.2016 13:14 13,7 C 14,8 C 58 % 1020,3 hPa 0,0 mm 25,0 km/h (4 Bft) W 270 0 min 5,6 C 37,6 km/h (5 Bft)
21.02.2016 13:19 13,8 C 15,2 C 58 % 1020,3 hPa 0,0 mm 23,5 km/h (4 Bft) W-NW 292 0 min 5,7 C 29,8 km/h (5 Bft)
21.02.2016 13:24 14,3 C 15,9 C 58 % 1020,1 hPa 0,0 mm 25,9 km/h (4 Bft) W 270 0 min 6,2 C 25,0 km/h (4 Bft)
21.02.2016 13:29 14,6 C 16,7 C 57 % 1020,1 hPa 0,0 mm 27,4 km/h (4 Bft) W-SW 247 5 min 6,2 C 50,7 km/h (7 Bft)
21.02.2016 13:34 15,0 C 17,4 C 57 % 1020,1 hPa 0,0 mm 23,5 km/h (4 Bft) NW 315 5 min 6,6 C 28,6 km/h (4 Bft)
21.02.2016 13:39 15,0 C 17,7 C 56 % 1020,1 hPa 0,0 mm 24,1 km/h (4 Bft) W-NW 292 5 min 6,3 C 36,4 km/h (5 Bft)
21.02.2016 13:44 14,9 C 17,5 C 56 % 1020,3 hPa 0,0 mm 26,5 km/h (4 Bft) W 270 5 min 6,2 C 24,7 km/h (4 Bft)
21.02.2016 13:49 15,0 C 17,3 C 55 % 1020,3 hPa 0,0 mm 25,9 km/h (4 Bft) NW 315 5 min 6,0 C 23,5 km/h (4 Bft)
21.02.2016 13:54 14,9 C 17,3 C 55 % 1020,3 hPa 0,0 mm 22,9 km/h (4 Bft) NW 315 5 min 5,9 C 27,7 km/h (4 Bft)
21.02.2016 13:59 14,7 C 17,1 C 55 % 1020,3 hPa 0,0 mm 25,3 km/h (4 Bft) W 270 5 min 5,8 C 48,9 km/h (6 Bft)
21.02.2016 14:04 14,6 C 16,7 C 56 % 1020,4 hPa 0,0 mm 26,5 km/h (4 Bft) NW 315 5 min 5,9 C 28,9 km/h (5 Bft)
21.02.2016 14:09 14,6 C 16,4 C 55 % 1020,4 hPa 0,0 mm 25,9 km/h (4 Bft) W-SW 247 0 min 5,7 C 31,6 km/h (5 Bft)
21.02.2016 14:11 14,6 C 16,6 C 55 % 1020,4 hPa 0,0 mm 23,5 km/h (4 Bft) NW 315 2 min 5,7 C 26,5 km/h (4 Bft)
21.02.2016 14:12 14,6 C 16,6 C 55 % 1020,4 hPa 0,0 mm 23,5 km/h (4 Bft) NW 315 1 min 5,7 C 26,5 km/h (4 Bft)
21.02.2016 14:17 14,4 C 13,2 C 55 % 1020,4 hPa 0,0 mm 26,8 km/h (4 Bft) N-NO 22 0 min 5,5 C 28,3 km/h (4 Bft)
21.02.2016 14:19 14,3 C 16,0 C 55 % 1020,4 hPa 0,0 mm 27,7 km/h (4 Bft) NW 315 0 min 5,4 C 26,2 km/h (4 Bft)
21.02.2016 14:20 14,3 C 15,8 C 55 % 1020,4 hPa 0,0 mm 27,7 km/h (4 Bft) NW 315 0 min 5,4 C 26,2 km/h (4 Bft)
21.02.2016 14:21 14,3 C 15,8 C 56 % 1020,4 hPa 0,0 mm 27,4 km/h (4 Bft) NW 315 0 min 5,6 C 26,5 km/h (4 Bft)
21.02.2016 14:22 14,3 C 15,8 C 56 % 1020,4 hPa 0,0 mm 27,4 km/h (4 Bft) NW 315 0 min 5,6 C 26,5 km/h (4 Bft)
21.02.2016 14:23 14,3 C 15,8 C 55 % 1020,1 hPa 0,0 mm 28,3 km/h (4 Bft) W 270 0 min 5,4 C 29,5 km/h (5 Bft)
21.02.2016 14:24 14,3 C 15,8 C 55 % 1020,1 hPa 0,0 mm 28,3 km/h (4 Bft) W 270 0 min 5,4 C 29,5 km/h (5 Bft)
21.02.2016 14:25 14,5 C 15,9 C 55 % 1020,1 hPa 0,0 mm 28,6 km/h (4 Bft) W 270 0 min 5,6 C 29,8 km/h (5 Bft)
21.02.2016 14:26 14,5 C 15,7 C 55 % 1020,1 hPa 0,0 mm 28,6 km/h (4 Bft) W 270 0 min 5,6 C 29,8 km/h (5 Bft)
21.02.2016 14:28 14,5 C 16,1 C 55 % 1020,1 hPa 0,0 mm 26,5 km/h (4 Bft) W 270 0 min 5,6 C 25,9 km/h (4 Bft)
21.02.2016 14:29 14,5 C 16,4 C 55 % 1020,1 hPa 0,0 mm 25,6 km/h (4 Bft) W-NW 292 0 min 5,6 C 28,6 km/h (4 Bft)
21.02.2016 14:30 14,5 C 16,3 C 55 % 1020,1 hPa 0,0 mm 25,6 km/h (4 Bft) W-NW 292 0 min 5,6 C 28,6 km/h (4 Bft)
21.02.2016 14:31 14,5 C 16,3 C 55 % 1020,1 hPa 0,0 mm 25,3 km/h (4 Bft) NW 315 0 min 5,6 C 34,3 km/h (5 Bft)
21.02.2016 14:33 14,5 C 13,4 C 55 % 1020,1 hPa 0,0 mm 24,7 km/h (4 Bft) W 270 0 min 5,6 C 26,5 km/h (4 Bft)
21.02.2016 14:34 14,5 C 16,3 C 55 % 1020,1 hPa 0,0 mm 24,7 km/h (4 Bft) W 270 1 min 5,6 C 26,5 km/h (4 Bft)
21.02.2016 14:35 14,3 C 16,4 C 54 % 1020,1 hPa 0,0 mm 25,0 km/h (4 Bft) SO 135 1 min 5,1 C 17,6 km/h (3 Bft)
21.02.2016 14:36 14,3 C 16,2 C 54 % 1020,1 hPa 0,0 mm 25,0 km/h (4 Bft) SO 135 1 min 5,1 C 17,6 km/h (3 Bft)
21.02.2016 14:37 14,3 C 16,3 C 55 % 1020,1 hPa 0,0 mm 24,7 km/h (4 Bft) NW 315 1 min 5,4 C 20,6 km/h (4 Bft)
21.02.2016 14:38 14,3 C 16,1 C 55 % 1020,1 hPa 0,0 mm 24,7 km/h (4 Bft) NW 315 0 min 5,4 C 20,6 km/h (4 Bft)
21.02.2016 14:39 14,3 C 16,1 C 54 % 1020,1 hPa 0,0 mm 24,7 km/h (4 Bft) W-NW 292 1 min 5,1 C 42,6 km/h (6 Bft)
21.02.2016 14:40 14,3 C 15,9 C 54 % 1020,1 hPa 0,0 mm 24,7 km/h (4 Bft) W-NW 292 0 min 5,1 C 42,6 km/h (6 Bft)
21.02.2016 14:41 14,0 C 15,7 C 54 % 1020,1 hPa 0,0 mm 26,8 km/h (4 Bft) W-NW 292 1 min 4,8 C 39,0 km/h (6 Bft)
21.02.2016 14:42 14,0 C 15,3 C 54 % 1020,1 hPa 0,0 mm 26,8 km/h (4 Bft) W-NW 292 0 min 4,8 C 39,0 km/h (6 Bft)
21.02.2016 14:43 13,9 C 15,3 C 54 % 1020,2 hPa 0,0 mm 26,2 km/h (4 Bft) NW 315 0 min 4,7 C 31,0 km/h (5 Bft)
21.02.2016 14:44 13,9 C 15,0 C 54 % 1020,2 hPa 0,0 mm 26,2 km/h (4 Bft) NW 315 0 min 4,7 C 31,0 km/h (5 Bft)
21.02.2016 14:45 13,9 C 15,0 C 55 % 1020,2 hPa 0,0 mm 24,4 km/h (4 Bft) W-NW 292 0 min 5,0 C 27,7 km/h (4 Bft)
21.02.2016 14:46 13,9 C 14,7 C 55 % 1020,2 hPa 0,0 mm 24,4 km/h (4 Bft) W-NW 292 0 min 5,0 C 27,7 km/h (4 Bft)
21.02.2016 14:47 13,9 C 14,9 C 55 % 1020,2 hPa 0,0 mm 24,7 km/h (4 Bft) W-NW 292 0 min 5,0 C 20,9 km/h (4 Bft)
21.02.2016 14:48 13,9 C 14,6 C 55 % 1020,2 hPa 0,0 mm 24,7 km/h (4 Bft) W-NW 292 0 min 5,0 C 20,9 km/h (4 Bft)
21.02.2016 14:49 14,0 C 14,9 C 55 % 1020,2 hPa 0,0 mm 23,5 km/h (4 Bft) W 270 0 min 5,1 C 18,2 km/h (3 Bft)
21.02.2016 14:50 14,0 C 14,8 C 55 % 1020,2 hPa 0,0 mm 23,5 km/h (4 Bft) W 270 0 min 5,1 C 18,2 km/h (3 Bft)
21.02.2016 14:51 14,0 C 15,2 C 55 % 1020,2 hPa 0,0 mm 21,8 km/h (4 Bft) NW 315 0 min 5,1 C 29,8 km/h (5 Bft)
21.02.2016 14:52 14,0 C 15,1 C 55 % 1020,2 hPa 0,0 mm 21,8 km/h (4 Bft) NW 315 0 min 5,1 C 29,8 km/h (5 Bft)
21.02.2016 14:53 13,8 C 15,1 C 54 % 1020,2 hPa 0,0 mm 20,0 km/h (4 Bft) W 270 0 min 4,7 C 25,3 km/h (4 Bft)
21.02.2016 14:54 13,8 C 14,9 C 54 % 1020,2 hPa 0,0 mm 20,0 km/h (4 Bft) W 270 0 min 4,7 C 25,3 km/h (4 Bft)
21.02.2016 14:55 13,7 C 14,9 C 54 % 1020,2 hPa 0,0 mm 19,7 km/h (3 Bft) W-SW 247 0 min 4,6 C 14,0 km/h (3 Bft)
21.02.2016 14:56 13,7 C 14,7 C 54 % 1020,2 hPa 0,0 mm 19,7 km/h (3 Bft) W-SW 247 0 min 4,6 C 14,0 km/h (3 Bft)
21.02.2016 14:57 13,5 C 14,5 C 54 % 1020,2 hPa 0,0 mm 20,0 km/h (4 Bft) W-SW 247 0 min 4,4 C 26,2 km/h (4 Bft)
21.02.2016 14:58 13,5 C 14,2 C 54 % 1020,2 hPa 0,0 mm 20,0 km/h (4 Bft) W-SW 247 0 min 4,4 C 26,2 km/h (4 Bft)
21.02.2016 14:59 13,5 C 14,1 C 54 % 1020,2 hPa 0,0 mm 20,6 km/h (4 Bft) W 270 0 min 4,4 C 19,7 km/h (3 Bft)
21.02.2016 15:00 13,5 C 13,8 C 54 % 1020,2 hPa 0,0 mm 20,6 km/h (4 Bft) W 270 0 min 4,4 C 19,7 km/h (3 Bft)
21.02.2016 15:01 13,3 C 13,8 C 54 % 1020,2 hPa 0,0 mm 20,9 km/h (4 Bft) W 270 0 min 4,2 C 32,2 km/h (5 Bft)
21.02.2016 15:02 13,3 C 13,5 C 54 % 1020,2 hPa 0,0 mm 20,9 km/h (4 Bft) W 270 0 min 4,2 C 32,2 km/h (5 Bft)
21.02.2016 15:03 13,3 C 13,6 C 54 % 1019,9 hPa 0,0 mm 20,3 km/h (4 Bft) W 270 0 min 4,2 C 20,9 km/h (4 Bft)
21.02.2016 15:04 13,3 C 13,3 C 54 % 1019,9 hPa 0,0 mm 20,3 km/h (4 Bft) W 270 0 min 4,2 C 20,9 km/h (4 Bft)
21.02.2016 15:05 13,3 C 13,3 C 54 % 1019,9 hPa 0,0 mm 20,3 km/h (4 Bft) W-NW 292 0 min 4,2 C 19,7 km/h (3 Bft)
21.02.2016 15:06 13,3 C 13,3 C 54 % 1019,9 hPa 0,0 mm 20,3 km/h (4 Bft) W-NW 292 0 min 4,2 C 19,7 km/h (3 Bft)
21.02.2016 15:07 13,4 C 13,4 C 54 % 1019,9 hPa 0,0 mm 19,7 km/h (3 Bft) NW 315 0 min 4,3 C 24,7 km/h (4 Bft)
21.02.2016 15:08 13,4 C 13,4 C 54 % 1019,9 hPa 0,0 mm 19,7 km/h (3 Bft) NW 315 0 min 4,3 C 24,7 km/h (4 Bft)
21.02.2016 15:09 13,4 C 13,6 C 54 % 1019,9 hPa 0,0 mm 18,5 km/h (3 Bft) W 270 0 min 4,3 C 18,2 km/h (3 Bft)
21.02.2016 15:10 13,4 C 13,4 C 54 % 1019,9 hPa 0,0 mm 18,5 km/h (3 Bft) W 270 0 min 4,3 C 18,2 km/h (3 Bft)
21.02.2016 15:11 13,4 C 13,8 C 54 % 1019,9 hPa 0,0 mm 18,2 km/h (3 Bft) W-SW 247 0 min 4,3 C 24,7 km/h (4 Bft)
21.02.2016 15:12 13,4 C 13,7 C 54 % 1019,9 hPa 0,0 mm 18,2 km/h (3 Bft) W-SW 247 0 min 4,3 C 24,7 km/h (4 Bft)
21.02.2016 15:13 13,4 C 13,7 C 53 % 1019,9 hPa 0,0 mm 18,8 km/h (3 Bft) W 270 0 min 4,0 C 15,2 km/h (3 Bft)
21.02.2016 15:14 13,4 C 13,7 C 53 % 1019,9 hPa 0,0 mm 18,8 km/h (3 Bft) W 270 0 min 4,0 C 15,2 km/h (3 Bft)
21.02.2016 15:15 13,5 C 13,7 C 54 % 1019,9 hPa 0,0 mm 18,8 km/h (3 Bft) W 270 0 min 4,4 C 32,5 km/h (5 Bft)
21.02.2016 15:16 13,5 C 13,7 C 54 % 1019,9 hPa 0,0 mm 18,8 km/h (3 Bft) W 270 0 min 4,4 C 32,5 km/h (5 Bft)
21.02.2016 15:17 13,5 C 14,0 C 53 % 1019,9 hPa 0,0 mm 19,4 km/h (3 Bft) W 270 0 min 4,1 C 30,7 km/h (5 Bft)
21.02.2016 15:18 13,5 C 13,9 C 53 % 1019,9 hPa 0,0 mm 19,4 km/h (3 Bft) W 270 0 min 4,1 C 30,7 km/h (5 Bft)
21.02.2016 15:19 13,2 C 13,9 C 53 % 1019,9 hPa 0,0 mm 20,0 km/h (4 Bft) W-NW 292 0 min 3,8 C 18,2 km/h (3 Bft)
21.02.2016 15:20 13,2 C 13,9 C 53 % 1019,9 hPa 0,0 mm 20,0 km/h (4 Bft) W-NW 292 0 min 3,8 C 18,2 km/h (3 Bft)
21.02.2016 15:21 13,2 C 13,9 C 54 % 1019,9 hPa 0,0 mm 20,3 km/h (4 Bft) W 270 0 min 4,1 C 32,2 km/h (5 Bft)
21.02.2016 15:22 13,2 C 13,6 C 54 % 1019,9 hPa 0,0 mm 20,3 km/h (4 Bft) W 270 0 min 4,1 C 32,2 km/h (5 Bft)
21.02.2016 15:23 13,3 C 13,6 C 54 % 1019,8 hPa 0,0 mm 20,0 km/h (4 Bft) W-NW 292 0 min 4,2 C 14,9 km/h (3 Bft)
21.02.2016 15:24 13,3 C 13,6 C 54 % 1019,8 hPa 0,0 mm 20,0 km/h (4 Bft) W-NW 292 0 min 4,2 C 14,9 km/h (3 Bft)
21.02.2016 15:25 13,6 C 14,1 C 54 % 1019,8 hPa 0,0 mm 19,7 km/h (3 Bft) NW 315 0 min 4,5 C 23,8 km/h (4 Bft)
21.02.2016 15:26 13,6 C 14,1 C 54 % 1019,8 hPa 0,0 mm 19,7 km/h (3 Bft) NW 315 0 min 4,5 C 23,8 km/h (4 Bft)
21.02.2016 15:27 13,6 C 14,4 C 54 % 1019,8 hPa 0,0 mm 20,0 km/h (4 Bft) W-NW 292 0 min 4,5 C 38,4 km/h (5 Bft)
21.02.2016 15:28 13,6 C 14,3 C 54 % 1019,8 hPa 0,0 mm 20,0 km/h (4 Bft) W-NW 292 0 min 4,5 C 38,4 km/h (5 Bft)
21.02.2016 15:29 13,7 C 14,8 C 54 % 1019,8 hPa 0,0 mm 19,7 km/h (3 Bft) W-NW 292 0 min 4,6 C 14,9 km/h (3 Bft)
21.02.2016 15:30 13,7 C 14,8 C 54 % 1019,8 hPa 0,0 mm 19,7 km/h (3 Bft) W-NW 292 0 min 4,6 C 14,9 km/h (3 Bft)
21.02.2016 15:31 13,8 C 15,0 C 55 % 1019,8 hPa 0,0 mm 20,0 km/h (4 Bft) NW 315 0 min 4,9 C 25,0 km/h (4 Bft)
21.02.2016 15:32 13,8 C 14,9 C 55 % 1019,8 hPa 0,0 mm 20,0 km/h (4 Bft) NW 315 0 min 4,9 C 25,0 km/h (4 Bft)
21.02.2016 15:33 13,8 C 15,3 C 55 % 1019,8 hPa 0,0 mm 19,7 km/h (3 Bft) W-NW 292 0 min 4,9 C 24,1 km/h (4 Bft)
21.02.2016 15:34 13,8 C 15,4 C 55 % 1019,8 hPa 0,0 mm 19,7 km/h (3 Bft) W-NW 292 0 min 4,9 C 24,1 km/h (4 Bft)
21.02.2016 15:35 13,7 C 15,4 C 55 % 1019,8 hPa 0,0 mm 20,9 km/h (4 Bft) NW 315 1 min 4,8 C 41,1 km/h (6 Bft)
21.02.2016 15:36 13,7 C 15,4 C 55 % 1019,8 hPa 0,0 mm 20,9 km/h (4 Bft) NW 315 1 min 4,8 C 41,1 km/h (6 Bft)
21.02.2016 15:37 13,6 C 15,5 C 55 % 1019,8 hPa 0,0 mm 21,8 km/h (4 Bft) W 270 1 min 4,7 C 21,5 km/h (4 Bft)
21.02.2016 15:38 13,6 C 15,3 C 55 % 1019,8 hPa 0,0 mm 21,8 km/h (4 Bft) W 270 1 min 4,7 C 21,5 km/h (4 Bft)
21.02.2016 15:39 13,6 C 15,3 C 55 % 1019,8 hPa 0,0 mm 20,0 km/h (4 Bft) N-NO 22 1 min 4,7 C 15,5 km/h (3 Bft)
21.02.2016 15:40 13,6 C 15,3 C 55 % 1019,8 hPa 0,0 mm 20,0 km/h (4 Bft) N-NO 22 1 min 4,7 C 15,5 km/h (3 Bft)
21.02.2016 15:41 13,7 C 15,3 C 55 % 1019,8 hPa 0,0 mm 20,0 km/h (4 Bft) NW 315 0 min 4,8 C 11,6 km/h (2 Bft)
21.02.2016 15:42 13,7 C 15,3 C 55 % 1019,8 hPa 0,0 mm 20,0 km/h (4 Bft) NW 315 0 min 4,8 C 11,6 km/h (2 Bft)
21.02.2016 15:43 13,7 C 15,5 C 55 % 1019,6 hPa 0,0 mm 19,7 km/h (3 Bft) W 270 1 min 4,8 C 20,9 km/h (4 Bft)
21.02.2016 15:44 13,7 C 15,4 C 55 % 1019,6 hPa 0,0 mm 19,7 km/h (3 Bft) W 270 1 min 4,8 C 20,9 km/h (4 Bft)
21.02.2016 15:45 13,6 C 15,4 C 55 % 1019,6 hPa 0,0 mm 20,9 km/h (4 Bft) W 270 1 min 4,7 C 30,7 km/h (5 Bft)
21.02.2016 15:46 13,6 C 15,4 C 55 % 1019,6 hPa 0,0 mm 20,9 km/h (4 Bft) W 270 1 min 4,7 C 30,7 km/h (5 Bft)
21.02.2016 15:47 13,5 C 15,6 C 55 % 1019,6 hPa 0,0 mm 19,4 km/h (3 Bft) SW 225 1 min 4,6 C 19,7 km/h (3 Bft)
21.02.2016 15:48 13,5 C 15,6 C 55 % 1019,6 hPa 0,0 mm 19,4 km/h (3 Bft) SW 225 1 min 4,6 C 19,7 km/h (3 Bft)
21.02.2016 15:49 13,3 C 15,6 C 55 % 1019,6 hPa 0,0 mm 19,4 km/h (3 Bft) NW 315 1 min 4,5 C 21,2 km/h (4 Bft)
21.02.2016 15:50 13,3 C 15,4 C 55 % 1019,6 hPa 0,0 mm 19,4 km/h (3 Bft) NW 315 1 min 4,5 C 21,2 km/h (4 Bft)
21.02.2016 15:51 13,1 C 15,4 C 55 % 1019,6 hPa 0,0 mm 18,2 km/h (3 Bft) W-NW 292 1 min 4,3 C 19,4 km/h (3 Bft)
21.02.2016 15:52 13,1 C 15,2 C 55 % 1019,6 hPa 0,0 mm 18,2 km/h (3 Bft) W-NW 292 1 min 4,3 C 19,4 km/h (3 Bft)
21.02.2016 15:53 13,1 C 15,0 C 55 % 1019,6 hPa 0,0 mm 18,2 km/h (3 Bft) W 270 1 min 4,3 C 20,3 km/h (4 Bft)
21.02.2016 15:54 13,1 C 14,8 C 55 % 1019,6 hPa 0,0 mm 18,2 km/h (3 Bft) W 270 1 min 4,3 C 20,3 km/h (4 Bft)
21.02.2016 15:55 13,1 C 14,6 C 55 % 1019,6 hPa 0,0 mm 17,6 km/h (3 Bft) NW 315 0 min 4,3 C 27,4 km/h (4 Bft)
21.02.2016 15:56 13,1 C 14,3 C 55 % 1019,6 hPa 0,0 mm 17,6 km/h (3 Bft) NW 315 0 min 4,3 C 27,4 km/h (4 Bft)
21.02.2016 15:57 13,2 C 14,4 C 55 % 1019,6 hPa 0,0 mm 17,6 km/h (3 Bft) NW 315 0 min 4,4 C 31,0 km/h (5 Bft)
21.02.2016 15:58 13,2 C 14,2 C 55 % 1019,6 hPa 0,0 mm 17,6 km/h (3 Bft) NW 315 0 min 4,4 C 31,0 km/h (5 Bft)
21.02.2016 15:59 13,2 C 14,3 C 54 % 1019,6 hPa 0,0 mm 17,6 km/h (3 Bft) W-NW 292 0 min 4,1 C 17,9 km/h (3 Bft)
21.02.2016 16:00 13,2 C 14,1 C 54 % 1019,6 hPa 0,0 mm 17,6 km/h (3 Bft) W-NW 292 0 min 4,1 C 17,9 km/h (3 Bft)
21.02.2016 16:01 13,3 C 14,1 C 54 % 1019,6 hPa 0,0 mm 18,2 km/h (3 Bft) W 270 0 min 4,2 C 24,1 km/h (4 Bft)
21.02.2016 16:02 13,3 C 13,9 C 54 % 1019,6 hPa 0,0 mm 18,2 km/h (3 Bft) W 270 0 min 4,2 C 24,1 km/h (4 Bft)
21.02.2016 16:03 13,4 C 13,9 C 54 % 1019,6 hPa 0,0 mm 18,5 km/h (3 Bft) NW 315 0 min 4,3 C 30,4 km/h (5 Bft)
21.02.2016 16:04 13,4 C 13,7 C 54 % 1019,6 hPa 0,0 mm 18,5 km/h (3 Bft) NW 315 0 min 4,3 C 30,4 km/h (5 Bft)
21.02.2016 16:05 13,6 C 13,7 C 53 % 1019,6 hPa 0,0 mm 19,4 km/h (3 Bft) NW 315 0 min 4,2 C 30,4 km/h (5 Bft)
21.02.2016 16:06 13,6 C 13,7 C 53 % 1019,6 hPa 0,0 mm 19,4 km/h (3 Bft) NW 315 0 min 4,2 C 30,4 km/h (5 Bft)
21.02.2016 16:07 13,7 C 13,7 C 52 % 1019,6 hPa 0,0 mm 19,4 km/h (3 Bft) W 270 0 min 4,0 C 20,0 km/h (4 Bft)
21.02.2016 16:08 13,7 C 13,7 C 52 % 1019,6 hPa 0,0 mm 19,4 km/h (3 Bft) W 270 0 min 4,0 C 20,0 km/h (4 Bft)
21.02.2016 16:09 13,6 C 13,8 C 51 % 1019,6 hPa 0,0 mm 19,4 km/h (3 Bft) NW 315 0 min 3,7 C 17,0 km/h (3 Bft)
21.02.2016 16:10 13,6 C 13,6 C 51 % 1019,6 hPa 0,0 mm 19,4 km/h (3 Bft) NW 315 0 min 3,7 C 17,0 km/h (3 Bft)
21.02.2016 16:11 13,5 C 13,7 C 52 % 1019,6 hPa 0,0 mm 19,4 km/h (3 Bft) W 270 0 min 3,8 C 25,0 km/h (4 Bft)
21.02.2016 16:12 13,5 C 13,5 C 52 % 1019,6 hPa 0,0 mm 19,4 km/h (3 Bft) W 270 0 min 3,8 C 25,0 km/h (4 Bft)
21.02.2016 16:13 13,5 C 13,6 C 51 % 1019,6 hPa 0,0 mm 19,4 km/h (3 Bft) W 270 0 min 3,6 C 20,9 km/h (4 Bft)
21.02.2016 16:14 13,5 C 13,4 C 51 % 1019,6 hPa 0,0 mm 19,4 km/h (3 Bft) W 270 0 min 3,6 C 20,9 km/h (4 Bft)
21.02.2016 16:15 13,5 C 13,4 C 51 % 1019,6 hPa 0,0 mm 18,5 km/h (3 Bft) W-SW 247 0 min 3,6 C 21,2 km/h (4 Bft)
21.02.2016 16:16 13,5 C 13,4 C 51 % 1019,6 hPa 0,0 mm 18,5 km/h (3 Bft) W-SW 247 0 min 3,6 C 21,2 km/h (4 Bft)
21.02.2016 16:17 13,5 C 13,5 C 51 % 1019,6 hPa 0,0 mm 16,7 km/h (3 Bft) W 270 0 min 3,6 C 13,7 km/h (3 Bft)
21.02.2016 16:18 13,5 C 13,5 C 51 % 1019,6 hPa 0,0 mm 16,7 km/h (3 Bft) W 270 0 min 3,6 C 13,7 km/h (3 Bft)
21.02.2016 16:19 13,6 C 13,7 C 51 % 1019,6 hPa 0,0 mm 15,5 km/h (3 Bft) NW 315 0 min 3,7 C 28,3 km/h (4 Bft)
21.02.2016 16:20 13,6 C 13,6 C 51 % 1019,6 hPa 0,0 mm 15,5 km/h (3 Bft) NW 315 0 min 3,7 C 28,3 km/h (4 Bft)
21.02.2016 16:21 13,7 C 13,8 C 50 % 1019,6 hPa 0,0 mm 15,2 km/h (3 Bft) W-SW 247 0 min 3,5 C 18,8 km/h (3 Bft)
21.02.2016 16:22 13,7 C 13,8 C 50 % 1019,6 hPa 0,0 mm 15,2 km/h (3 Bft) W-SW 247 0 min 3,5 C 18,8 km/h (3 Bft)
21.02.2016 16:23 13,7 C 13,9 C 50 % 1019,6 hPa 0,0 mm 14,0 km/h (3 Bft) N 360 0 min 3,5 C 11,0 km/h (2 Bft)
21.02.2016 16:24 13,7 C 13,9 C 50 % 1019,6 hPa 0,0 mm 14,0 km/h (3 Bft) N 360 0 min 3,5 C 11,0 km/h (2 Bft)
21.02.2016 16:25 13,6 C 13,8 C 50 % 1019,6 hPa 0,0 mm 13,4 km/h (3 Bft) W 270 0 min 3,4 C 10,1 km/h (2 Bft)
21.02.2016 16:26 13,6 C 13,8 C 50 % 1019,6 hPa 0,0 mm 13,4 km/h (3 Bft) W 270 0 min 3,4 C 10,1 km/h (2 Bft)
21.02.2016 16:27 13,7 C 13,8 C 49 % 1019,6 hPa 0,0 mm 14,3 km/h (3 Bft) W-SW 247 0 min 3,2 C 22,4 km/h (4 Bft)
21.02.2016 16:28 13,7 C 13,8 C 49 % 1019,6 hPa 0,0 mm 14,3 km/h (3 Bft) W-SW 247 0 min 3,2 C 22,4 km/h (4 Bft)
21.02.2016 16:29 13,8 C 13,9 C 49 % 1019,6 hPa 0,0 mm 16,7 km/h (3 Bft) W-SW 247 0 min 3,3 C 36,1 km/h (5 Bft)
21.02.2016 16:30 13,8 C 13,8 C 49 % 1019,6 hPa 0,0 mm 16,7 km/h (3 Bft) W-SW 247 0 min 3,3 C 36,1 km/h (5 Bft)
21.02.2016 16:31 14,0 C 13,9 C 47 % 1019,6 hPa 0,0 mm 18,2 km/h (3 Bft) W-SW 247 0 min 2,9 C 16,7 km/h (3 Bft)
21.02.2016 16:32 14,0 C 13,9 C 47 % 1019,6 hPa 0,0 mm 18,2 km/h (3 Bft) W-SW 247 0 min 2,9 C 16,7 km/h (3 Bft)
21.02.2016 16:33 13,9 C 13,8 C 47 % 1019,6 hPa 0,0 mm 19,4 km/h (3 Bft) W 270 0 min 2,8 C 35,2 km/h (5 Bft)
21.02.2016 16:34 13,9 C 13,7 C 47 % 1019,6 hPa 0,0 mm 19,4 km/h (3 Bft) W 270 0 min 2,8 C 35,2 km/h (5 Bft)
21.02.2016 16:35 13,9 C 13,7 C 47 % 1019,6 hPa 0,0 mm 20,3 km/h (4 Bft) NW 315 0 min 2,8 C 17,3 km/h (3 Bft)
21.02.2016 16:36 13,9 C 13,7 C 47 % 1019,6 hPa 0,0 mm 20,3 km/h (4 Bft) NW 315 0 min 2,8 C 17,3 km/h (3 Bft)
21.02.2016 16:37 13,9 C 13,8 C 47 % 1019,6 hPa 0,0 mm 21,5 km/h (4 Bft) W-NW 292 0 min 2,8 C 21,5 km/h (4 Bft)
21.02.2016 16:38 13,9 C 13,7 C 47 % 1019,6 hPa 0,0 mm 21,5 km/h (4 Bft) W-NW 292 0 min 2,8 C 21,5 km/h (4 Bft)
21.02.2016 16:39 13,8 C 13,6 C 47 % 1019,6 hPa 0,0 mm 21,8 km/h (4 Bft) W-NW 292 0 min 2,7 C 34,9 km/h (5 Bft)
21.02.2016 16:40 13,8 C 13,6 C 47 % 1019,6 hPa 0,0 mm 21,8 km/h (4 Bft) W-NW 292 0 min 2,7 C 34,9 km/h (5 Bft)
21.02.2016 16:41 13,8 C 13,6 C 47 % 1019,6 hPa 0,0 mm 22,1 km/h (4 Bft) W 270 0 min 2,7 C 30,7 km/h (5 Bft)
21.02.2016 16:42 13,8 C 13,6 C 47 % 1019,6 hPa 0,0 mm 22,1 km/h (4 Bft) W 270 0 min 2,7 C 30,7 km/h (5 Bft)
21.02.2016 16:43 13,8 C 13,7 C 47 % 1019,6 hPa 0,0 mm 21,8 km/h (4 Bft) W 270 0 min 2,7 C 17,0 km/h (3 Bft)
21.02.2016 16:44 13,8 C 13,6 C 47 % 1019,6 hPa 0,0 mm 21,8 km/h (4 Bft) W 270 0 min 2,7 C 17,0 km/h (3 Bft)
21.02.2016 16:45 13,6 C 13,5 C 47 % 1019,6 hPa 0,0 mm 20,3 km/h (4 Bft) W 270 0 min 2,5 C 16,4 km/h (3 Bft)
21.02.2016 16:46 13,6 C 13,4 C 47 % 1019,6 hPa 0,0 mm 20,3 km/h (4 Bft) W 270 0 min 2,5 C 16,4 km/h (3 Bft)
21.02.2016 16:47 13,5 C 13,4 C 47 % 1019,6 hPa 0,0 mm 20,0 km/h (4 Bft) W-SW 247 0 min 2,4 C 20,3 km/h (4 Bft)
21.02.2016 16:48 13,5 C 13,3 C 47 % 1019,6 hPa 0,0 mm 20,0 km/h (4 Bft) W-SW 247 0 min 2,4 C 20,3 km/h (4 Bft)
21.02.2016 16:49 13,3 C 13,3 C 47 % 1019,6 hPa 0,0 mm 19,4 km/h (3 Bft) W-NW 292 0 min 2,2 C 13,4 km/h (3 Bft)
21.02.2016 16:50 13,3 C 13,2 C 47 % 1019,6 hPa 0,0 mm 19,4 km/h (3 Bft) W-NW 292 0 min 2,2 C 13,4 km/h (3 Bft)
21.02.2016 16:51 13,3 C 13,2 C 48 % 1019,6 hPa 0,0 mm 17,0 km/h (3 Bft) W-NW 292 0 min 2,5 C 21,8 km/h (4 Bft)
21.02.2016 16:52 13,3 C 13,2 C 48 % 1019,6 hPa 0,0 mm 17,0 km/h (3 Bft) W-NW 292 0 min 2,5 C 21,8 km/h (4 Bft)
21.02.2016 16:53 13,3 C 13,3 C 47 % 1019,6 hPa 0,0 mm 16,7 km/h (3 Bft) N 360 0 min 2,2 C 22,4 km/h (4 Bft)
21.02.2016 16:54 13,3 C 13,2 C 47 % 1019,6 hPa 0,0 mm 16,7 km/h (3 Bft) N 360 0 min 2,2 C 22,4 km/h (4 Bft)
21.02.2016 16:55 13,3 C 13,2 C 47 % 1019,6 hPa 0,0 mm 17,3 km/h (3 Bft) W 270 0 min 2,2 C 27,4 km/h (4 Bft)
21.02.2016 16:56 13,3 C 13,2 C 47 % 1019,6 hPa 0,0 mm 17,3 km/h (3 Bft) W 270 0 min 2,2 C 27,4 km/h (4 Bft)
21.02.2016 16:57 13,3 C 13,2 C 48 % 1019,6 hPa 0,0 mm 17,3 km/h (3 Bft) W 270 0 min 2,5 C 18,5 km/h (3 Bft)
21.02.2016 16:58 13,3 C 13,1 C 48 % 1019,6 hPa 0,0 mm 17,3 km/h (3 Bft) W 270 0 min 2,5 C 18,5 km/h (3 Bft)
21.02.2016 16:59 13,3 C 13,2 C 48 % 1019,6 hPa 0,0 mm 19,1 km/h (3 Bft) W 270 0 min 2,5 C 31,6 km/h (5 Bft)
21.02.2016 17:00 13,3 C 13,0 C 48 % 1019,6 hPa 0,0 mm 19,1 km/h (3 Bft) W 270 0 min 2,5 C 31,6 km/h (5 Bft)
21.02.2016 17:01 13,2 C 13,0 C 48 % 1019,6 hPa 0,0 mm 21,5 km/h (4 Bft) W 270 0 min 2,4 C 30,1 km/h (5 Bft)
21.02.2016 17:02 13,2 C 12,9 C 48 % 1019,6 hPa 0,0 mm 21,5 km/h (4 Bft) W 270 0 min 2,4 C 30,1 km/h (5 Bft)
21.02.2016 17:03 13,0 C 12,8 C 49 % 1019,3 hPa 0,0 mm 21,2 km/h (4 Bft) W 270 0 min 2,5 C 31,6 km/h (5 Bft)
21.02.2016 17:04 13,0 C 12,8 C 49 % 1019,3 hPa 0,0 mm 21,2 km/h (4 Bft) W 270 0 min 2,5 C 31,6 km/h (5 Bft)
21.02.2016 17:05 12,9 C 12,7 C 49 % 1019,3 hPa 0,0 mm 21,2 km/h (4 Bft) W 270 0 min 2,5 C 17,3 km/h (3 Bft)
21.02.2016 17:06 12,9 C 12,7 C 49 % 1019,3 hPa 0,0 mm 21,2 km/h (4 Bft) W 270 0 min 2,5 C 17,3 km/h (3 Bft)
21.02.2016 17:07 12,8 C 12,6 C 49 % 1019,3 hPa 0,0 mm 20,9 km/h (4 Bft) W-NW 292 0 min 2,4 C 28,9 km/h (5 Bft)
21.02.2016 17:08 12,8 C 12,6 C 49 % 1019,3 hPa 0,0 mm 20,9 km/h (4 Bft) W-NW 292 0 min 2,4 C 28,9 km/h (5 Bft)
21.02.2016 17:09 12,7 C 12,6 C 49 % 1019,3 hPa 0,0 mm 20,0 km/h (4 Bft) O-SO 112 0 min 2,3 C 21,8 km/h (4 Bft)
21.02.2016 17:10 12,7 C 12,5 C 49 % 1019,3 hPa 0,0 mm 20,0 km/h (4 Bft) O-SO 112 0 min 2,3 C 21,8 km/h (4 Bft)
21.02.2016 17:11 12,5 C 12,4 C 51 % 1019,3 hPa 0,0 mm 18,5 km/h (3 Bft) NW 315 0 min 2,6 C 16,4 km/h (3 Bft)
21.02.2016 17:12 12,5 C 12,4 C 51 % 1019,3 hPa 0,0 mm 18,5 km/h (3 Bft) NW 315 0 min 2,6 C 16,4 km/h (3 Bft)
21.02.2016 17:13 12,3 C 12,3 C 52 % 1019,3 hPa 0,0 mm 17,0 km/h (3 Bft) NW 315 0 min 2,7 C 17,0 km/h (3 Bft)
21.02.2016 17:14 12,3 C 12,2 C 52 % 1019,3 hPa 0,0 mm 17,0 km/h (3 Bft) NW 315 0 min 2,7 C 17,0 km/h (3 Bft)
21.02.2016 17:15 12,3 C 12,2 C 52 % 1019,3 hPa 0,0 mm 16,1 km/h (3 Bft) SW 225 0 min 2,7 C 13,7 km/h (3 Bft)
21.02.2016 17:16 12,3 C 12,1 C 52 % 1019,3 hPa 0,0 mm 16,1 km/h (3 Bft) SW 225 0 min 2,7 C 13,7 km/h (3 Bft)
21.02.2016 17:17 12,2 C 12,1 C 52 % 1019,3 hPa 0,0 mm 14,9 km/h (3 Bft) W-SW 247 0 min 2,6 C 15,8 km/h (3 Bft)
21.02.2016 17:18 12,2 C 12,1 C 52 % 1019,3 hPa 0,0 mm 14,9 km/h (3 Bft) W-SW 247 0 min 2,6 C 15,8 km/h (3 Bft)
21.02.2016 17:19 12,1 C 12,0 C 53 % 1019,3 hPa 0,0 mm 14,0 km/h (3 Bft) W-SW 247 0 min 2,8 C 11,3 km/h (2 Bft)
21.02.2016 17:20 12,1 C 12,0 C 53 % 1019,3 hPa 0,0 mm 14,0 km/h (3 Bft) W-SW 247 0 min 2,8 C 11,3 km/h (2 Bft)
21.02.2016 17:21 12,0 C 11,9 C 53 % 1019,3 hPa 0,0 mm 13,1 km/h (3 Bft) SW 225 0 min 2,7 C 14,6 km/h (3 Bft)
21.02.2016 17:22 12,0 C 11,9 C 53 % 1019,3 hPa 0,0 mm 13,1 km/h (3 Bft) SW 225 0 min 2,7 C 14,6 km/h (3 Bft)
21.02.2016 17:23 11,8 C 11,7 C 53 % 1019,2 hPa 0,0 mm 12,2 km/h (2 Bft) W-SW 247 0 min 2,5 C 12,8 km/h (3 Bft)
21.02.2016 17:24 11,8 C 11,7 C 53 % 1019,2 hPa 0,0 mm 12,2 km/h (2 Bft) W-SW 247 0 min 2,5 C 12,8 km/h (3 Bft)
21.02.2016 17:25 11,7 C 11,6 C 54 % 1019,2 hPa 0,0 mm 11,6 km/h (2 Bft) W-SW 247 0 min 2,7 C 14,3 km/h (3 Bft)
21.02.2016 17:26 11,7 C 11,6 C 54 % 1019,2 hPa 0,0 mm 11,6 km/h (2 Bft) W-SW 247 0 min 2,7 C 14,3 km/h (3 Bft)
21.02.2016 17:27 11,7 C 11,6 C 54 % 1019,2 hPa 0,0 mm 11,6 km/h (2 Bft) W 270 0 min 2,7 C 14,9 km/h (3 Bft)
21.02.2016 17:28 11,7 C 11,6 C 54 % 1019,2 hPa 0,0 mm 11,6 km/h (2 Bft) W 270 0 min 2,7 C 14,9 km/h (3 Bft)
21.02.2016 17:29 11,6 C 11,5 C 54 % 1019,2 hPa 0,0 mm 11,3 km/h (2 Bft) W-SW 247 0 min 2,6 C 16,1 km/h (3 Bft)
21.02.2016 17:30 11,6 C 11,5 C 54 % 1019,2 hPa 0,0 mm 11,3 km/h (2 Bft) W-SW 247 0 min 2,6 C 16,1 km/h (3 Bft)
21.02.2016 17:31 11,5 C 11,3 C 54 % 1019,2 hPa 0,0 mm 11,6 km/h (2 Bft) SW 225 0 min 2,5 C 17,6 km/h (3 Bft)
21.02.2016 17:32 11,5 C 11,3 C 54 % 1019,2 hPa 0,0 mm 11,6 km/h (2 Bft) SW 225 0 min 2,5 C 17,6 km/h (3 Bft)
21.02.2016 17:34 11,5 C 11,3 C 55 % 1019,2 hPa 0,0 mm 11,9 km/h (2 Bft) W-NW 292 0 min 2,8 C 20,3 km/h (4 Bft)
21.02.2016 17:35 11,2 C 11,1 C 55 % 1019,2 hPa 0,0 mm 11,0 km/h (2 Bft) W 270 0 min 2,5 C 9,5 km/h (2 Bft)
21.02.2016 17:36 11,2 C 11,1 C 55 % 1019,2 hPa 0,0 mm 11,0 km/h (2 Bft) W 270 0 min 2,5 C 9,5 km/h (2 Bft)
21.02.2016 17:37 11,1 C 11,0 C 55 % 1019,2 hPa 0,0 mm 10,4 km/h (2 Bft) W-NW 292 0 min 2,4 C 8,3 km/h (2 Bft)
21.02.2016 17:38 11,1 C 11,0 C 55 % 1019,2 hPa 0,0 mm 10,4 km/h (2 Bft) W-NW 292 0 min 2,4 C 8,3 km/h (2 Bft)
21.02.2016 17:39 11,0 C 10,9 C 56 % 1019,2 hPa 0,0 mm 9,8 km/h (2 Bft) W-SW 247 0 min 2,6 C 11,3 km/h (2 Bft)
21.02.2016 17:40 11,0 C 10,9 C 56 % 1019,2 hPa 0,0 mm 9,8 km/h (2 Bft) W-SW 247 0 min 2,6 C 11,3 km/h (2 Bft)
21.02.2016 17:41 10,9 C 10,8 C 56 % 1019,2 hPa 0,0 mm 9,5 km/h (2 Bft) NW 315 0 min 2,5 C 13,4 km/h (3 Bft)
21.02.2016 17:42 10,9 C 10,8 C 56 % 1019,2 hPa 0,0 mm 9,5 km/h (2 Bft) NW 315 0 min 2,5 C 13,4 km/h (3 Bft)
21.02.2016 17:43 10,8 C 10,7 C 56 % 1019,2 hPa 0,0 mm 8,6 km/h (2 Bft) W-SW 247 0 min 2,4 C 13,4 km/h (3 Bft)
21.02.2016 17:44 10,8 C 10,7 C 56 % 1019,2 hPa 0,0 mm 8,6 km/h (2 Bft) W-SW 247 0 min 2,4 C 13,4 km/h (3 Bft)
21.02.2016 17:45 10,7 C 10,6 C 56 % 1019,2 hPa 0,0 mm 8,3 km/h (2 Bft) SW 225 0 min 2,3 C 8,0 km/h (2 Bft)
21.02.2016 17:46 10,7 C 10,6 C 56 % 1019,2 hPa 0,0 mm 8,3 km/h (2 Bft) SW 225 0 min 2,3 C 8,0 km/h (2 Bft)
21.02.2016 17:47 10,6 C 10,5 C 56 % 1019,2 hPa 0,0 mm 8,3 km/h (2 Bft) W-SW 247 0 min 2,2 C 11,0 km/h (2 Bft)
21.02.2016 17:48 10,6 C 10,5 C 56 % 1019,2 hPa 0,0 mm 8,3 km/h (2 Bft) W-SW 247 0 min 2,2 C 11,0 km/h (2 Bft)
21.02.2016 17:49 10,6 C 10,5 C 56 % 1019,2 hPa 0,0 mm 8,6 km/h (2 Bft) W-SW 247 0 min 2,2 C 9,8 km/h (2 Bft)
21.02.2016 17:50 10,6 C 10,5 C 56 % 1019,2 hPa 0,0 mm 8,6 km/h (2 Bft) W-SW 247 0 min 2,2 C 9,8 km/h (2 Bft)
21.02.2016 17:51 10,5 C 10,3 C 57 % 1019,2 hPa 0,0 mm 8,6 km/h (2 Bft) W 270 0 min 2,3 C 8,9 km/h (2 Bft)
21.02.2016 17:52 10,5 C 10,3 C 57 % 1019,2 hPa 0,0 mm 8,6 km/h (2 Bft) W 270 0 min 2,3 C 8,9 km/h (2 Bft)
21.02.2016 17:53 10,4 C 10,3 C 57 % 1019,2 hPa 0,0 mm 8,3 km/h (2 Bft) S 180 0 min 2,3 C 11,9 km/h (2 Bft)
21.02.2016 17:54 10,4 C 10,3 C 57 % 1019,2 hPa 0,0 mm 8,3 km/h (2 Bft) S 180 0 min 2,3 C 11,9 km/h (2 Bft)
21.02.2016 17:55 10,3 C 10,2 C 57 % 1019,2 hPa 0,0 mm 8,0 km/h (2 Bft) W-SW 247 0 min 2,2 C 17,9 km/h (3 Bft)
21.02.2016 17:56 10,3 C 10,2 C 57 % 1019,2 hPa 0,0 mm 8,0 km/h (2 Bft) W-SW 247 0 min 2,2 C 17,9 km/h (3 Bft)
21.02.2016 17:57 10,3 C 10,1 C 58 % 1019,2 hPa 0,0 mm 8,3 km/h (2 Bft) W-SW 247 0 min 2,4 C 8,6 km/h (2 Bft)
21.02.2016 17:58 10,3 C 10,1 C 58 % 1019,2 hPa 0,0 mm 8,3 km/h (2 Bft) W-SW 247 0 min 2,4 C 8,6 km/h (2 Bft)
21.02.2016 17:59 10,3 C 10,1 C 58 % 1019,2 hPa 0,0 mm 8,3 km/h (2 Bft) W-SW 247 0 min 2,4 C 14,0 km/h (3 Bft)
21.02.2016 18:00 10,3 C 10,1 C 58 % 1019,2 hPa 0,0 mm 8,3 km/h (2 Bft) W-SW 247 0 min 2,4 C 14,0 km/h (3 Bft)
21.02.2016 18:01 10,3 C 10,1 C 58 % 1019,2 hPa 0,0 mm 8,6 km/h (2 Bft) W-SW 247 0 min 2,4 C 8,0 km/h (2 Bft)
21.02.2016 18:02 10,3 C 10,1 C 58 % 1019,2 hPa 0,0 mm 8,6 km/h (2 Bft) W-SW 247 0 min 2,4 C 8,0 km/h (2 Bft)
21.02.2016 18:04 10,2 C 9,9 C 58 % 1018,9 hPa 0,0 mm 9,5 km/h (2 Bft) N 0 0 min 2,3 C 10,4 km/h (2 Bft)
21.02.2016 18:05 10,2 C 9,9 C 58 % 1018,9 hPa 0,0 mm 9,8 km/h (2 Bft) N 0 0 min 2,3 C 10,4 km/h (2 Bft)
21.02.2016 18:06 10,2 C 9,9 C 58 % 1018,9 hPa 0,0 mm 9,8 km/h (2 Bft) N 0 0 min 2,3 C 10,4 km/h (2 Bft)
21.02.2016 18:07 10,1 C 9,9 C 58 % 1018,9 hPa 0,0 mm 9,5 km/h (2 Bft) N 0 0 min 2,2 C 10,4 km/h (2 Bft)
21.02.2016 18:08 10,1 C 9,9 C 58 % 1018,9 hPa 0,0 mm 9,5 km/h (2 Bft) N 0 0 min 2,2 C 10,4 km/h (2 Bft)
21.02.2016 18:09 9,9 C 9,8 C 59 % 1018,9 hPa 0,0 mm 8,9 km/h (2 Bft) N 0 0 min 2,3 C 10,4 km/h (2 Bft)
21.02.2016 18:10 9,9 C 9,8 C 59 % 1018,9 hPa 0,0 mm 8,9 km/h (2 Bft) N 0 0 min 2,3 C 10,4 km/h (2 Bft)
21.02.2016 18:11 9,7 C 9,6 C 59 % 1018,9 hPa 0,0 mm 8,6 km/h (2 Bft) N 0 0 min 2,1 C 11,3 km/h (2 Bft)
21.02.2016 18:12 9,7 C 9,6 C 59 % 1018,9 hPa 0,0 mm 8,6 km/h (2 Bft) W-SW 247 0 min 2,1 C 11,3 km/h (2 Bft)
21.02.2016 18:13 9,8 C 9,6 C 59 % 1018,9 hPa 0,0 mm 8,6 km/h (2 Bft) W-SW 247 0 min 2,2 C 13,7 km/h (3 Bft)
21.02.2016 18:14 9,8 C 9,6 C 59 % 1018,9 hPa 0,0 mm 8,6 km/h (2 Bft) W-SW 247 0 min 2,2 C 13,7 km/h (3 Bft)
21.02.2016 18:15 9,8 C 9,6 C 59 % 1018,9 hPa 0,0 mm 8,0 km/h (2 Bft) NW 315 0 min 2,2 C 9,8 km/h (2 Bft)
21.02.2016 18:16 9,8 C 9,6 C 59 % 1018,9 hPa 0,0 mm 8,0 km/h (2 Bft) NW 315 0 min 2,2 C 9,8 km/h (2 Bft)
21.02.2016 18:17 9,7 C 9,5 C 59 % 1018,9 hPa 0,0 mm 8,3 km/h (2 Bft) SW 225 0 min 2,1 C 11,3 km/h (2 Bft)
21.02.2016 18:18 9,7 C 9,5 C 59 % 1018,9 hPa 0,0 mm 8,3 km/h (2 Bft) SW 225 0 min 2,1 C 11,3 km/h (2 Bft)
21.02.2016 18:19 9,7 C 9,5 C 60 % 1018,9 hPa 0,0 mm 8,9 km/h (2 Bft) W-SW 247 0 min 2,3 C 10,7 km/h (2 Bft)
21.02.2016 18:20 9,7 C 9,5 C 60 % 1018,9 hPa 0,0 mm 8,9 km/h (2 Bft) W-SW 247 0 min 2,3 C 10,7 km/h (2 Bft)
21.02.2016 18:21 9,6 C 9,4 C 60 % 1018,9 hPa 0,0 mm 9,2 km/h (2 Bft) W-SW 247 0 min 2,2 C 8,9 km/h (2 Bft)
21.02.2016 18:22 9,6 C 9,4 C 60 % 1018,9 hPa 0,0 mm 9,2 km/h (2 Bft) W-SW 247 0 min 2,2 C 8,9 km/h (2 Bft)
21.02.2016 18:23 9,7 C 9,4 C 60 % 1018,8 hPa 0,0 mm 9,5 km/h (2 Bft) W-SW 247 0 min 2,3 C 13,1 km/h (3 Bft)
21.02.2016 18:24 9,7 C 9,4 C 60 % 1018,8 hPa 0,0 mm 9,5 km/h (2 Bft) W-SW 247 0 min 2,3 C 13,1 km/h (3 Bft)
21.02.2016 18:25 9,7 C 9,4 C 60 % 1018,8 hPa 0,0 mm 9,2 km/h (2 Bft) SW 225 0 min 2,3 C 13,4 km/h (3 Bft)
21.02.2016 18:26 9,7 C 9,4 C 60 % 1018,8 hPa 0,0 mm 9,2 km/h (2 Bft) SW 225 0 min 2,3 C 13,4 km/h (3 Bft)
21.02.2016 18:27 9,6 C 9,4 C 60 % 1018,8 hPa 0,0 mm 9,2 km/h (2 Bft) W-NW 292 0 min 2,2 C 5,4 km/h (1 Bft)
21.02.2016 18:28 9,6 C 9,4 C 60 % 1018,8 hPa 0,0 mm 9,2 km/h (2 Bft) W-NW 292 0 min 2,2 C 5,4 km/h (1 Bft)
21.02.2016 18:29 9,5 C 9,3 C 60 % 1018,8 hPa 0,0 mm 8,9 km/h (2 Bft) W-SW 247 0 min 2,1 C 14,9 km/h (3 Bft)
21.02.2016 18:30 9,5 C 9,3 C 60 % 1018,8 hPa 0,0 mm 8,9 km/h (2 Bft) W-SW 247 0 min 2,1 C 14,9 km/h (3 Bft)
21.02.2016 18:31 9,4 C 9,2 C 60 % 1018,8 hPa 0,0 mm 8,6 km/h (2 Bft) W-SW 247 0 min 2,0 C 10,4 km/h (2 Bft)
21.02.2016 18:32 9,4 C 9,2 C 60 % 1018,8 hPa 0,0 mm 8,6 km/h (2 Bft) W-SW 247 0 min 2,0 C 10,4 km/h (2 Bft)
21.02.2016 18:33 9,4 C 9,2 C 61 % 1018,8 hPa 0,0 mm 8,9 km/h (2 Bft) W-SW 247 0 min 2,3 C 14,3 km/h (3 Bft)
21.02.2016 18:34 9,4 C 9,2 C 61 % 1018,8 hPa 0,0 mm 8,9 km/h (2 Bft) W-SW 247 0 min 2,3 C 14,3 km/h (3 Bft)
21.02.2016 18:35 9,4 C 9,2 C 61 % 1018,8 hPa 0,0 mm 8,6 km/h (2 Bft) W-SW 247 0 min 2,3 C 8,9 km/h (2 Bft)
21.02.2016 18:36 9,4 C 9,2 C 61 % 1018,8 hPa 0,0 mm 8,6 km/h (2 Bft) W-SW 247 0 min 2,3 C 8,9 km/h (2 Bft)
21.02.2016 18:37 9,3 C 9,2 C 61 % 1018,8 hPa 0,0 mm 8,3 km/h (2 Bft) W-SW 247 0 min 2,2 C 10,7 km/h (2 Bft)
21.02.2016 18:38 9,3 C 9,2 C 61 % 1018,8 hPa 0,0 mm 8,3 km/h (2 Bft) W-SW 247 0 min 2,2 C 10,7 km/h (2 Bft)
21.02.2016 18:39 9,2 C 9,1 C 61 % 1018,8 hPa 0,0 mm 8,3 km/h (2 Bft) W-NW 292 0 min 2,1 C 7,5 km/h (2 Bft)
21.02.2016 18:40 9,2 C 9,1 C 61 % 1018,8 hPa 0,0 mm 8,3 km/h (2 Bft) W-NW 292 0 min 2,1 C 7,5 km/h (2 Bft)
21.02.2016 18:41 9,2 C 9,0 C 62 % 1018,8 hPa 0,0 mm 9,2 km/h (2 Bft) W 270 0 min 2,3 C 14,9 km/h (3 Bft)
21.02.2016 18:42 9,2 C 9,0 C 62 % 1018,8 hPa 0,0 mm 9,2 km/h (2 Bft) W 270 0 min 2,3 C 14,9 km/h (3 Bft)
21.02.2016 18:43 9,2 C 9,0 C 62 % 1018,7 hPa 0,0 mm 9,2 km/h (2 Bft) SW 225 0 min 2,3 C 10,7 km/h (2 Bft)
21.02.2016 18:44 9,2 C 9,0 C 62 % 1018,7 hPa 0,0 mm 9,2 km/h (2 Bft) SW 225 0 min 2,3 C 10,7 km/h (2 Bft)
21.02.2016 18:45 9,2 C 8,9 C 62 % 1018,7 hPa 0,0 mm 9,2 km/h (2 Bft) W-SW 247 0 min 2,3 C 15,2 km/h (3 Bft)
21.02.2016 18:46 9,2 C 8,9 C 62 % 1018,7 hPa 0,0 mm 9,2 km/h (2 Bft) W-SW 247 0 min 2,3 C 15,2 km/h (3 Bft)
21.02.2016 18:47 9,2 C 8,9 C 62 % 1018,7 hPa 0,0 mm 9,8 km/h (2 Bft) SW 225 0 min 2,3 C 11,3 km/h (2 Bft)
21.02.2016 18:48 9,2 C 8,9 C 62 % 1018,7 hPa 0,0 mm 9,8 km/h (2 Bft) SW 225 0 min 2,3 C 11,3 km/h (2 Bft)
21.02.2016 18:49 9,2 C 8,9 C 62 % 1018,7 hPa 0,0 mm 10,4 km/h (2 Bft) W-SW 247 0 min 2,3 C 13,7 km/h (3 Bft)
21.02.2016 18:50 9,2 C 8,9 C 62 % 1018,7 hPa 0,0 mm 10,4 km/h (2 Bft) W-SW 247 0 min 2,3 C 13,7 km/h (3 Bft)
21.02.2016 18:51 9,3 C 8,9 C 62 % 1018,7 hPa 0,0 mm 10,4 km/h (2 Bft) W-SW 247 0 min 2,4 C 10,1 km/h (2 Bft)
21.02.2016 18:52 9,3 C 8,9 C 62 % 1018,7 hPa 0,0 mm 10,4 km/h (2 Bft) W-SW 247 0 min 2,4 C 10,1 km/h (2 Bft)
21.02.2016 18:53 9,3 C 8,9 C 62 % 1018,7 hPa 0,0 mm 10,4 km/h (2 Bft) W-SW 247 0 min 2,4 C 11,9 km/h (2 Bft)
21.02.2016 18:54 9,3 C 8,9 C 62 % 1018,7 hPa 0,0 mm 10,4 km/h (2 Bft) W-SW 247 0 min 2,4 C 11,9 km/h (2 Bft)
21.02.2016 18:55 9,2 C 8,9 C 61 % 1018,7 hPa 0,0 mm 10,4 km/h (2 Bft) SW 225 0 min 2,1 C 13,1 km/h (3 Bft)
21.02.2016 18:56 9,2 C 8,9 C 61 % 1018,7 hPa 0,0 mm 10,4 km/h (2 Bft) SW 225 0 min 2,1 C 13,1 km/h (3 Bft)
21.02.2016 18:57 9,1 C 8,8 C 62 % 1018,7 hPa 0,0 mm 9,8 km/h (2 Bft) W-SW 247 0 min 2,2 C 9,8 km/h (2 Bft)
21.02.2016 18:58 9,1 C 8,8 C 62 % 1018,7 hPa 0,0 mm 9,8 km/h (2 Bft) W-SW 247 0 min 2,2 C 9,8 km/h (2 Bft)
21.02.2016 18:59 9,1 C 8,8 C 62 % 1018,7 hPa 0,0 mm 9,2 km/h (2 Bft) SW 225 0 min 2,2 C 10,1 km/h (2 Bft)
21.02.2016 19:00 9,1 C 8,8 C 62 % 1018,7 hPa 0,0 mm 9,2 km/h (2 Bft) SW 225 0 min 2,2 C 10,1 km/h (2 Bft)
21.02.2016 19:01 9,0 C 8,8 C 62 % 1018,7 hPa 0,0 mm 9,2 km/h (2 Bft) SW 225 0 min 2,1 C 12,2 km/h (2 Bft)
21.02.2016 19:02 9,0 C 8,8 C 62 % 1018,7 hPa 0,0 mm 9,2 km/h (2 Bft) SW 225 0 min 2,1 C 12,2 km/h (2 Bft)
21.02.2016 19:03 9,0 C 8,7 C 62 % 1018,4 hPa 0,0 mm 8,9 km/h (2 Bft) N 0 0 min 2,1 C 7,7 km/h (2 Bft)
21.02.2016 19:04 9,0 C 8,7 C 62 % 1018,4 hPa 0,0 mm 8,9 km/h (2 Bft) N 0 0 min 2,1 C 7,7 km/h (2 Bft)
21.02.2016 19:05 9,0 C 8,7 C 62 % 1018,4 hPa 0,0 mm 8,9 km/h (2 Bft) N 0 0 min 2,1 C 8,3 km/h (2 Bft)
21.02.2016 19:06 9,0 C 8,7 C 62 % 1018,4 hPa 0,0 mm 8,9 km/h (2 Bft) N 0 0 min 2,1 C 8,3 km/h (2 Bft)
21.02.2016 19:07 9,0 C 8,7 C 62 % 1018,4 hPa 0,0 mm 8,9 km/h (2 Bft) N 0 0 min 2,1 C 11,0 km/h (2 Bft)
21.02.2016 19:08 9,0 C 8,7 C 62 % 1018,4 hPa 0,0 mm 8,9 km/h (2 Bft) N 0 0 min 2,1 C 11,0 km/h (2 Bft)
21.02.2016 19:09 8,9 C 8,7 C 62 % 1018,4 hPa 0,0 mm 8,6 km/h (2 Bft) N 0 0 min 2,0 C 13,4 km/h (3 Bft)
21.02.2016 19:10 8,9 C 8,7 C 62 % 1018,4 hPa 0,0 mm 8,6 km/h (2 Bft) N 0 0 min 2,0 C 13,4 km/h (3 Bft)
21.02.2016 19:11 8,9 C 8,7 C 62 % 1018,4 hPa 0,0 mm 8,6 km/h (2 Bft) N 0 0 min 2,0 C 13,4 km/h (3 Bft)
21.02.2016 19:12 8,9 C 8,7 C 62 % 1018,4 hPa 0,0 mm 8,6 km/h (2 Bft) W-SW 247 0 min 2,0 C 13,4 km/h (3 Bft)
21.02.2016 19:13 8,9 C 8,6 C 61 % 1018,4 hPa 0,0 mm 8,6 km/h (2 Bft) SW 225 0 min 1,8 C 10,7 km/h (2 Bft)
21.02.2016 19:14 8,9 C 8,6 C 61 % 1018,4 hPa 0,0 mm 8,6 km/h (2 Bft) SW 225 0 min 1,8 C 10,7 km/h (2 Bft)
21.02.2016 19:15 9,0 C 8,7 C 61 % 1018,4 hPa 0,0 mm 8,9 km/h (2 Bft) S-SW 202 0 min 1,9 C 12,5 km/h (3 Bft)
21.02.2016 19:16 9,0 C 8,7 C 61 % 1018,4 hPa 0,0 mm 8,9 km/h (2 Bft) S-SW 202 0 min 1,9 C 12,5 km/h (3 Bft)
21.02.2016 19:17 9,0 C 8,7 C 60 % 1018,4 hPa 0,0 mm 8,6 km/h (2 Bft) W-SW 247 0 min 1,7 C 9,2 km/h (2 Bft)
21.02.2016 19:18 9,0 C 8,7 C 60 % 1018,4 hPa 0,0 mm 8,6 km/h (2 Bft) W-SW 247 0 min 1,7 C 9,2 km/h (2 Bft)
21.02.2016 19:19 9,0 C 8,7 C 60 % 1016,9 hPa 0,0 mm 9,2 km/h (2 Bft) SW 225 0 min 1,7 C 11,3 km/h (2 Bft)
21.02.2016 19:21 9,0 C 8,7 C 60 % 1016,9 hPa 0,0 mm 8,9 km/h (2 Bft) W 270 0 min 1,7 C 10,1 km/h (2 Bft)
21.02.2016 19:22 9,0 C 8,7 C 60 % 1016,9 hPa 0,0 mm 8,9 km/h (2 Bft) W 270 0 min 1,7 C 10,1 km/h (2 Bft)
21.02.2016 19:23 9,1 C 8,8 C 59 % 1016,9 hPa 0,0 mm 8,9 km/h (2 Bft) SW 225 0 min 1,5 C 9,8 km/h (2 Bft)
21.02.2016 19:24 9,1 C 8,8 C 59 % 1016,9 hPa 0,0 mm 8,9 km/h (2 Bft) SW 225 0 min 1,5 C 9,8 km/h (2 Bft)
21.02.2016 19:25 9,1 C 8,8 C 59 % 1016,9 hPa 0,0 mm 9,2 km/h (2 Bft) SW 225 0 min 1,5 C 11,3 km/h (2 Bft)
21.02.2016 19:26 9,1 C 8,8 C 59 % 1016,9 hPa 0,0 mm 9,2 km/h (2 Bft) SW 225 0 min 1,5 C 11,3 km/h (2 Bft)
21.02.2016 19:27 9,1 C 8,7 C 59 % 1016,9 hPa 0,0 mm 9,5 km/h (2 Bft) W 270 0 min 1,5 C 11,0 km/h (2 Bft)
21.02.2016 19:28 9,1 C 8,7 C 59 % 1016,9 hPa 0,0 mm 9,5 km/h (2 Bft) W 270 0 min 1,5 C 11,0 km/h (2 Bft)
21.02.2016 19:29 9,2 C 8,8 C 59 % 1016,9 hPa 0,0 mm 9,8 km/h (2 Bft) SW 225 0 min 1,6 C 11,3 km/h (2 Bft)
21.02.2016 19:30 9,2 C 8,8 C 59 % 1016,9 hPa 0,0 mm 9,8 km/h (2 Bft) SW 225 0 min 1,6 C 11,3 km/h (2 Bft)
21.02.2016 19:31 9,2 C 8,8 C 59 % 1016,9 hPa 0,0 mm 10,1 km/h (2 Bft) W-SW 247 0 min 1,6 C 11,0 km/h (2 Bft)
21.02.2016 19:32 9,2 C 8,8 C 59 % 1016,9 hPa 0,0 mm 10,1 km/h (2 Bft) W-SW 247 0 min 1,6 C 11,0 km/h (2 Bft)
21.02.2016 19:33 9,2 C 8,8 C 58 % 1016,9 hPa 0,0 mm 10,4 km/h (2 Bft) W-SW 247 0 min 1,4 C 14,0 km/h (3 Bft)
21.02.2016 19:34 9,2 C 8,8 C 58 % 1016,9 hPa 0,0 mm 10,4 km/h (2 Bft) W-SW 247 0 min 1,4 C 14,0 km/h (3 Bft)
21.02.2016 19:35 9,2 C 8,8 C 58 % 1016,9 hPa 0,0 mm 10,4 km/h (2 Bft) W-SW 247 0 min 1,4 C 11,0 km/h (2 Bft)
21.02.2016 19:36 9,2 C 8,8 C 58 % 1016,9 hPa 0,0 mm 10,4 km/h (2 Bft) W-SW 247 0 min 1,4 C 11,0 km/h (2 Bft)
21.02.2016 19:37 9,2 C 8,8 C 58 % 1016,9 hPa 0,0 mm 10,4 km/h (2 Bft) S-SW 202 0 min 1,4 C 12,5 km/h (3 Bft)
21.02.2016 19:38 9,2 C 8,8 C 58 % 1016,9 hPa 0,0 mm 10,4 km/h (2 Bft) S-SW 202 0 min 1,4 C 12,5 km/h (3 Bft)
21.02.2016 19:39 9,3 C 8,9 C 58 % 1016,9 hPa 0,0 mm 10,7 km/h (2 Bft) W-SW 247 0 min 1,5 C 14,9 km/h (3 Bft)
21.02.2016 19:40 9,3 C 8,9 C 58 % 1016,9 hPa 0,0 mm 10,7 km/h (2 Bft) W-SW 247 0 min 1,5 C 14,9 km/h (3 Bft)
21.02.2016 19:41 9,4 C 9,0 C 58 % 1016,9 hPa 0,0 mm 10,7 km/h (2 Bft) W 270 0 min 1,6 C 12,8 km/h (3 Bft)
21.02.2016 19:42 9,4 C 9,0 C 58 % 1016,9 hPa 0,0 mm 10,7 km/h (2 Bft) W 270 0 min 1,6 C 12,8 km/h (3 Bft)
21.02.2016 19:43 9,3 C 8,9 C 58 % 1016,5 hPa 0,0 mm 10,7 km/h (2 Bft) SW 225 0 min 1,5 C 11,9 km/h (2 Bft)
21.02.2016 19:44 9,3 C 8,9 C 58 % 1016,5 hPa 0,0 mm 10,7 km/h (2 Bft) SW 225 0 min 1,5 C 11,9 km/h (2 Bft)
21.02.2016 19:45 9,2 C 8,8 C 57 % 1016,5 hPa 0,0 mm 10,7 km/h (2 Bft) SW 225 0 min 1,1 C 11,0 km/h (2 Bft)
21.02.2016 19:46 9,2 C 8,8 C 57 % 1016,5 hPa 0,0 mm 10,7 km/h (2 Bft) SW 225 0 min 1,1 C 11,0 km/h (2 Bft)
21.02.2016 19:47 9,1 C 8,8 C 57 % 1016,5 hPa 0,0 mm 11,0 km/h (2 Bft) S-SW 202 0 min 1,0 C 13,1 km/h (3 Bft)
21.02.2016 19:48 9,1 C 8,8 C 57 % 1016,5 hPa 0,0 mm 11,0 km/h (2 Bft) S-SW 202 0 min 1,0 C 13,1 km/h (3 Bft)
21.02.2016 19:49 9,2 C 8,8 C 57 % 1016,5 hPa 0,0 mm 10,7 km/h (2 Bft) W-NW 292 0 min 1,1 C 13,1 km/h (3 Bft)
21.02.2016 19:50 9,2 C 8,8 C 57 % 1016,5 hPa 0,0 mm 10,7 km/h (2 Bft) W-NW 292 0 min 1,1 C 13,1 km/h (3 Bft)
21.02.2016 19:51 9,2 C 8,8 C 57 % 1016,5 hPa 0,0 mm 10,7 km/h (2 Bft) SW 225 0 min 1,1 C 13,4 km/h (3 Bft)
21.02.2016 19:52 9,2 C 8,8 C 57 % 1016,5 hPa 0,0 mm 10,7 km/h (2 Bft) SW 225 0 min 1,1 C 13,4 km/h (3 Bft)
21.02.2016 19:53 9,2 C 8,8 C 56 % 1016,5 hPa 0,0 mm 10,7 km/h (2 Bft) W-SW 247 0 min 0,9 C 8,9 km/h (2 Bft)
21.02.2016 19:54 9,2 C 8,8 C 56 % 1016,5 hPa 0,0 mm 10,7 km/h (2 Bft) W-SW 247 0 min 0,9 C 8,9 km/h (2 Bft)
21.02.2016 19:55 9,3 C 8,9 C 56 % 1016,5 hPa 0,0 mm 10,7 km/h (2 Bft) SW 225 0 min 1,0 C 13,4 km/h (3 Bft)
21.02.2016 19:56 9,3 C 8,9 C 56 % 1016,5 hPa 0,0 mm 10,7 km/h (2 Bft) SW 225 0 min 1,0 C 13,4 km/h (3 Bft)
21.02.2016 19:57 9,5 C 9,0 C 55 % 1016,5 hPa 0,0 mm 11,0 km/h (2 Bft) SW 225 0 min 0,9 C 10,7 km/h (2 Bft)
21.02.2016 19:58 9,5 C 9,0 C 55 % 1016,5 hPa 0,0 mm 11,0 km/h (2 Bft) SW 225 0 min 0,9 C 10,7 km/h (2 Bft)
21.02.2016 19:59 9,6 C 9,1 C 54 % 1016,5 hPa 0,0 mm 11,3 km/h (2 Bft) SW 225 0 min 0,8 C 14,9 km/h (3 Bft)
21.02.2016 20:00 9,6 C 9,1 C 54 % 1016,5 hPa 0,0 mm 11,3 km/h (2 Bft) SW 225 0 min 0,8 C 14,9 km/h (3 Bft)
21.02.2016 20:01 9,7 C 9,2 C 53 % 1016,5 hPa 0,0 mm 11,6 km/h (2 Bft) SW 225 0 min 0,6 C 13,1 km/h (3 Bft)
21.02.2016 20:02 9,7 C 9,2 C 53 % 1016,5 hPa 0,0 mm 11,6 km/h (2 Bft) SW 225 0 min 0,6 C 13,1 km/h (3 Bft)
21.02.2016 20:03 9,8 C 9,3 C 52 % 1016,6 hPa 0,0 mm 11,6 km/h (2 Bft) SW 225 0 min 0,4 C 16,1 km/h (3 Bft)
21.02.2016 20:04 9,8 C 9,3 C 52 % 1016,6 hPa 0,0 mm 11,6 km/h (2 Bft) SW 225 0 min 0,4 C 16,1 km/h (3 Bft)
21.02.2016 20:05 9,9 C 9,5 C 52 % 1016,6 hPa 0,0 mm 11,6 km/h (2 Bft) S-SW 202 0 min 0,5 C 12,2 km/h (2 Bft)
21.02.2016 20:06 9,9 C 9,5 C 52 % 1016,6 hPa 0,0 mm 11,6 km/h (2 Bft) S-SW 202 0 min 0,5 C 12,2 km/h (2 Bft)
21.02.2016 20:07 9,8 C 9,4 C 51 % 1016,6 hPa 0,0 mm 11,6 km/h (2 Bft) SW 225 0 min 0,2 C 13,1 km/h (3 Bft)
21.02.2016 20:08 9,8 C 9,4 C 51 % 1016,6 hPa 0,0 mm 11,6 km/h (2 Bft) SW 225 0 min 0,2 C 13,1 km/h (3 Bft)
21.02.2016 20:09 9,9 C 9,5 C 50 % 1016,6 hPa 0,0 mm 11,3 km/h (2 Bft) W-SW 247 0 min -0,0 C 11,0 km/h (2 Bft)
21.02.2016 20:10 9,9 C 9,5 C 50 % 1016,6 hPa 0,0 mm 11,3 km/h (2 Bft) W-SW 247 0 min -0,0 C 11,0 km/h (2 Bft)
21.02.2016 20:11 9,9 C 9,5 C 50 % 1016,6 hPa 0,0 mm 10,7 km/h (2 Bft) W 270 0 min -0,0 C 15,2 km/h (3 Bft)
21.02.2016 20:12 9,9 C 9,5 C 50 % 1016,6 hPa 0,0 mm 10,7 km/h (2 Bft) W 270 0 min -0,0 C 15,2 km/h (3 Bft)
21.02.2016 20:13 9,9 C 9,5 C 49 % 1016,6 hPa 0,0 mm 10,7 km/h (2 Bft) SW 225 0 min -0,3 C 10,7 km/h (2 Bft)
21.02.2016 20:14 9,9 C 9,5 C 49 % 1016,6 hPa 0,0 mm 10,7 km/h (2 Bft) SW 225 0 min -0,3 C 10,7 km/h (2 Bft)
21.02.2016 20:15 9,9 C 9,6 C 48 % 1016,6 hPa 0,0 mm 10,7 km/h (2 Bft) SW 225 0 min -0,6 C 8,6 km/h (2 Bft)
21.02.2016 20:16 9,9 C 9,6 C 48 % 1016,6 hPa 0,0 mm 10,7 km/h (2 Bft) SW 225 0 min -0,6 C 8,6 km/h (2 Bft)
21.02.2016 20:17 10,1 C 9,7 C 48 % 1016,6 hPa 0,0 mm 11,3 km/h (2 Bft) SW 225 0 min -0,4 C 12,8 km/h (3 Bft)
21.02.2016 20:18 10,1 C 9,7 C 48 % 1016,6 hPa 0,0 mm 11,3 km/h (2 Bft) SW 225 0 min -0,4 C 12,8 km/h (3 Bft)
21.02.2016 20:19 10,1 C 9,8 C 47 % 1016,6 hPa 0,0 mm 11,6 km/h (2 Bft) SW 225 0 min -0,7 C 15,8 km/h (3 Bft)
21.02.2016 20:20 10,1 C 9,8 C 47 % 1016,6 hPa 0,0 mm 11,6 km/h (2 Bft) SW 225 0 min -0,7 C 15,8 km/h (3 Bft)
21.02.2016 20:21 10,1 C 9,7 C 46 % 1016,6 hPa 0,0 mm 12,2 km/h (2 Bft) SW 225 0 min -1,0 C 16,7 km/h (3 Bft)
21.02.2016 20:22 10,1 C 9,7 C 46 % 1016,6 hPa 0,0 mm 12,2 km/h (2 Bft) SW 225 0 min -1,0 C 16,7 km/h (3 Bft)
21.02.2016 20:23 10,2 C 9,8 C 46 % 1016,4 hPa 0,0 mm 12,5 km/h (3 Bft) S-SW 202 0 min -0,9 C 14,6 km/h (3 Bft)
21.02.2016 20:24 10,2 C 9,8 C 46 % 1016,4 hPa 0,0 mm 12,5 km/h (3 Bft) S-SW 202 0 min -0,9 C 14,6 km/h (3 Bft)
21.02.2016 20:25 10,1 C 9,7 C 46 % 1016,4 hPa 0,0 mm 12,2 km/h (2 Bft) S-SW 202 0 min -1,0 C 12,8 km/h (3 Bft)
21.02.2016 20:26 10,1 C 9,7 C 46 % 1016,4 hPa 0,0 mm 12,2 km/h (2 Bft) S-SW 202 0 min -1,0 C 12,8 km/h (3 Bft)
21.02.2016 20:27 10,3 C 9,8 C 45 % 1016,4 hPa 0,0 mm 13,4 km/h (3 Bft) SW 225 0 min -1,1 C 16,7 km/h (3 Bft)
21.02.2016 20:28 10,3 C 9,8 C 45 % 1016,4 hPa 0,0 mm 13,4 km/h (3 Bft) SW 225 0 min -1,1 C 16,7 km/h (3 Bft)
21.02.2016 20:29 10,3 C 9,8 C 45 % 1016,4 hPa 0,0 mm 13,4 km/h (3 Bft) SW 225 0 min -1,1 C 11,9 km/h (2 Bft)
21.02.2016 20:30 10,3 C 9,8 C 45 % 1016,4 hPa 0,0 mm 13,4 km/h (3 Bft) SW 225 0 min -1,1 C 11,9 km/h (2 Bft)
21.02.2016 20:31 10,3 C 9,9 C 45 % 1016,4 hPa 0,0 mm 13,7 km/h (3 Bft) S 180 0 min -1,1 C 21,8 km/h (4 Bft)
21.02.2016 20:32 10,3 C 9,9 C 45 % 1016,4 hPa 0,0 mm 13,7 km/h (3 Bft) S 180 0 min -1,1 C 21,8 km/h (4 Bft)
21.02.2016 20:33 10,4 C 9,9 C 44 % 1016,4 hPa 0,0 mm 13,4 km/h (3 Bft) W-SW 247 0 min -1,3 C 14,3 km/h (3 Bft)
21.02.2016 20:35 10,3 C 9,9 C 44 % 1016,4 hPa 0,0 mm 13,4 km/h (3 Bft) W-SW 247 0 min -1,4 C 13,4 km/h (3 Bft)
21.02.2016 20:36 10,3 C 9,9 C 44 % 1016,4 hPa 0,0 mm 13,4 km/h (3 Bft) W-SW 247 0 min -1,4 C 13,4 km/h (3 Bft)
21.02.2016 20:37 10,1 C 9,8 C 45 % 1016,4 hPa 0,0 mm 12,5 km/h (3 Bft) S 180 0 min -1,3 C 11,9 km/h (2 Bft)
21.02.2016 20:38 10,1 C 9,8 C 45 % 1016,4 hPa 0,0 mm 12,5 km/h (3 Bft) S 180 0 min -1,3 C 11,9 km/h (2 Bft)
21.02.2016 20:39 10,0 C 9,7 C 45 % 1016,4 hPa 0,0 mm 11,9 km/h (2 Bft) S 180 0 min -1,4 C 11,6 km/h (2 Bft)
21.02.2016 20:40 10,0 C 9,7 C 45 % 1016,4 hPa 0,0 mm 11,9 km/h (2 Bft) S 180 0 min -1,4 C 11,6 km/h (2 Bft)
21.02.2016 20:41 10,1 C 9,8 C 45 % 1016,4 hPa 0,0 mm 11,3 km/h (2 Bft) W-SW 247 0 min -1,3 C 17,3 km/h (3 Bft)
21.02.2016 20:42 10,1 C 9,8 C 45 % 1016,4 hPa 0,0 mm 11,3 km/h (2 Bft) W-SW 247 0 min -1,3 C 17,3 km/h (3 Bft)
21.02.2016 20:43 10,1 C 9,8 C 45 % 1016,6 hPa 0,0 mm 11,3 km/h (2 Bft) W 270 0 min -1,3 C 17,9 km/h (3 Bft)
21.02.2016 20:44 10,1 C 9,8 C 45 % 1016,6 hPa 0,0 mm 11,3 km/h (2 Bft) W 270 0 min -1,3 C 17,9 km/h (3 Bft)
21.02.2016 20:45 10,1 C 9,8 C 45 % 1016,6 hPa 0,0 mm 11,6 km/h (2 Bft) SW 225 0 min -1,3 C 18,8 km/h (3 Bft)
21.02.2016 20:46 10,1 C 9,8 C 45 % 1016,6 hPa 0,0 mm 11,6 km/h (2 Bft) SW 225 0 min -1,3 C 18,8 km/h (3 Bft)
21.02.2016 20:47 10,0 C 9,6 C 45 % 1016,6 hPa 0,0 mm 12,8 km/h (3 Bft) W-SW 247 0 min -1,4 C 22,9 km/h (4 Bft)
21.02.2016 20:48 10,0 C 9,6 C 45 % 1016,6 hPa 0,0 mm 12,8 km/h (3 Bft) W-SW 247 0 min -1,4 C 22,9 km/h (4 Bft)
21.02.2016 20:49 10,2 C 9,7 C 45 % 1016,6 hPa 0,0 mm 13,4 km/h (3 Bft) S 180 0 min -1,2 C 18,8 km/h (3 Bft)
21.02.2016 20:50 10,2 C 9,7 C 45 % 1016,6 hPa 0,0 mm 13,4 km/h (3 Bft) S 180 0 min -1,2 C 18,8 km/h (3 Bft)
21.02.2016 20:51 10,3 C 9,8 C 45 % 1016,6 hPa 0,0 mm 14,0 km/h (3 Bft) W-SW 247 0 min -1,1 C 12,8 km/h (3 Bft)
21.02.2016 20:52 10,3 C 9,8 C 45 % 1016,6 hPa 0,0 mm 14,0 km/h (3 Bft) W-SW 247 0 min -1,1 C 12,8 km/h (3 Bft)
21.02.2016 20:53 10,3 C 9,8 C 45 % 1016,6 hPa 0,0 mm 14,6 km/h (3 Bft) SW 225 0 min -1,1 C 15,2 km/h (3 Bft)
21.02.2016 20:54 10,3 C 9,8 C 45 % 1016,6 hPa 0,0 mm 14,6 km/h (3 Bft) SW 225 0 min -1,1 C 15,2 km/h (3 Bft)
21.02.2016 20:55 10,2 C 9,7 C 46 % 1016,6 hPa 0,0 mm 14,6 km/h (3 Bft) SW 225 0 min -0,9 C 21,2 km/h (4 Bft)
21.02.2016 20:56 10,2 C 9,7 C 46 % 1016,6 hPa 0,0 mm 14,6 km/h (3 Bft) SW 225 0 min -0,9 C 21,2 km/h (4 Bft)
21.02.2016 20:57 10,1 C 9,6 C 46 % 1016,6 hPa 0,0 mm 14,3 km/h (3 Bft) S 180 0 min -1,0 C 15,2 km/h (3 Bft)
21.02.2016 20:58 10,1 C 9,6 C 46 % 1016,6 hPa 0,0 mm 14,3 km/h (3 Bft) S 180 0 min -1,0 C 15,2 km/h (3 Bft)
21.02.2016 20:59 10,2 C 9,7 C 46 % 1016,6 hPa 0,0 mm 14,6 km/h (3 Bft) SW 225 0 min -0,9 C 14,9 km/h (3 Bft)
21.02.2016 21:00 10,2 C 9,7 C 46 % 1016,6 hPa 0,0 mm 14,6 km/h (3 Bft) SW 225 0 min -0,9 C 14,9 km/h (3 Bft)
21.02.2016 21:01 10,1 C 9,6 C 46 % 1016,6 hPa 0,0 mm 14,3 km/h (3 Bft) W-SW 247 0 min -1,0 C 16,7 km/h (3 Bft)
21.02.2016 21:02 10,1 C 9,6 C 46 % 1016,6 hPa 0,0 mm 14,3 km/h (3 Bft) W-SW 247 0 min -1,0 C 16,7 km/h (3 Bft)
21.02.2016 21:03 10,1 C 9,6 C 46 % 1016,4 hPa 0,0 mm 14,3 km/h (3 Bft) W-SW 247 0 min -1,0 C 13,7 km/h (3 Bft)
21.02.2016 21:04 10,1 C 9,6 C 46 % 1016,4 hPa 0,0 mm 14,3 km/h (3 Bft) W-SW 247 0 min -1,0 C 13,7 km/h (3 Bft)
21.02.2016 21:05 10,1 C 9,6 C 46 % 1016,4 hPa 0,0 mm 14,6 km/h (3 Bft) SW 225 0 min -1,0 C 17,6 km/h (3 Bft)
21.02.2016 21:06 10,1 C 9,6 C 46 % 1016,4 hPa 0,0 mm 14,6 km/h (3 Bft) SW 225 0 min -1,0 C 17,6 km/h (3 Bft)
21.02.2016 21:07 10,2 C 9,7 C 46 % 1016,4 hPa 0,0 mm 14,3 km/h (3 Bft) SW 225 0 min -0,9 C 14,0 km/h (3 Bft)
21.02.2016 21:08 10,2 C 9,7 C 46 % 1016,4 hPa 0,0 mm 14,3 km/h (3 Bft) SW 225 0 min -0,9 C 14,0 km/h (3 Bft)
21.02.2016 21:09 10,2 C 9,7 C 46 % 1016,4 hPa 0,0 mm 13,7 km/h (3 Bft) SW 225 0 min -0,9 C 19,7 km/h (3 Bft)
21.02.2016 21:10 10,2 C 9,7 C 46 % 1016,4 hPa 0,0 mm 13,7 km/h (3 Bft) SW 225 0 min -0,9 C 19,7 km/h (3 Bft)
21.02.2016 21:11 10,2 C 9,7 C 46 % 1016,4 hPa 0,0 mm 13,4 km/h (3 Bft) W-SW 247 0 min -0,9 C 12,5 km/h (3 Bft)
21.02.2016 21:12 10,2 C 9,7 C 46 % 1016,4 hPa 0,0 mm 13,4 km/h (3 Bft) W-SW 247 0 min -0,9 C 12,5 km/h (3 Bft)
21.02.2016 21:13 10,0 C 9,6 C 46 % 1016,4 hPa 0,0 mm 12,5 km/h (3 Bft) W-SW 247 0 min -1,1 C 11,6 km/h (2 Bft)
21.02.2016 21:14 10,0 C 9,6 C 46 % 1016,4 hPa 0,0 mm 12,5 km/h (3 Bft) W-SW 247 0 min -1,1 C 11,6 km/h (2 Bft)
21.02.2016 21:15 10,1 C 9,7 C 46 % 1016,4 hPa 0,0 mm 12,5 km/h (3 Bft) W-SW 247 0 min -1,0 C 18,2 km/h (3 Bft)
21.02.2016 21:16 10,1 C 9,7 C 46 % 1016,4 hPa 0,0 mm 12,5 km/h (3 Bft) W-SW 247 0 min -1,0 C 18,2 km/h (3 Bft)
21.02.2016 21:17 10,2 C 9,8 C 46 % 1016,4 hPa 0,0 mm 11,9 km/h (2 Bft) W-SW 247 0 min -0,9 C 17,6 km/h (3 Bft)
21.02.2016 21:18 10,2 C 9,8 C 46 % 1016,4 hPa 0,0 mm 11,9 km/h (2 Bft) W-SW 247 0 min -0,9 C 17,6 km/h (3 Bft)
21.02.2016 21:19 10,3 C 9,9 C 45 % 1016,4 hPa 0,0 mm 12,2 km/h (2 Bft) W-SW 247 0 min -1,1 C 16,7 km/h (3 Bft)
21.02.2016 21:20 10,3 C 9,9 C 45 % 1016,4 hPa 0,0 mm 12,2 km/h (2 Bft) W-SW 247 0 min -1,1 C 16,7 km/h (3 Bft)
21.02.2016 21:21 10,5 C 10,0 C 44 % 1016,4 hPa 0,0 mm 12,8 km/h (3 Bft) S-SW 202 0 min -1,2 C 14,6 km/h (3 Bft)
21.02.2016 21:22 10,5 C 10,0 C 44 % 1016,4 hPa 0,0 mm 12,8 km/h (3 Bft) S-SW 202 0 min -1,2 C 14,6 km/h (3 Bft)
21.02.2016 21:23 10,4 C 9,9 C 44 % 1016,2 hPa 0,0 mm 13,4 km/h (3 Bft) SW 225 0 min -1,3 C 14,9 km/h (3 Bft)
21.02.2016 21:24 10,4 C 9,9 C 44 % 1016,2 hPa 0,0 mm 13,4 km/h (3 Bft) SW 225 0 min -1,3 C 14,9 km/h (3 Bft)
21.02.2016 21:25 10,4 C 9,9 C 43 % 1016,2 hPa 0,0 mm 14,6 km/h (3 Bft) SW 225 0 min -1,6 C 17,0 km/h (3 Bft)
21.02.2016 21:26 10,4 C 9,9 C 43 % 1016,2 hPa 0,0 mm 14,6 km/h (3 Bft) SW 225 0 min -1,6 C 17,0 km/h (3 Bft)
21.02.2016 21:27 10,3 C 9,9 C 43 % 1016,2 hPa 0,0 mm 14,6 km/h (3 Bft) S-SW 202 0 min -1,7 C 14,9 km/h (3 Bft)
21.02.2016 21:28 10,3 C 9,9 C 43 % 1016,2 hPa 0,0 mm 14,6 km/h (3 Bft) S-SW 202 0 min -1,7 C 14,9 km/h (3 Bft)
21.02.2016 21:29 10,4 C 10,1 C 42 % 1016,2 hPa 0,0 mm 14,9 km/h (3 Bft) SW 225 0 min -1,9 C 22,7 km/h (4 Bft)
21.02.2016 21:30 10,4 C 10,0 C 42 % 1016,2 hPa 0,0 mm 14,9 km/h (3 Bft) SW 225 0 min -1,9 C 22,7 km/h (4 Bft)
21.02.2016 21:31 10,5 C 10,0 C 41 % 1016,2 hPa 0,0 mm 15,5 km/h (3 Bft) SW 225 0 min -2,2 C 21,2 km/h (4 Bft)
21.02.2016 21:32 10,5 C 10,0 C 41 % 1016,2 hPa 0,0 mm 15,5 km/h (3 Bft) SW 225 0 min -2,2 C 21,2 km/h (4 Bft)
21.02.2016 21:33 10,0 C 9,7 C 42 % 1016,2 hPa 0,0 mm 14,6 km/h (3 Bft) S 180 0 min -2,3 C 19,1 km/h (3 Bft)
21.02.2016 21:34 10,0 C 9,7 C 42 % 1016,2 hPa 0,0 mm 14,6 km/h (3 Bft) S 180 0 min -2,3 C 19,1 km/h (3 Bft)
21.02.2016 21:35 9,8 C 9,6 C 42 % 1016,2 hPa 0,0 mm 14,3 km/h (3 Bft) W-SW 247 0 min -2,5 C 8,6 km/h (2 Bft)
21.02.2016 21:36 9,8 C 9,5 C 42 % 1016,2 hPa 0,0 mm 14,3 km/h (3 Bft) W-SW 247 0 min -2,5 C 8,6 km/h (2 Bft)
21.02.2016 21:37 9,4 C 9,2 C 42 % 1016,2 hPa 0,0 mm 13,4 km/h (3 Bft) S 180 0 min -2,8 C 6,6 km/h (2 Bft)
21.02.2016 21:38 9,4 C 9,2 C 42 % 1016,2 hPa 0,0 mm 13,4 km/h (3 Bft) S 180 0 min -2,8 C 6,6 km/h (2 Bft)
21.02.2016 21:39 9,1 C 8,9 C 43 % 1016,2 hPa 0,0 mm 12,2 km/h (2 Bft) W-SW 247 0 min -2,8 C 18,2 km/h (3 Bft)
21.02.2016 21:40 9,1 C 8,9 C 43 % 1016,2 hPa 0,0 mm 12,2 km/h (2 Bft) W-SW 247 0 min -2,8 C 18,2 km/h (3 Bft)
21.02.2016 21:41 8,9 C 8,8 C 43 % 1016,2 hPa 0,0 mm 10,7 km/h (2 Bft) SW 225 0 min -3,0 C 13,4 km/h (3 Bft)
21.02.2016 21:42 8,9 C 8,8 C 43 % 1016,2 hPa 0,0 mm 10,7 km/h (2 Bft) SW 225 0 min -3,0 C 13,4 km/h (3 Bft)
21.02.2016 21:43 9,0 C 8,9 C 43 % 1015,9 hPa 0,0 mm 10,4 km/h (2 Bft) W-SW 247 0 min -2,9 C 16,7 km/h (3 Bft)
21.02.2016 21:44 9,0 C 8,9 C 43 % 1015,9 hPa 0,0 mm 10,4 km/h (2 Bft) W-SW 247 0 min -2,9 C 16,7 km/h (3 Bft)
21.02.2016 21:45 9,0 C 8,8 C 43 % 1015,9 hPa 0,0 mm 10,7 km/h (2 Bft) SW 225 0 min -2,9 C 16,7 km/h (3 Bft)
21.02.2016 21:46 9,0 C 8,8 C 43 % 1015,9 hPa 0,0 mm 10,7 km/h (2 Bft) SW 225 0 min -2,9 C 16,7 km/h (3 Bft)
21.02.2016 21:47 9,1 C 8,9 C 43 % 1015,9 hPa 0,0 mm 11,0 km/h (2 Bft) S 180 0 min -2,8 C 16,7 km/h (3 Bft)
21.02.2016 21:48 9,1 C 8,9 C 43 % 1015,9 hPa 0,0 mm 11,0 km/h (2 Bft) S 180 0 min -2,8 C 16,7 km/h (3 Bft)
21.02.2016 21:49 9,2 C 8,9 C 43 % 1015,9 hPa 0,0 mm 11,6 km/h (2 Bft) S-SW 202 0 min -2,7 C 14,3 km/h (3 Bft)
21.02.2016 21:50 9,2 C 8,9 C 43 % 1015,9 hPa 0,0 mm 11,6 km/h (2 Bft) S-SW 202 0 min -2,7 C 14,3 km/h (3 Bft)
21.02.2016 21:51 9,1 C 8,8 C 43 % 1015,9 hPa 0,0 mm 11,9 km/h (2 Bft) SW 225 0 min -2,8 C 22,7 km/h (4 Bft)
21.02.2016 21:52 9,1 C 8,8 C 43 % 1015,9 hPa 0,0 mm 11,9 km/h (2 Bft) SW 225 0 min -2,8 C 22,7 km/h (4 Bft)
21.02.2016 21:53 9,2 C 8,8 C 42 % 1015,9 hPa 0,0 mm 13,4 km/h (3 Bft) SW 225 0 min -3,0 C 25,3 km/h (4 Bft)
21.02.2016 21:54 9,2 C 8,8 C 42 % 1015,9 hPa 0,0 mm 13,4 km/h (3 Bft) SW 225 0 min -3,0 C 25,3 km/h (4 Bft)
21.02.2016 21:55 9,4 C 9,0 C 42 % 1015,9 hPa 0,0 mm 14,3 km/h (3 Bft) S-SW 202 0 min -2,8 C 22,7 km/h (4 Bft)
21.02.2016 21:56 9,4 C 9,0 C 42 % 1015,9 hPa 0,0 mm 14,3 km/h (3 Bft) S-SW 202 0 min -2,8 C 22,7 km/h (4 Bft)
21.02.2016 21:57 9,8 C 9,4 C 41 % 1015,9 hPa 0,0 mm 14,9 km/h (3 Bft) SW 225 0 min -2,8 C 18,8 km/h (3 Bft)
21.02.2016 21:58 9,8 C 9,3 C 41 % 1015,9 hPa 0,0 mm 14,9 km/h (3 Bft) SW 225 0 min -2,8 C 18,8 km/h (3 Bft)
21.02.2016 21:59 9,8 C 9,5 C 40 % 1015,9 hPa 0,0 mm 15,2 km/h (3 Bft) S-SO 157 0 min -3,1 C 17,0 km/h (3 Bft)
21.02.2016 22:00 9,8 C 9,4 C 40 % 1015,9 hPa 0,0 mm 15,2 km/h (3 Bft) S-SO 157 0 min -3,1 C 17,0 km/h (3 Bft)
21.02.2016 22:01 9,9 C 9,6 C 39 % 1015,9 hPa 0,0 mm 15,8 km/h (3 Bft) W-SW 247 0 min -3,4 C 12,8 km/h (3 Bft)
21.02.2016 22:02 9,9 C 9,5 C 39 % 1015,9 hPa 0,0 mm 15,8 km/h (3 Bft) W-SW 247 0 min -3,4 C 12,8 km/h (3 Bft)
21.02.2016 22:03 9,9 C 9,6 C 39 % 1015,9 hPa 0,0 mm 14,9 km/h (3 Bft) SW 225 0 min -3,4 C 15,8 km/h (3 Bft)
21.02.2016 22:04 9,9 C 9,5 C 39 % 1015,9 hPa 0,0 mm 14,9 km/h (3 Bft) SW 225 0 min -3,4 C 15,8 km/h (3 Bft)
21.02.2016 22:05 9,9 C 9,5 C 39 % 1015,9 hPa 0,0 mm 14,0 km/h (3 Bft) SW 225 0 min -3,4 C 14,9 km/h (3 Bft)
21.02.2016 22:06 9,9 C 9,5 C 39 % 1015,9 hPa 0,0 mm 14,0 km/h (3 Bft) SW 225 0 min -3,4 C 14,9 km/h (3 Bft)
21.02.2016 22:07 9,6 C 9,4 C 39 % 1015,9 hPa 0,0 mm 12,8 km/h (3 Bft) SW 225 0 min -3,7 C 8,9 km/h (2 Bft)
21.02.2016 22:08 9,6 C 9,4 C 39 % 1015,9 hPa 0,0 mm 12,8 km/h (3 Bft) SW 225 0 min -3,7 C 8,9 km/h (2 Bft)
21.02.2016 22:09 9,5 C 9,3 C 39 % 1015,9 hPa 0,0 mm 11,3 km/h (2 Bft) SW 225 0 min -3,7 C 9,2 km/h (2 Bft)
21.02.2016 22:10 9,5 C 9,3 C 39 % 1015,9 hPa 0,0 mm 11,3 km/h (2 Bft) SW 225 0 min -3,7 C 9,2 km/h (2 Bft)
21.02.2016 22:11 9,3 C 9,2 C 39 % 1015,9 hPa 0,0 mm 9,8 km/h (2 Bft) S-SW 202 0 min -3,9 C 11,0 km/h (2 Bft)
21.02.2016 22:12 9,3 C 9,2 C 39 % 1015,9 hPa 0,0 mm 9,8 km/h (2 Bft) S-SW 202 0 min -3,9 C 11,0 km/h (2 Bft)
21.02.2016 22:13 9,2 C 9,1 C 40 % 1015,9 hPa 0,0 mm 10,1 km/h (2 Bft) SW 225 0 min -3,7 C 11,0 km/h (2 Bft)
21.02.2016 22:14 9,2 C 9,1 C 40 % 1015,9 hPa 0,0 mm 10,1 km/h (2 Bft) SW 225 0 min -3,7 C 11,0 km/h (2 Bft)
21.02.2016 22:15 9,2 C 9,1 C 40 % 1015,9 hPa 0,0 mm 9,5 km/h (2 Bft) SW 225 0 min -3,7 C 15,2 km/h (3 Bft)
21.02.2016 22:16 9,2 C 9,1 C 40 % 1015,9 hPa 0,0 mm 9,5 km/h (2 Bft) SW 225 0 min -3,7 C 15,2 km/h (3 Bft)
21.02.2016 22:17 9,2 C 9,1 C 40 % 1015,9 hPa 0,0 mm 9,8 km/h (2 Bft) SW 225 0 min -3,7 C 15,2 km/h (3 Bft)
21.02.2016 22:18 9,2 C 9,1 C 40 % 1015,9 hPa 0,0 mm 9,8 km/h (2 Bft) SW 225 0 min -3,7 C 15,2 km/h (3 Bft)
21.02.2016 22:19 9,2 C 9,0 C 40 % 1015,9 hPa 0,0 mm 10,1 km/h (2 Bft) S 180 0 min -3,7 C 14,6 km/h (3 Bft)
21.02.2016 22:20 9,2 C 9,0 C 40 % 1015,9 hPa 0,0 mm 10,1 km/h (2 Bft) S 180 0 min -3,7 C 14,6 km/h (3 Bft)
21.02.2016 22:21 9,1 C 8,9 C 39 % 1015,9 hPa 0,0 mm 10,7 km/h (2 Bft) W-SW 247 0 min -4,1 C 14,6 km/h (3 Bft)
21.02.2016 22:22 9,1 C 8,9 C 39 % 1015,9 hPa 0,0 mm 10,7 km/h (2 Bft) W-SW 247 0 min -4,1 C 14,6 km/h (3 Bft)
21.02.2016 22:23 8,9 C 8,8 C 40 % 1015,7 hPa 0,0 mm 10,1 km/h (2 Bft) S-SO 157 0 min -3,9 C 6,9 km/h (2 Bft)
21.02.2016 22:24 8,9 C 8,8 C 40 % 1015,7 hPa 0,0 mm 10,1 km/h (2 Bft) S-SO 157 0 min -3,9 C 6,9 km/h (2 Bft)
21.02.2016 22:25 7,9 C 8,7 C 41 % 1015,7 hPa 0,0 mm 8,6 km/h (2 Bft) NO 45 0 min -4,5 C 3,0 km/h (1 Bft)
21.02.2016 22:26 7,9 C 8,7 C 41 % 1015,7 hPa 0,0 mm 8,6 km/h (2 Bft) NO 45 0 min -4,5 C 3,0 km/h (1 Bft)
21.02.2016 22:27 6,7 C 8,5 C 42 % 1015,7 hPa 0,0 mm 6,9 km/h (2 Bft) O-NO 67 0 min -5,3 C 0,0 km/h (0 Bft)
21.02.2016 22:28 6,7 C 8,5 C 42 % 1015,7 hPa 0,0 mm 6,9 km/h (2 Bft) O-NO 67 0 min -5,3 C 0,0 km/h (0 Bft)
21.02.2016 22:29 5,6 C 7,8 C 46 % 1015,7 hPa 0,0 mm 5,1 km/h (1 Bft) O-NO 67 0 min -5,1 C 0,0 km/h (0 Bft)
21.02.2016 22:30 5,6 C 7,8 C 46 % 1015,7 hPa 0,0 mm 5,1 km/h (1 Bft) O-NO 67 0 min -5,1 C 0,0 km/h (0 Bft)
21.02.2016 22:31 5,0 C 6,9 C 47 % 1015,7 hPa 0,0 mm 2,7 km/h (1 Bft) O-NO 67 0 min -5,4 C 0,0 km/h (0 Bft)
21.02.2016 22:32 5,0 C 6,9 C 47 % 1015,7 hPa 0,0 mm 2,7 km/h (1 Bft) O-NO 67 0 min -5,4 C 0,0 km/h (0 Bft)
21.02.2016 22:33 4,7 C 6,1 C 51 % 1015,7 hPa 0,0 mm 0,9 km/h (0 Bft) SO 135 0 min -4,6 C 0,0 km/h (0 Bft)
21.02.2016 22:34 4,7 C 6,1 C 51 % 1015,7 hPa 0,0 mm 0,9 km/h (0 Bft) SO 135 0 min -4,6 C 0,0 km/h (0 Bft)
21.02.2016 22:35 4,6 C 5,6 C 53 % 1015,7 hPa 0,0 mm 0,3 km/h (0 Bft) O-NO 67 0 min -4,1 C 0,0 km/h (0 Bft)
21.02.2016 22:36 4,6 C 5,6 C 53 % 1015,7 hPa 0,0 mm 0,3 km/h (0 Bft) O-NO 67 0 min -4,1 C 0,0 km/h (0 Bft)
21.02.2016 22:37 4,4 C 5,0 C 54 % 1015,7 hPa 0,0 mm 0,0 km/h (0 Bft) N-NW 337 0 min -4,1 C 0,0 km/h (0 Bft)
21.02.2016 22:38 4,4 C 5,0 C 54 % 1015,7 hPa 0,0 mm 0,0 km/h (0 Bft) N-NW 337 0 min -4,1 C 0,0 km/h (0 Bft)
21.02.2016 22:39 5,0 C 4,8 C 53 % 1015,7 hPa 0,0 mm 1,8 km/h (1 Bft) N-NO 22 0 min -3,8 C 10,1 km/h (2 Bft)
21.02.2016 22:40 5,0 C 4,8 C 53 % 1015,7 hPa 0,0 mm 1,8 km/h (1 Bft) N-NO 22 0 min -3,8 C 10,1 km/h (2 Bft)
21.02.2016 22:41 6,3 C 6,0 C 50 % 1015,7 hPa 0,0 mm 3,0 km/h (1 Bft) W-SW 247 0 min -3,3 C 6,9 km/h (2 Bft)
21.02.2016 22:42 6,3 C 6,0 C 50 % 1015,7 hPa 0,0 mm 3,0 km/h (1 Bft) W-SW 247 0 min -3,3 C 6,9 km/h (2 Bft)
21.02.2016 22:43 7,2 C 6,7 C 50 % 1015,9 hPa 0,0 mm 4,5 km/h (1 Bft) W 270 0 min -2,5 C 7,5 km/h (2 Bft)
21.02.2016 22:44 7,2 C 6,7 C 50 % 1015,9 hPa 0,0 mm 4,5 km/h (1 Bft) W 270 0 min -2,5 C 7,5 km/h (2 Bft)
21.02.2016 22:45 6,2 C 6,1 C 49 % 1015,9 hPa 0,0 mm 6,3 km/h (2 Bft) S-SW 202 0 min -3,7 C 13,4 km/h (3 Bft)
21.02.2016 22:46 6,2 C 6,1 C 49 % 1015,9 hPa 0,0 mm 6,3 km/h (2 Bft) S-SW 202 0 min -3,7 C 13,4 km/h (3 Bft)
21.02.2016 22:47 6,7 C 6,4 C 50 % 1015,9 hPa 0,0 mm 7,7 km/h (2 Bft) W-SW 247 0 min -3,0 C 10,7 km/h (2 Bft)
21.02.2016 22:48 6,7 C 6,4 C 50 % 1015,9 hPa 0,0 mm 7,7 km/h (2 Bft) W-SW 247 0 min -3,0 C 10,7 km/h (2 Bft)
21.02.2016 22:49 7,5 C 7,0 C 50 % 1015,9 hPa 0,0 mm 8,9 km/h (2 Bft) SW 225 0 min -2,2 C 10,7 km/h (2 Bft)
21.02.2016 22:50 7,5 C 7,0 C 50 % 1015,9 hPa 0,0 mm 8,9 km/h (2 Bft) SW 225 0 min -2,2 C 10,7 km/h (2 Bft)
21.02.2016 22:51 7,7 C 7,3 C 49 % 1015,9 hPa 0,0 mm 8,3 km/h (2 Bft) NW 315 0 min -2,3 C 14,6 km/h (3 Bft)
21.02.2016 22:52 7,7 C 7,3 C 49 % 1015,9 hPa 0,0 mm 8,3 km/h (2 Bft) NW 315 0 min -2,3 C 14,6 km/h (3 Bft)
21.02.2016 22:53 8,1 C 7,7 C 49 % 1015,9 hPa 0,0 mm 8,3 km/h (2 Bft) W-SW 247 0 min -2,0 C 9,5 km/h (2 Bft)
21.02.2016 22:54 8,1 C 7,7 C 49 % 1015,9 hPa 0,0 mm 8,3 km/h (2 Bft) W-SW 247 0 min -2,0 C 9,5 km/h (2 Bft)
21.02.2016 22:55 8,3 C 7,8 C 48 % 1015,9 hPa 0,0 mm 9,5 km/h (2 Bft) W-SW 247 0 min -2,1 C 14,0 km/h (3 Bft)
21.02.2016 22:56 8,3 C 7,8 C 48 % 1015,9 hPa 0,0 mm 9,5 km/h (2 Bft) W-SW 247 0 min -2,1 C 14,0 km/h (3 Bft)
21.02.2016 22:57 8,7 C 8,2 C 48 % 1015,9 hPa 0,0 mm 9,8 km/h (2 Bft) W-SW 247 0 min -1,7 C 12,5 km/h (3 Bft)
21.02.2016 22:58 8,7 C 8,2 C 48 % 1015,9 hPa 0,0 mm 9,8 km/h (2 Bft) W-SW 247 0 min -1,7 C 12,5 km/h (3 Bft)
21.02.2016 22:59 8,8 C 8,3 C 48 % 1015,9 hPa 0,0 mm 10,1 km/h (2 Bft) SW 225 0 min -1,6 C 9,8 km/h (2 Bft)
21.02.2016 23:00 8,8 C 8,3 C 48 % 1015,9 hPa 0,0 mm 10,1 km/h (2 Bft) SW 225 0 min -1,6 C 9,8 km/h (2 Bft)
21.02.2016 23:01 8,7 C 8,3 C 47 % 1015,9 hPa 0,0 mm 11,3 km/h (2 Bft) SW 225 0 min -2,0 C 17,0 km/h (3 Bft)
21.02.2016 23:02 8,7 C 8,3 C 47 % 1015,9 hPa 0,0 mm 11,3 km/h (2 Bft) SW 225 0 min -2,0 C 17,0 km/h (3 Bft)
21.02.2016 23:03 9,1 C 8,5 C 47 % 1015,8 hPa 0,0 mm 11,9 km/h (2 Bft) SW 225 0 min -1,6 C 14,3 km/h (3 Bft)
21.02.2016 23:04 9,1 C 8,5 C 47 % 1015,8 hPa 0,0 mm 11,9 km/h (2 Bft) SW 225 0 min -1,6 C 14,3 km/h (3 Bft)
21.02.2016 23:05 9,1 C 8,6 C 48 % 1015,8 hPa 0,0 mm 12,8 km/h (3 Bft) S 180 0 min -1,3 C 18,2 km/h (3 Bft)
21.02.2016 23:06 9,1 C 8,6 C 48 % 1015,8 hPa 0,0 mm 12,8 km/h (3 Bft) S 180 0 min -1,3 C 18,2 km/h (3 Bft)
21.02.2016 23:07 9,2 C 8,7 C 48 % 1015,8 hPa 0,0 mm 12,5 km/h (3 Bft) W-SW 247 0 min -1,2 C 12,5 km/h (3 Bft)
21.02.2016 23:08 9,2 C 8,7 C 48 % 1015,8 hPa 0,0 mm 12,5 km/h (3 Bft) W-SW 247 0 min -1,2 C 12,5 km/h (3 Bft)
21.02.2016 23:09 9,3 C 8,8 C 48 % 1015,8 hPa 0,0 mm 13,4 km/h (3 Bft) SW 225 0 min -1,1 C 16,7 km/h (3 Bft)
21.02.2016 23:10 9,3 C 8,8 C 48 % 1015,8 hPa 0,0 mm 13,4 km/h (3 Bft) SW 225 0 min -1,1 C 16,7 km/h (3 Bft)
21.02.2016 23:11 9,4 C 8,8 C 47 % 1015,8 hPa 0,0 mm 14,3 km/h (3 Bft) SW 225 0 min -1,3 C 22,9 km/h (4 Bft)
21.02.2016 23:12 9,4 C 8,8 C 47 % 1015,8 hPa 0,0 mm 14,3 km/h (3 Bft) SW 225 0 min -1,3 C 22,9 km/h (4 Bft)
21.02.2016 23:13 9,6 C 9,1 C 47 % 1015,8 hPa 0,0 mm 15,2 km/h (3 Bft) S-SW 202 0 min -1,1 C 25,6 km/h (4 Bft)
21.02.2016 23:14 9,6 C 9,0 C 47 % 1015,8 hPa 0,0 mm 15,2 km/h (3 Bft) S-SW 202 0 min -1,1 C 25,6 km/h (4 Bft)
21.02.2016 23:15 9,8 C 9,1 C 47 % 1015,8 hPa 0,0 mm 16,4 km/h (3 Bft) W-SW 247 0 min -1,0 C 16,7 km/h (3 Bft)
21.02.2016 23:16 9,8 C 9,1 C 47 % 1015,8 hPa 0,0 mm 16,4 km/h (3 Bft) W-SW 247 0 min -1,0 C 16,7 km/h (3 Bft)
21.02.2016 23:17 9,8 C 9,3 C 47 % 1015,8 hPa 0,0 mm 16,7 km/h (3 Bft) W-SW 247 0 min -1,0 C 25,6 km/h (4 Bft)
21.02.2016 23:18 9,8 C 9,2 C 47 % 1015,8 hPa 0,0 mm 16,7 km/h (3 Bft) W-SW 247 0 min -1,0 C 25,6 km/h (4 Bft)
21.02.2016 23:19 9,8 C 9,4 C 47 % 1015,8 hPa 0,0 mm 17,0 km/h (3 Bft) W-SW 247 0 min -1,0 C 13,7 km/h (3 Bft)
21.02.2016 23:20 9,8 C 9,2 C 47 % 1015,8 hPa 0,0 mm 17,0 km/h (3 Bft) W-SW 247 0 min -1,0 C 13,7 km/h (3 Bft)
21.02.2016 23:21 9,8 C 9,2 C 47 % 1015,8 hPa 0,0 mm 17,0 km/h (3 Bft) W-SW 247 0 min -1,0 C 12,2 km/h (2 Bft)
21.02.2016 23:22 9,8 C 9,2 C 47 % 1015,8 hPa 0,0 mm 17,0 km/h (3 Bft) W-SW 247 0 min -1,0 C 12,2 km/h (2 Bft)
21.02.2016 23:23 9,8 C 9,4 C 47 % 1015,8 hPa 0,0 mm 16,1 km/h (3 Bft) SW 225 0 min -1,0 C 18,8 km/h (3 Bft)
21.02.2016 23:24 9,8 C 9,3 C 47 % 1015,8 hPa 0,0 mm 16,1 km/h (3 Bft) SW 225 0 min -1,0 C 18,8 km/h (3 Bft)
21.02.2016 23:25 9,7 C 9,2 C 47 % 1015,8 hPa 0,0 mm 15,2 km/h (3 Bft) W-SW 247 0 min -1,1 C 25,3 km/h (4 Bft)
21.02.2016 23:26 9,7 C 9,2 C 47 % 1015,8 hPa 0,0 mm 15,2 km/h (3 Bft) W-SW 247 0 min -1,1 C 25,3 km/h (4 Bft)
21.02.2016 23:27 9,8 C 9,3 C 46 % 1015,8 hPa 0,0 mm 14,0 km/h (3 Bft) W-SW 247 0 min -1,3 C 14,3 km/h (3 Bft)
21.02.2016 23:28 9,8 C 9,3 C 46 % 1015,8 hPa 0,0 mm 14,0 km/h (3 Bft) W-SW 247 0 min -1,3 C 14,3 km/h (3 Bft)
21.02.2016 23:29 10,0 C 9,5 C 46 % 1015,8 hPa 0,0 mm 13,1 km/h (3 Bft) W 270 0 min -1,1 C 15,2 km/h (3 Bft)
21.02.2016 23:30 10,0 C 9,5 C 46 % 1015,8 hPa 0,0 mm 13,1 km/h (3 Bft) W 270 0 min -1,1 C 15,2 km/h (3 Bft)
21.02.2016 23:31 9,9 C 9,5 C 46 % 1015,8 hPa 0,0 mm 12,8 km/h (3 Bft) W-SW 247 0 min -1,2 C 17,0 km/h (3 Bft)
21.02.2016 23:32 9,9 C 9,5 C 46 % 1015,8 hPa 0,0 mm 12,8 km/h (3 Bft) W-SW 247 0 min -1,2 C 17,0 km/h (3 Bft)
21.02.2016 23:33 10,0 C 9,6 C 46 % 1015,8 hPa 0,0 mm 12,8 km/h (3 Bft) W-SW 247 0 min -1,1 C 17,6 km/h (3 Bft)
21.02.2016 23:34 10,0 C 9,6 C 46 % 1015,8 hPa 0,0 mm 12,8 km/h (3 Bft) W-SW 247 0 min -1,1 C 17,6 km/h (3 Bft)
21.02.2016 23:36 9,9 C 9,5 C 46 % 1015,8 hPa 0,0 mm 13,4 km/h (3 Bft) W-SW 247 0 min -1,2 C 16,7 km/h (3 Bft)
21.02.2016 23:37 9,9 C 9,6 C 47 % 1015,8 hPa 0,0 mm 12,8 km/h (3 Bft) W 270 0 min -0,9 C 12,8 km/h (3 Bft)
21.02.2016 23:38 9,9 C 9,6 C 47 % 1015,8 hPa 0,0 mm 12,8 km/h (3 Bft) W 270 0 min -0,9 C 12,8 km/h (3 Bft)
21.02.2016 23:39 9,8 C 9,5 C 47 % 1015,8 hPa 0,0 mm 13,1 km/h (3 Bft) W-SW 247 0 min -1,0 C 21,5 km/h (4 Bft)
21.02.2016 23:40 9,8 C 9,5 C 47 % 1015,8 hPa 0,0 mm 13,1 km/h (3 Bft) W-SW 247 0 min -1,0 C 21,5 km/h (4 Bft)
21.02.2016 23:41 9,9 C 9,6 C 47 % 1015,8 hPa 0,0 mm 12,5 km/h (3 Bft) W-SW 247 0 min -0,9 C 10,4 km/h (2 Bft)
21.02.2016 23:42 9,9 C 9,6 C 47 % 1015,8 hPa 0,0 mm 12,5 km/h (3 Bft) W-SW 247 0 min -0,9 C 10,4 km/h (2 Bft)
21.02.2016 23:43 9,9 C 9,6 C 47 % 1015,7 hPa 0,0 mm 12,5 km/h (3 Bft) S-SW 202 0 min -0,9 C 6,9 km/h (2 Bft)
21.02.2016 23:44 9,9 C 9,6 C 47 % 1015,7 hPa 0,0 mm 12,5 km/h (3 Bft) S-SW 202 0 min -0,9 C 6,9 km/h (2 Bft)
21.02.2016 23:45 9,9 C 9,6 C 47 % 1015,7 hPa 0,0 mm 12,8 km/h (3 Bft) SO 135 0 min -0,9 C 15,8 km/h (3 Bft)
21.02.2016 23:46 9,9 C 9,6 C 47 % 1015,7 hPa 0,0 mm 12,8 km/h (3 Bft) SO 135 0 min -0,9 C 15,8 km/h (3 Bft)
21.02.2016 23:47 9,9 C 9,6 C 47 % 1015,7 hPa 0,0 mm 12,5 km/h (3 Bft) W 270 0 min -0,9 C 8,9 km/h (2 Bft)
21.02.2016 23:48 9,9 C 9,6 C 47 % 1015,7 hPa 0,0 mm 12,5 km/h (3 Bft) W 270 0 min -0,9 C 8,9 km/h (2 Bft)
21.02.2016 23:49 9,8 C 9,5 C 47 % 1015,7 hPa 0,0 mm 12,2 km/h (2 Bft) NW 315 0 min -1,0 C 11,9 km/h (2 Bft)
21.02.2016 23:50 9,8 C 9,5 C 47 % 1015,7 hPa 0,0 mm 12,2 km/h (2 Bft) NW 315 0 min -1,0 C 11,9 km/h (2 Bft)
21.02.2016 23:51 9,5 C 9,3 C 47 % 1015,7 hPa 0,0 mm 11,3 km/h (2 Bft) W-SW 247 0 min -1,2 C 9,5 km/h (2 Bft)
21.02.2016 23:52 9,5 C 9,3 C 47 % 1015,7 hPa 0,0 mm 11,3 km/h (2 Bft) W-SW 247 0 min -1,2 C 9,5 km/h (2 Bft)
21.02.2016 23:53 9,5 C 9,3 C 47 % 1015,7 hPa 0,0 mm 10,4 km/h (2 Bft) W 270 0 min -1,2 C 8,9 km/h (2 Bft)
21.02.2016 23:54 9,5 C 9,3 C 47 % 1015,7 hPa 0,0 mm 10,4 km/h (2 Bft) W 270 0 min -1,2 C 8,9 km/h (2 Bft)
21.02.2016 23:55 9,6 C 9,4 C 47 % 1015,7 hPa 0,0 mm 10,1 km/h (2 Bft) W-NW 292 0 min -1,1 C 14,9 km/h (3 Bft)
21.02.2016 23:56 9,6 C 9,4 C 47 % 1015,7 hPa 0,0 mm 10,1 km/h (2 Bft) W-NW 292 0 min -1,1 C 14,9 km/h (3 Bft)
21.02.2016 23:57 9,5 C 9,3 C 47 % 1015,7 hPa 0,0 mm 9,5 km/h (2 Bft) SW 225 0 min -1,2 C 17,9 km/h (3 Bft)
21.02.2016 23:58 9,5 C 9,3 C 47 % 1015,7 hPa 0,0 mm 9,5 km/h (2 Bft) SW 225 0 min -1,2 C 17,9 km/h (3 Bft)
21.02.2016 23:59 9,5 C 9,4 C 47 % 1015,7 hPa 0,0 mm 9,2 km/h (2 Bft) W-SW 247 0 min -1,2 C 12,8 km/h (3 Bft)
_ Min-Zeit 22:38 22:40 22:22 23:59 - 22:38 - - - 22:32 22:38
Minimum _ 4,4 C 4,8 C 39 % 1015,7 hPa - 0,0 km/h (0 Bft) - - - -5,4 C 0,0 km/h (0 Bft)
_ Max-Zeit 13:49 13:39 02:04 11:22 09:59 14:26 - - 14:04 11:48 05:04
Maximum _ 15,0 C 17,7 C 88 % 1021,2 hPa 0,7 mm 28,6 km/h
W (4 Bft)
- - 5 min 7,3 C 67,1 km/h
W-NW (8 Bft)
Durchschnitt _ 10,4 C 10,4 C 65 % 1018,7 hPa #2,7 mm 16,5 km/h (3 Bft) W-SW - #1:30 h 3,7 C 21,2 km/h (4 Bft)